     2              OBSERVATION DATA    GPS                 RINEX VERSION / TYPE
ASRINEXO V2.4.4 UX USGS 17-JAN-97 11:20                     PGM / RUN BY / DATE
                                                            COMMENT
Original Marker Name: law4 LAPW4_2901_31_dor_1972_USGS      COMMENT
Campaign Name: usgs.landers.pro                             COMMENT
4-Character Station Name: LAW4                              COMMENT
6-Character Antenna Code: ASHP12                            COMMENT
Vertical Measurement Point: EGP                             COMMENT
Vertical Offset to Rinex Ref. Point: 0.0593                 COMMENT
Radial Measurement Point: EGP                               COMMENT
Radial Offset to Rinex Ref. Point: 0.1425                   COMMENT
Antenna Height from Field Measurement: 1.2630 m             COMMENT
Additional Antenna Identification Info.:                    COMMENT
Ashtech L1/L2 Revision B                                    COMMENT
Original XYZ: -2363104.0853 -4705608.7675 3588584.0562      COMMENT
New XYZ position is based on association with SCEC monument COMMENT
E1F2H4F0+0011. Position of that monument is believed to be  COMMENT
valid to within 1 m horizontally; vertical accuracy         COMMENT
should be no worse than 3-times this value.                 COMMENT
                                                            COMMENT
Revised Rinex header created by UCSD GPS archive for        COMMENT
GSAC on 11-Nov-1999 (1999:315) 01:05:11 GMT                 COMMENT
For assistance contact dagnew@ucsd.edu or hjohnson@ucsd.edu COMMENT
                                                            COMMENT
LAW4 LAPW4_2901_31_DOR_1972_USGS                            MARKER NAME
GDH US GEOLOGICAL SURVEY                                    OBSERVER / AGENCY
591 ASHTECH Z-XII3 1E95                                     REC # / TYPE / VERS
36 ASHTECH GEODETIC P                                       ANT # / TYPE
 -2363098.0000 -4705614.0000  3588553.0000                  APPROX POSITION XYZ
        1.1956        0.0000        0.0000                  ANTENNA: DELTA H/E/N
     1     1     0                                          WAVELENGTH FACT L1/2
     5    C1    L1    L2    P1    P2                        # / TYPES OF OBSERV
    30                                                      INTERVAL
  1997     1    10    15    55    0.000000                  TIME OF FIRST OBS
  1997     1    10    23    50   30.000000                  TIME OF LAST OBS
                                                            END OF HEADER
 97  1 10 15 55  0.0000000  0  7 22 21  1 29 25 14 15
  24487086.552     -351791.55749                  24487091.0504   24487081.5194
  24095746.972      291096.90849    211600.81549  24095745.9324   24095756.1094
  23547167.763      231683.10649    168491.56049  23547167.8554   23547172.8334
  22049976.987     -179465.79149   -131207.04349  22049976.4694   22049980.4204
  20897079.010        1819.86949                  20897078.973    20897082.3144
  22876316.120     -283483.25949   -176792.22949  22876315.5864   22876320.2544
  21000872.123       35047.28549     25878.51949  21000871.1994   21000877.2214
 97  1 10 15 55 30.0000000  0  7 22 21  1 29 25 14 15
  24467577.677     -454301.98149   -336517.92759  24467573.3014   24467583.1664
  24111249.233      372561.03949    275079.04549  24111248.8604   24111259.4984
  23559380.647      295861.35849    218500.47949  23559381.2804   23559385.0714
  22039917.910     -232326.59549   -172397.27849  22039917.4434   22039921.6544
  20899172.668       52055.93549     10393.02149  20899172.6644   20899176.4394
  22858630.047     -376424.57649   -249214.01649  22858629.7204   22858634.3354
  21002591.702       44083.79949     32919.94849  21002591.1994   21002596.5984
 97  1 10 15 56  0.0000000  0  7 22 21  1 29 25 14 15
  24447924.670     -557571.05749   -416987.35649  24447922.3864   24447931.7774
  24126654.428      453514.54749    338159.40849  24126653.1864   24126664.9314
  23571458.657      359331.57249    267957.74849  23571458.2094   23571463.1964
  22029757.946     -285716.58449   -213999.86049  22029757.6564   22029761.9624
  20901228.100       62856.93749     18809.39549  20901227.7714   20901231.7884
  22840828.242     -469974.60949   -322110.15549  22840828.2244   22840832.7214
  21004294.309       53030.78949     39891.62449  21004293.7504   21004299.3854
 97  1 10 15 56 30.0000000  0  7 22 21  1 29 25 14 15
  24428133.288     -661572.55549   -498027.51449  24428131.2874   24428141.7454
  24141968.899      533992.00049    400868.82949  24141969.8524   24141978.9274
  23583404.590      422107.63249    316874.12849  23583404.3994   23583409.3314
  22019501.927     -339612.25049   -255996.47549  22019501.9364   22019505.3614
  20903250.343       73484.01049     27090.23349  20903250.0814   20903254.0774
  22822912.412     -564123.79749   -395473.16349  22822912.2674   22822916.2544
  21005984.761       61913.95049     46813.56649  21005984.0404   21005989.5994
 97  1 10 15 57  0.0000000  0  7 22 21  1 29 25 14 15
  24408197.893     -766331.74449   -579658.10849  24408197.0974   24408205.7094
  24157190.568      613981.78049    463198.10049  24157192.1144   24157200.5014
  23595214.567      484169.69549    365234.12749  23595214.5434   23595219.9984
  22009146.033     -394032.60849   -298401.94349  22009145.7554   22009149.7364
  20905233.802       83907.13749     35212.15149  20905233.6584   20905237.7694
  22804879.475     -658887.58149   -469315.08049  22804879.0614   22804883.6884
  21007659.498       70714.45649     53671.09649  21007658.9504   21007664.1264
 97  1 10 15 57 30.0000000  0  7 22 21  1 29 25 14 15
  24388124.293     -871819.07649   -661856.10149  24388123.3544   24388132.2214
  24172324.991      693513.07949    525170.22449  24172324.5884   24172335.7534
  23606895.248      545551.98549    413064.43849  23606894.7274   23606900.2464
  21998694.516     -448955.30549   -341198.84849  21998694.3014   21998698.0294
  20907182.851       94149.36149     43193.10249  20907182.6094   20907186.6704
  22786733.528     -754245.34649   -543619.83149  22786733.0134   22786737.8934
  21009322.564       79453.62149     60480.83249  21009322.0494   21009327.3164
 97  1 10 15 58  0.0000000  0  7 22 21  1 29 25 14 15
  24367927.965     -977950.79649   -744556.18649  24367926.6354   24367936.1974
  24187389.465      772677.39649    586856.51449  24187388.6194   24187400.4834
  23618460.604      606328.22849    460422.48649  23618460.3304   23618465.4004
  21988161.380     -504307.10449   -384330.11349  21988161.3934   21988165.0894
  20909111.997      104287.27349     51092.78149  20909111.8934   20909115.7854
  22768486.606     -850133.78249   -618338.08249  22768486.2654   22768490.8824
  21010988.073       88205.73049     67300.64149  21010987.7564   21010992.8094
 97  1 10 15 58 30.0000000  0  7 22 21  1 29 25 14 15
  24347599.213    -1084778.20149   -827798.37349  24347598.8484   24347607.7824
  24202377.951      851442.24249    648231.38049  24202378.4824   24202389.1714
  23629903.806      666461.99149    507279.93849  23629903.9484   23629908.4234
  21977540.001     -560123.07949   -427823.06149  21977540.1064   21977544.0064
  20911009.298      114257.55649     58861.84749  20911009.0704   20911013.1414
  22750131.683     -946589.66249   -693498.50549  22750131.8614   22750136.3994
  21012647.372       96924.89949     74094.78949  21012647.1374   21012651.8124
 97  1 10 15 59  0.0000000  0  7 22 21  1 29 25 14 15
  24327155.143    -1192212.52949   -911513.49049  24327154.2924   24327163.2154
  24217307.553      929897.69649    709365.13349  24217308.2964   24217319.3964
  23641243.844      726054.09349    553715.27249  23641243.6284   23641249.1194
  21966847.850     -616310.55749   -471605.48749  21966847.6184   21966851.7004
  20912890.240      124141.99049     66563.99649  20912890.3274   20912894.2744
  22731689.796    -1043502.87249   -769015.29749  22731689.5594   22731694.0674
  21014316.518      105695.86049     80929.29249  21014316.2024   21014321.2404
 97  1 10 15 59 30.0000000  0  7 22 21  1 29 25 14 15
  24306615.825    -1300147.75349   -995618.85049  24306614.4014   24306624.4104
  24232196.559     1008138.46749    770331.91249  24232197.7294   24232208.5804
  23652499.555      785203.43949    599805.61049  23652499.2454   23652504.7704
  21956104.587     -672766.49349   -515597.09649  21956104.4654   21956108.4294
  20914775.055      134046.60349     74281.88349  20914774.9434   20914778.8964
  22713180.260    -1140771.17749   -844808.78749  22713179.9834   22713184.7384
  21016012.986      114610.63649     87875.86249  21016012.3674   21016017.5584
 97  1 10 16  0  0.0000000  0  7 22 21  1 29 25 14 15
  24285999.959    -1408484.94549  -1080037.46849  24285998.9934   24286009.3964
  24247059.290     1086240.54749    831190.04749  24247060.1804   24247069.4814
  23663690.901      844014.13949    645632.07149  23663691.1584   23663695.8024
  21945327.028     -729402.66649   -559729.15249  21945327.0464   21945330.9524
  20916679.231      144052.91949     82079.02249  20916679.3744   20916682.9774
  22694621.286    -1238299.34749   -920804.77449  22694621.5704   22694626.3214
  21017755.474      123767.22249     95010.87049  21017754.8814   21017760.1184
 97  1 10 16  0 30.0000000  0  7 22 21  1 29 25 14 15
  24265318.141    -1517168.43149  -1164725.80249  24265317.4204   24265325.9314
  24261903.569     1164245.72149    891973.33549  24261903.9234   24261913.8524
  23674830.770      902554.21249    691247.65549  23674829.9164   23674836.0384
  21934524.700     -786169.21849   -603962.82149  21934524.7154   21934528.5374
  20918614.483      154222.67049     90003.50349  20918614.4154   20918618.2884
  22676025.008    -1336023.56649   -996953.51349  22676024.6054   22676029.2024
  21019555.191      133224.63949    102380.25649  21019554.5054   21019559.7914
 97  1 10 16  1  0.0000000  0  7 22 21  1 29 25 14 15
  24244597.055    -1626058.76149  -1249575.39849  24244596.0654   24244605.5174
  24276750.991     1242267.77049    952769.57449  24276750.5454   24276760.9974
  23685941.710      960942.12249    736744.68749  23685942.6234   23685946.8094
  21923721.551     -842940.34649   -648200.02749  21923721.4534   21923725.3534
  20920610.975      164714.37149     98178.85649  20920610.8524   20920614.8594
  22657417.409    -1433807.00849  -1073148.39549  22657417.3264   22657421.6234
  21021438.130      143119.79449    110090.76349  21021437.5924   21021442.6504
 97  1 10 16  1 30.0000000  0  7 22 21  1 29 25 14 15
  24223857.747    -1735044.51049  -1334499.32949  24223857.6224   24223866.4574
  24291620.327     1320405.14349   1013655.90049  24291619.6224   24291630.4894
  23697040.129     1019264.31349    782190.50349  23697039.2014   23697044.5434
  21912935.015     -899623.99649   -692369.09849  21912935.1314   21912938.8234
  20922690.583      175642.62349    106694.36749  20922690.5734   20922694.4064
  22638815.984    -1531558.14749  -1149318.13149  22638815.8044   22638820.5744
  21023425.006      153561.11449    118226.84849  21023424.3164   21023429.5564
 97  1 10 16  2  0.0000000  0  7 22 21  1 29 25 14 15
  24203129.547    -1843972.89149  -1419378.56049  24203129.1024   24203138.0244
  24306541.235     1398813.64749   1074753.39549  24306542.1214   24306550.7454
  23708156.661     1077681.57449    827710.37649  23708156.5254   23708161.8214
  21902192.296     -956077.82949   -736359.08349  21902192.3684   21902196.1504
  20924884.496      187171.59349    115677.96749  20924884.5144   20924888.4384
  22620251.461    -1629115.30249  -1225336.69449  22620251.5464   22620256.1864
  21025546.116      164707.54249    126912.37549  21025545.5584   21025550.7634
 97  1 10 16  2 30.0000000  0  7 22 21  1 29 25 14 15
  24182444.171    -1952676.06649  -1504082.28849  24182443.6934   24182452.0984
  24321546.263     1477663.97549   1136195.26149  24321546.8534   24321556.1684
  23719321.185     1136351.23549    873426.97549  23719320.5864   23719326.0734
  21891527.044    -1012124.05949   -780031.45649  21891526.9814   21891530.9734
  20927226.685      199479.57649    125268.60649  20927226.5234   20927230.5154
  22601757.717    -1726300.98749  -1301065.80849  22601758.0984   22601762.0634
  21027832.438      176722.24049    136274.48449  21027832.1954   21027837.1484
 97  1 10 16  3  0.0000000  0  7 22 21  1 29 25 14 15
  24161824.693    -2061032.26149  -1588515.64649  24161824.1474   24161832.3114
  24336655.242     1557061.27549   1198063.25549  24336654.9844   24336664.9164
  23730553.143     1195375.25449    919419.66549  23730552.9704   23730558.9134
  21880960.928    -1067649.33249   -823297.88149  21880960.8564   21880964.7404
  20929732.809      212649.18849    135530.64649  20929732.8174   20929736.6714
  22583353.257    -1823017.16149  -1376429.08249  22583352.9104   22583357.7434
  21030302.982      189704.90049    146390.82049  21030302.2154   21030307.7864
 97  1 10 16  3 30.0000000  0  7 22 21  1 29 25 14 15
  24141287.992    -2168953.68949  -1672610.20049  24141287.6744   24141295.1944
  24351883.357     1637085.22449   1260419.67449  24351884.1114   24351892.7814
  23741869.458     1254842.52349    965757.76749  23741869.6264   23741875.0394
  21870509.366    -1122572.68249   -866095.27549  21870509.4314   21870513.1164
  20932412.407      226730.39449    146503.02749  20932412.4224   20932416.2464
  22565051.830    -1919191.63649  -1451370.22749  22565051.0604   22565055.9474
  21032970.678      203723.45249    157314.36149  21032970.2484   21032975.5844
 97  1 10 16  4  0.0000000  0  7 22 21  1 29 25 14 15
  24120835.593    -2276432.34949  -1756359.76649  24120834.9034   24120842.9424
  24367232.814     1717746.32649   1323272.62449  24367232.9164   24367241.1244
  23753272.533     1314765.90649   1012451.26949  23753272.1124   23753277.3674
  21860178.467    -1176862.02249   -908398.64049  21860178.5234   21860182.4004
  20935265.743      241724.76949    158186.95749  20935265.6074   20935269.5474
  22546855.064    -2014816.13049  -1525882.82449  22546854.8274   22546859.7774
  21035836.122      218781.10149    169047.59049  21035835.6044   21035840.9064
 97  1 10 16  4 30.0000000  0  7 22 21  1 29 25 14 15
  24100468.266    -2383463.66949  -1839760.76949  24100467.9034   24100475.8704
  24382704.221     1799049.06849   1386625.52249  24382703.7354   24382712.5154
  23764759.210     1375128.22249   1059486.79549  23764758.9004   23764765.3904
  21849970.638    -1230504.52549   -950197.96849  21849970.6504   21849974.2944
  20938288.689      257610.22049    170565.24249  20938288.7144   20938292.4614
  22528759.395    -2109909.58949  -1599981.63049  22528759.3544   22528764.4334
  21038897.613      234869.23649    181583.79049  21038897.0254   21038902.5154
 97  1 10 16  5  0.0000000  0  7 22 21  1 29 25 14 15
  24080173.079    -2490115.48149  -1922866.07249  24080172.5534   24080180.2644
  24398288.886     1880947.48449   1450442.61749  24398287.9374   24398296.7274
  23776316.746     1435863.11249   1106812.63649  23776316.8284   23776322.4834
  21839873.833    -1283563.60649   -991542.69249  21839873.8204   21839877.7344
  20941468.722      274321.37549    183586.92949  20941468.6434   20941472.6044
  22510750.987    -2204544.35349  -1673723.01549  22510750.9114   22510755.9224
  21042142.653      251921.87249    194871.54949  21042142.2784   21042147.1184
 97  1 10 16  5 30.0000000  0  7 22 21  1 29 25 14 15
  24059929.481    -2596495.92249  -2005759.92249  24059927.5994   24059936.8694
  24413969.878     1963352.27149   1514654.29549  24413969.8104   24413978.7694
  23787926.833     1496874.42449   1154353.86049  23787926.6514   23787932.2874
  21829867.888    -1336145.43449  -1032515.52749  21829868.2174   21829872.0334
  20944793.486      291793.12849    197201.29149  20944793.4314   20944797.3504
  22492812.910    -2298809.54049  -1747176.41049  22492812.7704   22492817.2954
  21045553.272      269844.65649    208837.35349  21045552.6574   21045557.9284
 97  1 10 16  6  0.0000000  0  7 22 21  1 29 25 14 15
  24039715.429    -2702721.56349  -2088533.16149  24039714.5424   24039723.9474
  24429726.304     2046153.27549   1579174.68149  24429725.4034   24429733.4854
  23799568.491     1558051.49449   1202024.26149  23799568.3724   23799574.6504
  21819928.111    -1388379.31249  -1073217.23149  21819928.2384   21819932.1794
  20948243.524      309923.27249    211328.68449  20948243.3834   20948247.2384
  22474924.406    -2392814.29349  -1820426.87649  22474924.2744   22474928.7874
  21049109.028      288530.15449    223397.47449  21049108.3754   21049113.8824
 97  1 10 16  6 30.0000000  0  7 22 21  1 29 25 14 15
  24019519.645    -2808851.21049  -2171231.61349  24019520.0424   24019527.1754
  24445540.679     2129258.65049   1643932.39449  24445540.3854   24445549.3574
  23811228.454     1619324.50549   1249769.41849  23811228.1404   23811234.3184
  21810035.860    -1440363.30749  -1113724.21849  21810035.7164   21810039.7304
  20951802.454      328625.32049    225901.71749  20951802.4294   20951806.2194
  22457075.498    -2486611.04649  -1893515.25849  22457075.2604   22457080.2884
  21052795.958      307905.03949    238494.77449  21052795.6734   21052800.3724
 97  1 10 16  7  0.0000000  0  7 22 21  1 29 25 14 15
  23999323.580    -2914982.32549  -2253931.21049  23999323.0544   23999330.8474
  24461390.926     2212551.94949   1708836.42149  24461391.3714   24461398.8134
  23822888.927     1680600.29949   1297516.74149  23822888.8374   23822895.0644
  21800170.103    -1492208.09149  -1154122.73449  21800170.0264   21800173.8934
  20955453.280      347810.54749    240851.25149  20955453.2124   20955457.1374
  22439251.345    -2580277.79749  -1966502.33649  22439251.0704   22439256.6874
  21056596.127      327874.87949    254055.67849  21056595.6924   21056600.9894
 97  1 10 16  7 30.0000000  0  7 22 21  1 29 25 14 15
  23979113.385    -3021188.27749  -2336689.13349  23979112.5164   23979119.9054
  24477257.258     2295930.05949   1773806.59749  24477256.6884   24477266.1324
  23834533.465     1741792.53849   1345198.95249  23834532.8664   23834539.0604
  21790315.247    -1543995.83749  -1194476.81049  21790315.3094   21790319.2334
  20959177.318      367380.53249    256100.59549  20959177.1444   20959181.0704
  22421438.537    -2673885.08449  -2039443.08649  22421438.6314   22421443.0604
  21060494.031      348358.47449    270016.91049  21060493.6844   21060498.4334
 97  1 10 16  8  0.0000000  0  6 22  1 29 25 14 15
  23958881.629    -3127507.01549  -2419534.92649  23958880.5424   23958887.8774
  23846152.433     1802850.43349   1392776.48749  23846151.9534   23846157.8864
  21780465.553    -1595756.20449  -1234809.54249  21780465.5674   21780469.0714
  20962961.045      387264.13249    271594.32049  20962961.0044   20962964.7474
  22403628.140    -2767479.40449  -2112373.72149  22403628.2614   22403632.9644
  21064480.203      369305.61549    286339.35549  21064479.4244   21064484.6854
 97  1 10 16  8 30.0000000  0  6 22  1 29 25 14 15
  23938616.955    -3233998.41249  -2502515.24049  23938616.6114   23938624.7424
  23857735.488     1863719.73049   1440207.05649  23857735.1844   23857740.8954
  21770614.487    -1647523.86549  -1275147.96449  21770614.2974   21770618.3184
  20966795.544      407414.51349    287295.92849  20966795.4404   20966799.4274
  22385810.188    -2861113.51049  -2185335.36549  22385810.2164   22385814.5024
  21068544.187      390661.98349    302980.67349  21068543.6214   21068548.6494
 97  1 10 16  9  0.0000000  0  6 22  1 29 25 14 15
  23918315.367    -3340684.23049  -2585647.02749  23918314.0664   23918322.6134
  23869283.407     1924404.29349   1487493.68749  23869282.6494   23869288.6734
  21760762.579    -1699296.06049  -1315489.91949  21760762.8174   21760766.2494
  20970680.502      427829.94349    303204.06849  20970680.5704   20970684.2004
  22367979.767    -2954813.31649  -2258348.20049  22367979.7304   22367984.3254
  21072683.952      412416.48349    319932.22349  21072683.5754   21072688.5914
 97  1 10 16  9 30.0000000  0  7 22  1 29 25 14 15 16
  23897972.560    -3447586.49349  -2668947.49649  23897970.8694   23897979.7464
  23880793.465     1984889.83549   1534625.20149  23880793.3314   23880798.9574
  21750904.834    -1751099.04949  -1355855.87749  21750905.0424   21750908.9364
  20974610.384      448481.53649    319296.22849  20974610.3094   20974614.1064
  22350129.236    -3048618.70349  -2331443.30449  22350128.8284   22350133.4994
  21076892.694      434533.47749    337166.23149  21076892.1214   21076897.3804
  24816579.238    -2964155.96049  -2284997.78449  24816578.8204   24816583.7544
 97  1 10 16 10  0.0000000  0  7 22  1 29 25 14 15 16
  23877588.364    -3554705.35649  -2752416.70249  23877587.5604   23877596.4774
  23892266.693     2045181.54249   1581605.70549  23892266.1784   23892272.8424
  21741036.992    -1802954.97249  -1396263.06349  21741036.9534   21741040.8524
  20978586.316      469375.14949    335576.97049  20978586.2474   20978590.0344
  22332257.593    -3142534.78049  -2404624.65249  22332257.2704   22332262.1454
  21081168.737      457004.08149    354675.78549  21081168.1814   21081173.5224
  24795974.635    -3072434.10749  -2369370.39349  24795973.8154   24795979.6394
 97  1 10 16 10 30.0000000  0  7 22  1 29 25 14 15 16
  23857161.250    -3662050.61849  -2836062.34549  23857160.5714   23857168.4024
  23903699.683     2105262.30549   1628421.82249  23903698.1044   23903705.2054
  21731153.637    -1854892.42049  -1436733.80049  21731153.6654   21731157.7364
  20982605.236      490494.80549    352033.84049  20982605.1754   20982608.9204
  22314364.388    -3236564.19449  -2477894.33049  22314364.2774   22314368.9874
  21085509.158      479813.12749    372449.05249  21085508.6964   21085514.0944
  24775315.126    -3181000.84249  -2453967.88049  24775314.6074   24775320.2624
 97  1 10 16 11  0.0000000  0  7 22  1 29 25 14 15 16
  23836691.331    -3769621.32649  -2919883.62049  23836691.2224   23836698.3394
  23915089.234     2165114.34249   1675059.71449  23915089.2584   23915094.7734
  21721251.493    -1906928.33949  -1477281.25849  21721251.4614   21721255.5164
  20986662.821      511817.51249    368648.93749  20986662.8064   20986666.4884
  22296448.292    -3330713.86549  -2551257.71249  22296448.1104   22296452.9924
  21089910.471      502941.95849    390471.50149  21089909.8294   21089915.3444
  24754598.075    -3289869.87449  -2538800.93349  24754597.4194   24754603.3264
 97  1 10 16 11 30.0000000  0  7 22  1 29 25 14 15 16
  23816179.747    -3877410.57349  -3003875.15249  23816178.9424   23816186.9354
  23926430.015     2224710.46849   1721498.18349  23926428.9084   23926435.9064
  21711329.622    -1959068.15449  -1517909.67349  21711329.6194   21711333.8354
  20990759.185      533344.13749    385422.94449  20990759.2304   20990762.9304
  22278509.367    -3424983.87949  -2624714.85949  22278509.0994   22278513.9594
  21094371.892      526386.73549    408740.15049  21094371.2514   21094376.8014
  24733823.968    -3399038.72849  -2623867.60749  24733823.3904   24733828.8434
 97  1 10 16 12  0.0000000  0  7 22  1 29 25 14 15 16
  23795627.868    -3985411.47549  -3088031.58549  23795626.8204   23795634.7594
  23937722.030     2284050.46549   1767737.06549  23937721.1014   23937727.9014
  21701390.905    -2011296.50949  -1558607.08449  21701390.9304   21701394.8294
  20994895.690      555081.42449    402361.09749  20994895.7364   20994899.5344
  22260549.475    -3519363.90249  -2698257.73449  22260549.2824   22260553.7694
  21098896.266      550162.23849    427266.50649  21098895.5994   21098900.7744
  24712998.064    -3508479.50049  -2709146.17249  24712997.4984   24713002.4074
 97  1 10 16 12 30.0000000  0  7 22  1 29 25 14 15 16
  23775036.501    -4093619.93049  -3172349.69549  23775035.7854   23775043.1984
  23948966.102     2343137.93849   1813779.17449  23948966.0464   23948971.3154
  21691441.993    -2063578.13549  -1599346.00149  21691441.8974   21691445.9964
  20999073.483      577035.78749    419468.40049  20999073.1644   20999077.1244
  22242569.664    -3613848.59449  -2771882.16649  22242569.5604   22242573.8604
  21103484.992      574276.16249    446056.56849  21103484.5224   21103489.6744
  24692123.701    -3618174.89649  -2794623.14049  24692122.2594   24692127.6594
 97  1 10 16 13  0.0000000  0  7 22  1 29 25 14 15 16
  23754406.377    -4202031.62249  -3256826.11349  23754404.9684   23754413.4384
  23960162.573     2401975.29749   1859626.39849  23960162.7844   23960168.8324
  21681483.729    -2115909.11349  -1640123.38049  21681483.5714   21681487.7614
  21003292.789      599208.61449    436745.93049  21003292.5934   21003296.3584
  22224566.707    -3708454.77249  -2845601.26349  22224566.3634   22224570.7414
  21108137.534      598725.50149    465107.99149  21108137.0014   21108142.3324
  24671202.973    -3728114.05249  -2880290.03549  24671203.3114   24671208.9934
 97  1 10 16 13 30.0000000  0  7 22  1 29 25 14 15 16
  23733740.417    -4310631.40249  -3341449.03049  23733739.0444   23733747.3244
  23971312.128     2460566.20649   1905281.57949  23971311.7964   23971316.1854
  21671516.931    -2168285.09349  -1680935.82349  21671517.0314   21671520.8854
  21007554.718      621605.33049    454197.92149  21007554.6534   21007558.6054
  22206542.223    -3803174.15749  -2919408.57249  22206542.1214   22206546.9204
  21112855.577      623518.68249    484427.34449  21112855.2844   21112860.2334
  24650240.117    -3838274.68349  -2966129.53049  24650239.3644   24650243.7464
 97  1 10 16 14  0.0000000  0  7 22  1 29 25 14 15 16
  23713038.385    -4419420.68849  -3426219.53349  23713036.3074   23713045.6094
  23982414.939     2518911.98549   1950745.76549  23982414.4604   23982420.5974
  21661540.585    -2220710.95949  -1721787.13649  21661540.8374   21661544.5394
  21011856.646      644211.87749    471813.41649  21011856.5844   21011860.4444
  22188498.641    -3897993.97349  -2993294.14149  22188498.4524   22188502.9264
  21117637.328      648646.81649    504007.69749  21117636.6744   21117641.9214
  24629232.974    -3948668.50149  -3052150.72149  24629233.5064   24629237.0914
 97  1 10 16 14 30.0000000  0  7 22  1 29 25 14 15 16
  23692308.621    -4528355.11749  -3511103.08649  23692307.6974   23692315.3234
  23993475.645     2577036.15449   1996037.25649  23993475.3634   23993480.9774
  21651558.565    -2273167.09349  -1762662.03649  21651558.6784   21651562.6744
  21016204.832      667061.71149    489618.48749  21016204.8644   21016208.6424
  22170446.083    -3992860.73649  -3067216.28849  22170445.7604   22170450.0954
  21122488.380      674139.32449    523871.98149  21122487.8264   21122493.1934
  24608185.766    -4059272.68949  -3138335.81749  24608185.5284   24608190.1514
 97  1 10 16 15  0.0000000  0  7 22  1 29 25 14 15 16
  23671554.656    -4637416.42249  -3596085.48249  23671552.8254   23671560.6394
  24004495.865     2634946.71249   2041162.28849  24004495.7934   24004500.9914
  21641566.387    -2325676.49749  -1803578.44749  21641566.5054   21641570.5294
  21020600.626      690161.56049    507618.37249  21020600.5114   21020604.5684
  22152387.602    -4087758.71549  -3141162.76649  22152387.2514   22152392.0954
  21127410.012      700002.46549    544025.06549  21127409.5794   21127414.8414
  24587097.169    -4170093.96249  -3224690.06149  24587096.1784   24587102.3794
 97  1 10 16 15 30.0000000  0  7 22  1 29 25 14 15 16
  23650774.423    -4746615.84149  -3681175.48049  23650773.1904   23650780.3844
  24015472.335     2692628.26849   2086108.88549  24015472.4544   24015477.6634
  21631561.932    -2378250.23449  -1844544.98949  21631561.8314   21631565.9054
  21025042.847      713505.55949    525808.50249  21025042.8364   21025046.6834
  22134323.977    -4182683.72049  -3215130.29949  22134323.8264   22134328.3114
  21132399.719      726223.40049    564456.95349  21132399.3844   21132404.3164
  24565961.320    -4281162.98749  -3311237.36649  24565960.1204   24565967.0454
 97  1 10 16 16  0.0000000  0  7 22  1 29 25 14 15 16
  23629970.638    -4855938.74049  -3766361.73949  23629968.9134   23629976.9944
  24026407.949     2750095.71449   2130888.62749  24026406.9054   24026413.2744
  21621548.693    -2430870.12249  -1885547.49249  21621548.7334   21621552.7284
  21029533.605      737104.53249    544197.31549  21029533.7274   21029537.5874
  22116257.489    -4277623.68649  -3289109.48849  22116256.9844   22116262.3184
  21137459.421      752812.08849    585175.40449  21137458.9524   21137464.0784
  24544777.004    -4392487.01949  -3397983.34349  24544776.8154   24544783.5904
 97  1 10 16 16 30.0000000  0  7 22  1 29 25 14 15 16
  23609146.934    -4965366.38149  -3851629.65549  23609145.0894   23609152.5154
  24037307.042     2807371.26849   2175518.86049  24037307.5684   24037312.3614
  21611529.079    -2483523.66949  -1926576.21849  21611529.1004   21611532.9604
  21034074.858      760968.80949    562792.86349  21034074.8634   21034078.6764
  22098189.401    -4372572.11049  -3363095.26349  22098189.1824   22098193.7004
  21142591.639      779781.99049    606190.90149  21142591.2494   21142596.6344
  24523547.509    -4504048.59349  -3484914.43949  24523546.4724   24523553.3534
 97  1 10 16 17  0.0000000  0  7 22  1 29 25 14 15 16
  23588306.996    -5074879.49049  -3936964.18449  23588304.8964   23588312.6114
  24048173.299     2864473.52449   2220014.04349  24048173.6364   24048179.5884
  21601508.471    -2536182.37649  -1967608.96149  21601508.3274   21601512.2364
  21038667.243      785101.98849    581597.95349  21038667.1444   21038670.9244
  22080119.419    -4467530.74449  -3437088.99349  22080118.9224   22080124.2324
  21147798.111      807142.12249    627510.47349  21147797.6544   21147803.1134
  24502276.059    -4615831.14749  -3572017.69749  24502276.4374   24502281.5214
 97  1 10 16 17 30.0000000  0  7 22  1 29 25 14 15 16
  23567451.128    -5184476.67149  -4022364.29149  23567449.3244   23567456.4784
  24059006.861     2921403.51149   2264375.00449  24059006.5464   24059011.4534
  21591492.741    -2588815.25849  -2008621.58349  21591492.5914   21591496.9994
  21043308.833      809493.53449    600604.36549  21043308.6814   21043312.5454
  22062047.707    -4562498.21149  -3511089.61149  22062047.4024   22062052.2804
  21153079.450      834895.49549    649136.46849  21153078.8584   21153084.3644
  24480966.693    -4727813.22649  -3659276.43849  24480966.1704   24480972.3764
 97  1 10 16 18  0.0000000  0  7 22  1 29 25 14 15 16
  23546578.175    -5294163.52249  -4107834.28349  23546575.9154   23546583.2164
  24069807.114     2978158.92549   2308599.93449  24069807.8294   24069812.5724
  21581479.548    -2641435.05949  -2049624.02349  21581479.5534   21581483.3874
  21047997.468      834132.56649    619803.62149  21047997.4054   21048001.2154
  22043972.452    -4657484.58349  -3585104.95849  22043972.2564   22043977.1694
  21158434.177      863034.74449    671063.14649  21158433.6314   21158438.6974
  24459622.597    -4839977.85949  -3746677.42549  24459622.7164   24459627.9424
 97  1 10 16 18 30.0000000  0  7 22  1 29 25 14 15 16
  23525692.407    -5403918.17549  -4193357.13449  23525690.2144   23525698.4674
  24080578.814     3034764.13449   2352707.83949  24080578.4424   24080584.7064
  21571470.460    -2694033.07949  -2090609.49249  21571470.6524   21571474.6314
  21052737.928      859043.78449    639214.97349  21052737.8434   21052741.7144
  22025897.950    -4752466.82549  -3659117.09149  22025897.6484   22025902.7634
  21163866.099      891579.81449    693306.04449  21163865.5114   21163870.9514
  24438251.943    -4952281.55149  -3834186.78549  24438251.6204   24438256.2714
 97  1 10 16 19  0.0000000  0  7 22  1 29 25 14 15 16
  23504792.140    -5513748.87749  -4278939.27549  23504790.7224   23504798.1134
  24091320.781     3091213.33849   2396694.18049  24091320.7864   24091325.9254
  21561464.180    -2746616.66349  -2131583.70649  21561464.0294   21561468.1794
  21057528.957      884220.81449    658833.45249  21057528.8264   21057532.6314
  22007822.250    -4847455.01949  -3733133.85449  22007822.1124   22007826.7514
  21169373.202      920519.57449    715856.49449  21169372.6684   21169377.8414
  24416853.993    -5064728.30449  -3921807.63349  24416853.3944   24416859.4024
 97  1 10 16 19 30.0000000  0  7 22  1 29 25 14 15 16
  23483879.699    -5623643.53149  -4364571.31649  23483878.2194   23483885.4484
  24102037.056     3147527.11349   2440574.99449  24102036.1784   24102042.8604
  21551462.453    -2799176.03449  -2172539.05649  21551462.5334   21551466.3584
  21062374.339      909683.47349    678674.49349  21062374.1024   21062378.1674
  21989749.198    -4942429.58849  -3807139.99649  21989749.0934   21989753.7334
  21174958.451      949869.85049    738726.82949  21174957.9224   21174963.1154
  24395433.773    -5177292.39949  -4009519.90549  24395433.9134   24395438.7624
 97  1 10 16 20  0.0000000  0  7 22  1 29 25 14 15 16
  23462952.216    -5733616.95849  -4450264.74249  23462950.3974   23462957.5894
  24112724.381     3203688.95149   2484337.41949  24112724.2584   24112730.7044
  21541456.746    -2851756.46249  -2213510.81449  21541456.6904   21541460.8204
  21067271.486      935418.14449    698727.49149  21067271.4214   21067275.3114
  21971676.478    -5037402.32149  -3881144.71849  21971676.2554   21971681.1914
  21180616.840      979604.96149    761897.03549  21180616.2644   21180621.4534
  24373985.751    -5290003.04749  -4097346.38549  24373985.2014   24373991.2254
 97  1 10 16 20 30.0000000  0  7 22  1 29 25 14 15 16
  23442013.947    -5843646.85949  -4536002.18149  23442013.2824   23442019.8604
  24123388.234     3259727.24049   2528003.56949  24123388.2664   24123394.5244
  21531453.060    -2904326.04649  -2254474.13349  21531452.9754   21531457.2644
  21072221.634      961431.18249    718997.40349  21072221.3254   21072225.0904
  21953610.101    -5132342.05949  -3955123.73149  21953609.8624   21953614.6834
  21186352.857     1009747.77049    785384.92949  21186352.4034   21186357.7134
  24352511.292    -5402852.53749  -4185281.05549  24352510.5584   24352516.0544
 97  1 10 16 21  0.0000000  0  7 22  1 29 25 14 15 16
  23421059.671    -5953761.07749  -4621805.34949  23421057.9094   23421066.2934
  24134023.961     3315617.89749   2571554.67249  24134023.3434   24134030.7504
  21521449.653    -2956894.40849  -2295436.49849  21521449.8304   21521453.8364
  21077219.007      987692.58449    739460.84649  21077218.8954   21077222.7654
  21935545.882    -5227270.49349  -4029093.93649  21935545.5984   21935550.3514
  21192162.104     1040275.38149    809172.66249  21192161.5424   21192166.6604
  24331003.283    -5515878.33849  -4273353.10949  24331002.8174   24331007.9894
 97  1 10 16 21 30.0000000  0  7 22  1 29 25 14 15 16
  23400091.835    -6063947.24049  -4707664.57849  23400091.0844   23400097.7564
  24144632.922     3371368.26749   2614996.46849  24144632.4294   24144639.6804
  21511447.037    -3009458.48149  -2336395.51949  21511447.1654   21511450.9944
  21082266.278     1014215.93649    760128.40549  21082266.2614   21082269.8924
  21917488.689    -5322161.67649  -4103035.11549  21917488.2594   21917493.1164
  21198046.113     1071196.03649    833266.66049  21198045.6284   21198050.8194
  24309462.437    -5629076.37949  -4361559.39049  24309461.9204   24309467.8534
 97  1 10 16 22  0.0000000  0  7 22  1 29 25 14 15 16
  23379114.271    -6174184.57649  -4793563.70249  23379112.9874   23379120.0324
  24155219.795     3427002.35349   2658347.65449  24155219.5994   24155225.9474
  21501449.334    -3061996.88349  -2377334.53649  21501449.2964   21501453.7314
  21087367.470     1041022.83649    781016.91449  21087367.4394   21087371.2184
  21899444.649    -5416983.74649  -4176922.43649  21899444.4104   21899449.2254
  21204009.104     1102531.69749    857684.04249  21204008.4704   21204013.9824
  24287890.014    -5742440.16749  -4449894.82349  24287889.7844   24287894.5774
 97  1 10 16 22 30.0000000  0  7 22  1 29 25 14 15 16
  23358127.471    -6284470.28449  -4879500.51249  23358126.6154   23358134.1084
  24165781.621     3482504.45849   2701596.00549  24165781.2584   24165787.8124
  21491459.161    -3114495.78649  -2418242.77549  21491459.1624   21491462.6884
  21092522.155     1068110.91749    802124.52349  21092522.1314   21092525.8294
  21881411.830    -5511746.76649  -4250763.74349  21881411.4744   21881416.3084
  21210049.818     1134275.90849    882419.77549  21210049.2584   21210055.0234
  24266284.402    -5855978.57749  -4538366.33249  24266283.6214   24266289.5974
 97  1 10 16 23  0.0000000  0  7 22  1 29 25 14 15 16
  23337135.315    -6394784.47849  -4965459.51549  23337134.6684   23337141.4064
  24176318.302     3537874.53349   2744741.47249  24176318.1234   24176323.7864
  21481476.938    -3166952.66049  -2459118.26049  21481477.0034   21481480.7554
  21097736.789     1095513.96449    823477.55349  21097736.6914   21097740.4244
  21863391.854    -5606442.17949  -4324552.37049  21863391.3994   21863396.4364
  21216168.560     1166429.89849    907474.81649  21216168.0234   21216173.4284
  24244649.557    -5969670.37849  -4626957.36549  24244648.1994   24244654.0424
 97  1 10 16 23 30.0000000  0  7 22  1 29 25 14 15 16
  23316144.686    -6505090.80449  -5051412.42149  23316143.7104   23316150.8784
  24186833.239     3593130.43349   2787797.96449  24186832.5644   24186838.6784
  21471505.884    -3219350.88549  -2499948.05049  21471505.7264   21471509.7924
  21103016.018     1123256.55949    845095.16149  21103015.8564   21103019.6544
  21845390.417    -5701040.31749  -4398265.19049  21845390.2714   21845395.1614
  21222368.693     1199011.74649    932863.25249  21222368.0604   21222373.5534
  24222992.697    -6083477.76049  -4715638.45949  24222992.0924   24222998.5894
 97  1 10 16 24  0.0000000  0  7 22  1 29 25 14 15 16
  23295153.298    -6615401.13949  -5137368.46549  23295152.9014   23295159.2464
  24197322.013     3648249.30949   2830747.70249  24197321.7334   24197328.2574
  21461544.732    -3271697.23549  -2540737.41649  21461544.8224   21461548.6044
  21108355.549     1151315.99449    866959.65449  21108355.5504   21108359.3464
  21827400.463    -5795577.97949  -4471930.89549  21827400.0854   21827405.2274
  21228646.582     1232002.01649    958569.94149  21228646.0444   21228651.2084
  24201313.900    -6197400.63949  -4804409.56749  24201312.5104   24201317.5854
 97  1 10 16 24 30.0000000  0  7 22  1 29 25 14 15 16
  23274163.123    -6725705.20749  -5223319.62849  23274161.7334   23274168.8744
  24207783.270     3703223.54649   2873584.73949  24207783.3504   24207788.8804
  21451593.278    -3323992.45249  -2581486.93649  21451593.3014   21451597.0544
  21113753.721     1179683.57549    889064.26349  21113753.6134   21113757.5164
  21809421.578    -5890057.81549  -4545551.54149  21809421.1424   21809426.2864
  21235000.585     1265392.42049    984588.42049  21235000.0254   21235005.6034
  24179615.865    -6311424.60649  -4893259.41949  24179615.5404   24179620.0014
 97  1 10 16 25  0.0000000  0  7 22  1 29 25 14 15 16
  23253175.543    -6835995.54649  -5309260.09149  23253174.6124   23253181.2094
  24218221.022     3758074.38249   2916325.61549  24218220.3254   24218227.4944
  21441649.276    -3376248.61249  -2622206.00549  21441649.0954   21441653.0354
  21119210.644     1208360.07149    911409.58749  21119210.4054   21119214.3064
  21791455.452    -5984470.70949  -4619120.02149  21791455.0604   21791460.1934
  21241431.589     1299187.60649   1010922.30949  21241431.2934   21241436.4694
  24157901.454    -6425534.76549  -4982176.45949  24157901.1834   24157907.5014
 97  1 10 16 25 30.0000000  0  7 22  1 29 25 14 15 16
  23232192.609    -6946260.97949  -5395181.16749  23232191.7184   23232198.7984
  24228637.272     3812811.99549   2958978.23849  24228636.9144   24228644.1084
  21431714.076    -3428458.48949  -2662889.02149  21431714.3034   21431718.0324
  21124724.186     1237333.90049    933986.59149  21124723.8584   21124727.8974
  21773503.187    -6078810.19249  -4692631.29849  21773502.9784   21773507.5794
  21247941.607     1333397.69449   1037579.50249  21247940.8974   21247946.3594
  24136171.371    -6539727.23549  -5071157.60549  24136170.1874   24136175.8984
 97  1 10 16 26  0.0000000  0  7 22  1 29 25 14 15 16
  23211214.421    -7056501.57149  -5481082.87149  23211214.0414   23211220.0154
  24239034.098     3867446.92249   3001550.85449  24239034.4064   24239040.4594
  21421788.146    -3480619.90649  -2703534.27249  21421788.3254   21421792.1944
  21130291.983     1266592.82049    956785.73649  21130291.7834   21130295.8624
  21755563.984    -6173081.18049  -4766089.20749  21755563.6674   21755568.5814
  21254529.961     1368019.55349   1064557.55549  21254529.0464   21254534.8604
  24114423.644    -6654012.35549  -5160210.97049  24114422.9424   24114427.9484
 97  1 10 16 26 30.0000000  0  7 22  1 29 25 14 15 16
  23190241.271    -7166715.77649  -5566964.03149  23190240.0514   23190248.2494
  24249412.715     3921986.27449   3044049.00049  24249412.7714   24249418.8824
  21411870.418    -3532737.96949  -2744145.74349  21411870.5014   21411874.3654
  21135914.164     1296137.73449    979807.72849  21135914.2714   21135917.9774
  21737642.001    -6267262.00849  -4839476.85949  21737641.9544   21737646.6004
  21261197.125     1403055.63049   1091858.37749  21261196.7004   21261201.5934
  24092657.042    -6768396.62249  -5249341.57849  24092656.0314   24092662.3524
 97  1 10 16 27  0.0000000  0  7 22  1 29 25 14 15 16
  23169272.192    -7276908.65349  -5652828.56049  23169271.9074   23169278.5014
  24259773.480     3976432.42449   3086474.52349  24259772.2794   24259780.0264
  21401960.133    -3584816.88949  -2784726.72849  21401960.1114   21401963.9824
  21141589.537     1325961.88249   1003047.31249  21141589.6124   21141593.3874
  21719737.107    -6361353.11149  -4912794.59649  21719736.9094   21719741.6174
  21267942.746     1438503.96449   1119480.43749  21267942.3004   21267947.5634
  24070870.384    -6882886.35349  -5338554.37049  24070870.1734   24070875.0164
 97  1 10 16 27 30.0000000  0  7 22  1 29 25 14 15 16
  23148306.692    -7387083.11249  -5738678.73649  23148306.1014   23148313.0164
  24270113.360     4030768.72649   3128814.44249  24270113.3504   24270119.8184
  21392060.552    -3636839.56749  -2825263.87449  21392060.4554   21392064.6134
  21147315.067     1356049.38049   1026492.10949  21147315.0184   21147318.6924
  21701849.601    -6455352.57349  -4986040.92449  21701849.2824   21701854.3944
  21274765.721     1474358.86249   1147419.30649  21274765.3364   21274770.4204
  24049063.901    -6997480.11249  -5427848.22849  24049064.2894   24049069.0964
 97  1 10 16 28  0.0000000  0  7 22  1 29 25 14 15 16
  23127345.691    -7497234.11849  -5824510.63749  23127344.9424   23127352.1724
  24280432.030     4084993.54949   3171067.49749  24280431.8474   24280437.6964
  21382172.851    -3688799.79549  -2865752.35349  21382172.7604   21382176.8404
  21153091.239     1386403.34049   1050144.53949  21153091.1204   21153095.0844
  21683980.962    -6549252.80949  -5059209.93449  21683980.3934   21683985.2064
  21281666.281     1510621.40349   1175675.81549  21281665.6894   21281670.9274
  24027238.957    -7112170.69749  -5517217.50349  24027238.0794   24027244.3574
 97  1 10 16 28 30.0000000  0  7 22  1 29 25 14 15 16
  23106391.260    -7607350.48449  -5910315.55649  23106390.6494   23106396.7034
  24290726.066     4139089.18449   3213219.90249  24290725.3114   24290732.5704
  21372296.063    -3740702.76249  -2906196.21549  21372296.0074   21372299.7634
  21158921.287     1417040.44549   1074017.60049  21158921.1544   21158925.0304
  21666133.113    -6643043.70449  -5132293.74349  21666133.0584   21666137.3874
  21288644.676     1547292.74949   1204250.87249  21288644.2884   21288649.5034
  24005397.850    -7226946.60449  -5606653.28049  24005397.3594   24005402.9284
 97  1 10 16 29  0.0000000  0  7 22  1 29 25 14 15 16
  23085446.966    -7717413.28949  -5996078.73049  23085446.5484   23085453.2994
  24300996.535     4193061.20849   3255275.97349  24300996.3804   24301002.7304
  21362431.948    -3792539.09749  -2946588.16149  21362431.9364   21362435.9524
  21164805.288     1447961.09749   1098111.60749  21164805.3004   21164809.0704
  21648305.310    -6736729.48949  -5205295.64649  21648305.0604   21648310.1654
  21295700.930     1584373.54649   1233144.98549  21295700.3834   21295705.9394
  23983542.745    -7341795.77049  -5696146.15149  23983542.3694   23983547.8224
 97  1 10 16 29 30.0000000  0  7 22  1 29 25 14 15 16
  23064514.430    -7827414.57149  -6081793.97549  23064514.1094   23064520.8784
  24311244.125     4246912.26949   3297237.77649  24311244.0064   24311251.2624
  21352581.534    -3844303.28049  -2986923.88549  21352581.4454   21352585.3384
  21170745.184     1479175.28749   1122434.34649  21170744.9384   21170748.8564
  21630497.972    -6830307.81449  -5278213.81749  21630497.9284   21630502.7194
  21302835.305     1621865.09049   1262359.15249  21302834.8444   21302840.0524
  23961674.831    -7456712.20649  -5785691.42949  23961674.7884   23961680.2484
 97  1 10 16 30  0.0000000  0  7 22  1 29 25 14 15 16
  23043594.305    -7937350.67149  -6167458.43249  23043592.9434   23043600.0744
  24321469.294     4300645.90349   3339108.07249  24321468.6984   24321475.4514
  21342741.803    -3896011.45149  -3027215.96849  21342741.9574   21342745.6634
  21176744.334     1510700.96549   1146999.80249  21176744.2654   21176748.0534
  21612711.980    -6923773.98349  -5351044.59549  21612711.5414   21612716.5734
  21310047.559     1659765.42749   1291891.86049  21310047.3114   21310052.4774
  23939792.793    -7571702.78449  -5875294.47549  23939792.6964   23939798.0074
 97  1 10 16 30 30.0000000  0  7 22  1 29 25 14 15 16
  23022686.115    -8047223.83249  -6253073.84349  23022685.2974   23022691.3724
  24331675.431     4354280.01349   3380900.83249  24331674.3524   24331681.9254
  21332913.550    -3947659.38249  -3067461.10949  21332913.8014   21332917.6134
  21182803.726     1542543.25049   1171811.96449  21182803.6104   21182807.3024
  21594949.930    -7017114.07749  -5423777.13449  21594949.8574   21594954.4964
  21317337.656     1698075.08149   1321743.51849  21317336.8554   21317342.3104
  23917897.325    -7686764.30349  -5964952.80449  23917896.9944   23917902.9824
 97  1 10 16 31  0.0000000  0  7 22  1 29 25 14 15 16
  23001789.421    -8157036.73949  -6338642.28949  23001788.5634   23001795.7314
  24341867.330     4407838.96449   3422635.01049  24341866.5464   24341874.4394
  21323100.557    -3999227.18849  -3107643.81049  21323100.5754   21323104.5234
  21188923.614     1574703.24149   1196871.68849  21188923.5134   21188927.1754
  21577214.979    -7110311.79149  -5496398.73049  21577214.5554   21577219.3434
  21324706.828     1736800.32349   1351919.01149  21324706.3234   21324711.3924
  23895989.314    -7801892.06949  -6054662.76449  23895988.9714   23895994.1784
 97  1 10 16 31 29.9990000  0  7 22  1 29 25 14 15 16
  22980901.221    -8266804.54849  -6424175.59849  22980899.8044   22980906.6764
  24352039.011     4461291.31449   3464286.12449  24352038.3254   24352045.1764
  21313299.631    -4050731.23749  -3147776.83449  21313299.5504   21313303.6464
  21195101.876     1607170.08649   1222170.52049  21195101.9364   21195105.6104
  21559508.329    -7203360.81549  -5568904.46049  21559508.1834   21559513.1264
  21332151.363     1775921.43749   1382402.97649  21332150.5594   21332156.4474
  23874065.670    -7917101.90749  -6144436.67749  23874064.5494   23874071.0074
 97  1 10 16 31 59.9990000  0  7 22  1 29 25 14 15 16
  22960023.860    -8376515.70049  -6509664.76949  22960023.4274   22960029.4734
  24362194.282     4514657.84549   3505870.36949  24362193.2554   24362200.9384
  21303513.369    -4102158.41649  -3187849.96549  21303513.3654   21303517.4074
  21201340.248     1639953.07249   1247715.69449  21201340.0484   21201343.9434
  21541833.569    -7296242.44149  -5641279.75349  21541833.3494   21541838.0604
  21339673.862     1815452.37349   1413206.28649  21339673.2524   21339678.6354
  23852129.519    -8032377.33049  -6234261.68349  23852128.9454   23852134.8814
 97  1 10 16 32 29.9990000  0  7 22  1 29 25 14 15 16
  22939160.092    -8486155.85149  -6595098.62349  22939159.2214   22939166.0794
  24372333.676     4567940.96849   3547389.61449  24372334.3344   24372340.8344
  21293742.871    -4153502.81749  -3227858.59449  21293742.7994   21293746.8654
  21207635.305     1673033.76249   1273492.84049  21207635.2704   21207639.0304
  21524190.046    -7388959.94049  -5713527.15449  21524189.9634   21524194.6554
  21347272.974     1855385.83249   1444323.24349  21347272.7814   21347277.5874
  23830183.410    -8147705.25249  -6324127.61349  23830183.7174   23830189.2794
 97  1 10 16 32 59.9990000  0  7 22  1 29 25 14 15 16
  22918313.129    -8595707.44849  -6680463.48449  22918312.7624   22918318.6144
  24382454.629     4621126.49049   3588832.80349  24382453.3494   24382461.1824
  21283987.053    -4204769.94149  -3267806.99849  21283986.7434   21283990.8364
  21213985.693     1706405.22449   1299496.56449  21213985.5034   21213989.4414
  21506576.364    -7481520.70249  -5785652.42249  21506576.0774   21506580.7544
  21354947.541     1895715.94249   1475749.28249  21354946.6584   21354952.5974
  23808228.324    -8263080.22249  -6414030.19549  23808227.6974   23808234.3084
 97  1 10 16 33 29.9990000  0  7 22  1 29 25 14 15 16
  22897485.929    -8705154.84749  -6765747.14949  22897484.8614   22897491.6914
  24392556.782     4674213.19549   3630198.99649  24392556.7744   24392563.5244
  21274244.418    -4255967.83549  -3307701.45749  21274244.3274   21274248.3314
  21220389.469     1740057.28549   1325718.93349  21220389.1004   21220392.8004
  21488990.727    -7573934.04149  -5857662.81949  21488990.3424   21488995.3264
  21362696.976     1936439.44649   1507481.86049  21362696.2334   21362701.8204
  23786264.237    -8378502.26549  -6503969.46649  23786263.6424   23786269.5884
 97  1 10 16 33 59.9990000  0  7 22  1 29 25 14 15 16
  22876682.420    -8814477.31549  -6850933.45949  22876681.3334   22876688.0274
  24402645.916     4727231.26649   3671511.72649  24402645.6004   24402652.8254
  21264515.186    -4307095.07349  -3347540.86149  21264514.8934   21264518.7794
  21226848.219     1773998.25249   1352166.41849  21226848.0694   21226851.9414
  21471433.533    -7666197.87749  -5929556.71749  21471433.1764   21471438.0204
  21370523.810     1977569.42349   1539531.16849  21370523.3354   21370528.7284
  23764295.111    -8493951.10249  -6593929.60549  23764295.3014   23764301.8574
 97  1 10 16 34 29.9990000  0  7 22  1 29 25 14 15 16
  22855902.868    -8923674.45049  -6936022.11649  22855901.9084   22855908.7674
  24412721.554     4780179.18549   3712769.78349  24412722.0744   24412728.8664
  21254798.664    -4358155.61249  -3387328.30049  21254798.8294   21254802.6774
  21233362.687     1808231.91449   1378841.97849  21233362.7394   21233366.5264
  21453902.073    -7758326.28749  -6001345.09349  21453901.7334   21453906.4594
  21378427.113     2019101.35649   1571893.69549  21378426.6434   21378432.0094
  23742318.148    -8609441.20649  -6683921.90849  23742317.1564   23742322.9814
 97  1 10 16 34 59.9990000  0  7 22  1 29 25 14 15 16
  22835143.027    -9032767.79149  -7021029.88949  22835142.3004   22835148.4864
  24422780.530     4833039.54849   3753959.61649  24422780.6514   24422786.3554
  21245092.345    -4409162.92949  -3427074.25749  21245092.2394   21245096.1114
  21239930.590     1842746.26649   1405736.26049  21239930.4424   21239934.4604
  21436393.207    -7850335.99649  -6073040.97549  21436392.9844   21436397.6134
  21386404.320     2061021.90049   1604559.03949  21386403.6714   21386409.3664
  23720328.742    -8724996.27049  -6773964.82549  23720327.7694   23720334.1424
 97  1 10 16 35 29.9990000  0  7 22  1 29 25 14 15 16
  22814400.068    -9141772.71749  -7105968.77849  22814399.0904   22814406.6554
  24432820.550     4885799.27749   3795071.04449  24432820.7004   24432825.7554
  21235393.316    -4460131.48149  -3466790.01849  21235393.4134   21235397.2654
  21246549.306     1877527.58549   1432838.56649  21246549.0804   21246552.9914
  21418904.257    -7942240.98049  -6144655.25349  21418903.7814   21418908.8204
  21394453.359     2103319.69049   1637518.34349  21394452.6494   21394458.4354
  23698324.949    -8840627.09949  -6864066.77949  23698324.2024   23698330.9854
 97  1 10 16 35 59.9990000  0  7 22  1 29 25 14 15 16
  22793678.874    -9250663.29049  -7190818.57849  22793678.9644   22793685.7684
  24442846.103     4938483.59849   3836123.71349  24442845.6404   24442851.5624
  21225706.231    -4511037.67549  -3506457.19449  21225706.2494   21225710.0114
  21253223.504     1912600.77549   1460168.30049  21253223.4204   21253227.1304
  21401440.243    -8034014.89549  -6216167.40549  21401440.0014   21401444.7914
  21402578.389     2146017.06949   1670789.00549  21402577.8344   21402583.2634
  23676312.613    -8956302.51149  -6954203.47549  23676312.3604   23676318.1664
 97  1 10 16 36 29.9990000  0  7 22  1 29 25 14 15 16
  22772976.142    -9359457.05549  -7275592.99149  22772975.7174   22772981.9294
  24452852.547     4991067.21449   3877097.92349  24452853.0124   24452858.9194
  21216032.521    -4561873.38349  -3546069.44249  21216032.7264   21216036.4444
  21259948.628     1947941.25549   1487706.31249  21259948.5744   21259952.3294
  21384001.357    -8125656.84949  -6287576.72749  21384000.8644   21384005.8774
  21410776.169     2189096.65249   1704357.49749  21410775.4194   21410781.1034
  23654287.347    -9072046.40349  -7044393.53749  23654286.5484   23654291.7624
 97  1 10 16 36 59.9990000  0  7 22  1 29 25 14 15 16
  22752291.891    -9468153.83049  -7360291.84249  22752291.0574   22752297.2364
  24462838.478     5043543.20149   3917988.25849  24462837.6004   24462845.6724
  21206370.896    -4612645.76349  -3585632.34849  21206370.9554   21206374.4254
  21266722.594     1983538.74249   1515444.58349  21266722.4744   21266726.5194
  21366591.345    -8217147.11049  -6358867.84549  21366590.9574   21366595.8464
  21419047.174     2232560.93649   1738225.74749  21419046.5434   21419051.5464
  23632253.246    -9187836.53549  -7134619.63949  23632252.0124   23632257.9564
 97  1 10 16 37 29.9990000  0  7 22  1 29 25 14 15 16
  22731629.035    -9576737.96349  -7444902.92149  22731628.0114   22731634.6044
  24472806.172     5095923.59049   3958804.10449  24472806.1494   24472811.8414
  21196722.878    -4663346.45049  -3625139.39349  21196722.7944   21196726.6184
  21273546.842     2019400.40049   1543388.70449  21273546.7704   21273550.7224
  21349214.245    -8308464.34849  -6430024.14349  21349214.0874   21349219.0244
  21427392.266     2276414.63949   1772397.44349  21427391.8954   21427397.1414
  23610214.642    -9303650.18449  -7224864.06549  23610213.8194   23610219.4284
 97  1 10 16 37 59.9990000  0  7 22  1 29 25 14 15 16
  22710985.959    -9685218.20249  -7529433.04449  22710985.2924   22710991.6134
  24482758.037     5148220.78149   3999555.10849  24482758.5694   24482763.2834
  21187091.637    -4713958.97349  -3664577.73549  21187091.6624   21187095.3844
  21280421.991     2055529.29849   1571541.06749  21280421.5814   21280425.7164
  21331873.324    -8399591.54349  -6501032.35049  21331873.0424   21331878.0504
  21435811.682     2320658.81749   1806873.40649  21435811.1174   21435816.3784
  23588172.980    -9419480.14649  -7315121.20249  23588172.4184   23588177.9384
 97  1 10 16 38 29.9990000  0  7 22  1 29 25 14 15 16
  22690361.323    -9793601.33449  -7613887.51449  22690360.4404   22690367.5224
  24492691.018     5200418.57359   4040228.66049  24492690.5134   24492697.4614
  21177477.735    -4764480.49149  -3703945.16849  21177477.7674   21177481.5664
  21287346.494     2091917.85149   1599895.75549  21287346.5474   21287350.5104
  21314567.606    -8490533.61249  -6571896.30549  21314567.4024   21314572.2474
  21444303.769     2365285.00649   1841647.04049  21444303.6974   21444308.8574
  23566127.994    -9535327.01849  -7405391.51149  23566127.4194   23566133.2804
 97  1 10 16 38 59.9990000  0  7 22  1 29 25 14 15 16
  22669759.177    -9901866.40949  -7698249.96949  22669759.1524   22669765.1214
  24502609.084                     4080840.61549  24502609.446    24502615.1474
  21167880.019    -4814916.86749  -3743246.24949  21167879.9424   21167883.9064
  21294322.390     2128576.24649   1628460.71249  21294322.4174   21294326.3714
  21297295.714    -8581298.14349  -6642621.92349  21297295.4594   21297300.2824
  21452868.649     2410293.58149   1876718.63649  21452868.0194   21452873.7844
  23544082.627    -9651176.13449  -7495663.55449  23544081.7914   23544088.0084
 97  1 10 16 39 29.9990000  0  7 22  1 29 25 14 15 16
  22649183.916   -10009990.28549  -7782502.39949  22649183.7664   22649190.6684
  24512512.887     5304581.48759   4121394.46449  24512512.5514   24512519.5794
  21158303.563    -4865241.66249  -3782460.38649  21158303.6414   21158307.4274
  21301350.507     2165509.13749   1657239.56149  21301350.4524   21301354.6974
  21280060.006    -8671872.32849  -6713199.21649  21280059.8814   21280064.6794
  21461506.064     2455683.21449   1912087.15749  21461505.6394   21461510.8644
  23522033.894    -9767043.07349  -7585949.49549  23522032.5364   23522039.6594
 97  1 10 16 39 59.9990000  0  7 22  1 29 25 14 15 16
  22628640.239   -10117948.13749  -7866625.45149  22628640.0984   22628646.4174
  24522401.575     5356546.67049   4161886.75849  24522401.5354   24522408.9824
  21148750.619    -4915442.79949  -3821578.16749  21148750.5154   21148754.3484
  21308431.410     2202719.25149   1686234.42549  21308431.4904   21308435.5694
  21262862.166    -8762247.57049  -6783621.49149  21262861.9874   21262867.0914
  21470215.675     2501452.22849   1947751.29449  21470215.3594   21470220.5924
  23499981.414    -9882929.54249  -7676250.64249  23499980.6124   23499986.5894
 97  1 10 16 40 29.9990000  0  7 22  1 29 25 14 15 16
  22608139.311   -10225681.89949  -7950573.88249  22608138.2224   22608144.7944
  24532279.210     5408453.41049   4202333.49849  24532278.2874   24532286.0074
  21139222.720    -4965512.37449  -3860593.43549  21139222.8414   21139226.4764
  21315570.385     2240234.57849   1715467.11749  21315570.3884   21315574.3854
  21245706.179    -8852403.01349  -6853872.49149  21245705.9444   21245711.0484
  21479000.585     2547616.59449   1983723.50349  21478999.5184   21479005.3274
  23477927.868    -9998821.58549  -7766556.14449  23477926.3504   23477932.9664
 97  1 10 16 40 59.9990000  0  7 22  1 29 25 14 15 16
  22587676.535   -10333214.83449  -8034365.81849  22587675.6784   22587682.9354
  24542140.832     5460276.72949   4242715.21549  24542140.5004   24542146.7364
  21129711.177    -5015495.97949  -3899541.71049  21129711.2954   21129715.0114
  21322763.229     2278033.39349   1744920.70749  21322763.1284   21322767.1834
  21228590.449    -8942346.94149  -6923958.67349  21228590.2534   21228595.1394
  21487853.959     2594141.55049   2019976.68349  21487853.0494   21487858.8414
  23455866.820   -10114753.12549  -7856892.40849  23455865.7624   23455873.1564
 97  1 10 16 41 29.9990000  0  7 22  1 29 25 14 15 16
  22567249.422   -10440560.13849  -8118011.56749  22567248.7494   22567255.1984
  24551982.062     5511992.49949   4283013.16549  24551982.1464   24551989.1994
  21120215.414    -5065396.63249  -3938425.34549  21120215.3394   21120219.1234
  21330009.632     2316113.47049   1774593.46249  21330009.6224   21330013.6964
  21211516.573    -9032070.92949  -6993873.47649  21211516.2034   21211521.1734
  21496774.054     2641017.29749   2056503.20649  21496773.2544   21496779.2354
  23433799.455   -10230718.02749  -7947254.67649  23433798.7294   23433804.9454
 97  1 10 16 41 59.9990000  0  7 22  1 29 25 14 15 16
  22546856.872   -10547723.49249  -8201515.52249  22546855.8464   22546863.2694
  24561808.573     5563630.01849   4323250.11249  24561808.5644   24561815.6374
  21110732.787    -5115228.19949  -3977255.14849  21110732.7844   21110736.6234
  21337313.650     2354496.18049   1804502.03549  21337313.5254   21337317.7754
  21194484.300    -9121575.91649  -7063617.62949  21194484.1244   21194489.0134
  21505763.276     2688255.90049   2093312.47949  21505762.7104   21505768.3854
  23411733.059   -10346677.97349  -8037613.08449  23411733.0444   23411738.9204
 97  1 10 16 42 29.9990000  0  7 22  1 29 25 14 15 16
  22526497.383   -10654713.36449  -8284884.27249  22526497.2104   22526503.6234
  24571624.494     5615212.23149   4363443.97349  24571624.3084   24571629.9224
  21101260.487    -5165005.40649  -4016042.59349  21101260.6014   21101264.4804
  21344677.127     2393191.33149   1834654.06749  21344677.0884   21344681.0744
  21177496.268    -9210848.59649  -7133180.76649  21177495.9054   21177500.8924
  21514824.237     2735871.38749   2130415.42149  21514823.9074   21514829.2454
  23389670.281   -10462618.93649  -8127956.70149  23389669.6394   23389675.5004
 97  1 10 16 42 59.9990000  0  7 22  1 29 25 14 15 16
  22506162.820   -10761572.54749  -8368151.17349  22506161.9284   22506169.5494
  24581427.048     5666724.30949   4403583.18349  24581426.0234   24581432.6924
  21091797.374    -5214734.49249  -4054792.54649  21091797.5024   21091801.2554
  21352093.677     2432165.33949   1865023.38749  21352093.6234   21352097.7534
  21160547.715    -9299913.91249  -7202582.32249  21160547.5584   21160552.5614
  21523953.521     2783845.74349   2167798.00449  21523953.1874   21523958.3144
  23367610.137   -10578545.45249  -8218289.06949  23367610.1904   23367615.0844
 97  1 10 16 43 29.9990000  0  7 22  1 29 25 14 15 16
  22485852.215   -10868305.94049  -8451320.00649  22485851.4394   22485858.9334
  24591217.104     5718170.81049   4443671.28549  24591217.3644   24591223.2684
  21082345.438    -5264404.89049  -4093496.76349  21082345.5864   21082349.4654
  21359561.256     2471407.52449   1895601.67449  21359561.2434   21359565.5464
  21143634.686    -9388792.73549  -7271838.54849  21143634.6164   21143639.2814
  21533151.420     2832181.00949   2205461.81249  21533150.6404   21533156.1964
  23345555.056   -10694445.88549  -8308601.10549  23345553.8894   23345560.3954
 97  1 10 16 43 59.9990000  0  7 22  1 29 25 14 15 16
  22465569.869   -10974890.58549  -8534372.90349  22465569.5504   22465575.8484
  24600998.186     5769570.26249   4483722.71949  24600997.5244   24601004.8354
  21072904.330    -5314018.44149  -4132156.68449  21072904.4024   21072908.3634
  21367077.540     2510905.72349   1926379.45149  21367077.4304   21367081.5034
  21126755.141    -9477495.43249  -7340957.53949  21126754.9824   21126759.8694
  21542419.547     2880885.41849   2243413.26749  21542419.1744   21542424.7974
  23323504.322   -10810323.21949  -8398895.13749  23323503.5844   23323509.8684
 97  1 10 16 44 29.9990000  0  7 22  1 29 25 14 15 16
  22445316.958   -11081320.25549  -8617305.02249  22445315.5714   22445322.6554
  24610764.997     5820895.94849   4523716.66949  24610765.0324   24610771.1384
  21063477.240    -5363558.24149  -4170759.13849  21063477.3384   21063481.1464
  21374637.349     2550632.52949   1957335.36349  21374637.2974   21374641.8434
  21109909.249    -9566021.08849  -7409938.57949  21109908.9844   21109913.9554
  21551755.151     2929944.09449   2281640.76949  21551754.9214   21551760.0714
  23301454.640   -10926195.14749  -8489184.96449  23301454.6294   23301460.2494
 97  1 10 16 44 59.9990000  0  7 22  1 29 25 14 15 16
  22425099.290   -11187564.78949  -8700092.87849  22425098.3174   22425105.4114
  24620517.907     5872147.48549   4563652.84249  24620517.7904   24620524.2534
  21054072.001    -5412983.16249  -4209272.07749  21054072.1294   21054076.0724
  21382244.175     2590606.54949   1988483.91749  21382244.3204   21382248.3934
  21093098.681    -9654361.22749  -7478775.06049  21093098.5124   21093103.3144
  21561159.926     2979366.40849   2320151.62149  21561159.4704   21561164.9624
  23279410.305   -11042039.15849  -8579453.02749  23279409.3004   23279415.6434
 97  1 10 16 45 29.9990000  0  6 22 29 25 14 15 16
  22404917.007   -11293623.40549  -8782735.85749  22404916.0194   22404923.0764
  21044682.171    -5462327.07149  -4247721.89049  21044682.2104   21044686.0504
  21389894.861     2630810.85449   2019811.90749  21389894.7544   21389899.0524
  21076322.279    -9742521.90549  -7547471.70349  21076321.9764   21076326.8424
  21570628.898     3029126.04849   2358925.32749  21570628.6254   21570634.4664
  23257364.332   -11157891.49449  -8669727.57949  23257364.3624   23257369.6134
 97  1 10 16 45 59.9990000  0  6 22 29 25 14 15 16
  22384774.684   -11399471.58049  -8865214.83449  22384773.8644   22384780.9144
  21035310.036    -5511578.02549  -4286099.27049  21035310.1284   21035314.0444
  21397591.687     2671257.62449   2051328.82949  21397591.8054   21397595.8074
  21059586.916    -9830466.89149  -7616000.27049  21059586.7814   21059591.5584
  21580164.169     3079234.02449   2397970.46549  21580163.6744   21580169.9704
  23235316.355   -11273754.59649  -8760010.52249  23235315.7964   23235322.4694
 97  1 10 16 46 29.9990000  0  6 22 29 25 14 15 16
  22364672.518   -11505108.78149  -8947529.40949  22364671.7004   22364677.6814
  21025959.207    -5560716.87249  -4324389.29249  21025959.1514   21025963.2894
  21405339.842     2711974.27749   2083056.05249  21405339.7924   21405343.7214
  21042897.644    -9918169.61649  -7684340.06449  21042897.5754   21042902.4624
  21589767.215     3129698.07049   2437293.06449  21589766.7164   21589772.6494
  23213267.810   -11389620.56849  -8850295.69449  23213267.1404   23213273.1574
 97  1 10 16 46 59.9990000  0  6 22 29 25 14 15 16
  22344607.945   -11610548.75349  -9029690.31249  22344607.0404   22344613.7914
  21016621.510    -5609787.05649  -4362625.81149  21016621.4564   21016625.3044
  21413136.782     2752947.33149   2114983.06449  21413136.6744   21413140.9824
  21026250.786   -10005649.68549  -7752506.36349  21026250.7304   21026255.4874
  21599433.793     3180496.06749   2476875.88749  21599433.1944   21599439.3784
  23191212.751   -11505520.93249  -8940607.67949  23191212.2184   23191218.0454
 97  1 10 16 47 29.9990000  0  6 22 29 25 14 15 16
  22324582.518   -11715782.93049  -9111690.88849  22324581.1144   22324588.2974
  21007298.580    -5658779.28849  -4400801.59149  21007298.5404   21007302.6064
  21420981.545     2794171.69549   2147105.91049  21420981.4334   21420985.2854
  21009651.354   -10092880.57149  -7820478.48749  21009651.2514   21009655.9974
  21609166.573     3231642.08549   2516729.88349  21609166.2264   21609171.8404
  23169155.123   -11621434.64349  -9030930.04549  23169154.3584   23169160.3414
 97  1 10 16 47 59.9990000  0  6 22 29 25 14 15 16
  22304596.266   -11820810.90949  -9193530.82849  22304595.2404   22304601.8014
  20997995.780    -5707665.92849  -4438895.09649  20997995.6204   20997999.8654
  21428873.376     2835643.49349   2179421.55949  21428873.2604   21428877.4314
  20993099.282   -10179862.41649  -7888256.55949  20993099.1404   20993104.0854
  21618966.884     3283142.80149   2556860.27449  21618966.3514   21618972.5484
  23147100.876   -11737330.48449  -9121238.48849  23147100.1264   23147106.4024
 97  1 10 16 48 29.9990000  0  6 22 29 25 14 15 16
  22284646.920   -11925645.24749  -9275219.87549  22284645.6714   22284652.3974
  20988712.033    -5756452.19749  -4476910.38549  20988712.0074   20988716.1054
  21436809.882     2877349.66749   2211919.83449  21436810.1154   21436814.0404
  20976591.963   -10266609.26149  -7955851.51349  20976591.8784   20976596.7754
  21628830.378     3334975.53849   2597249.38549  21628829.9734   21628835.5804
  23125050.099   -11853207.96149  -9211532.63149  23125049.0724   23125054.9194
 97  1 10 16 48 59.9990000  0  6 22 29 25 14 15 16
  22264738.532   -12030264.52349  -9356741.37249  22264737.5634   22264744.0464
  20979450.111    -5805124.15649  -4514836.60149  20979450.1294   20979454.4844
  21444789.968     2919285.03349   2244596.70649  21444790.1414   21444794.1564
  20960132.561   -10353104.19049  -8023250.16449  20960132.2824   20960137.1664
  21638757.781     3387144.36649   2637900.39049  21638757.4804   21638762.6114
  23103007.309   -11969043.13649  -9301793.80049  23103006.5314   23103012.4754
 97  1 10 16 49 29.9990000  0  6 22 29 25 14 15 16
  22244870.281   -12134672.67849  -9438098.34149  22244869.4474   22244875.7474
  20970214.165    -5853659.38049  -4552656.27549  20970214.1234   20970218.3604
  21452812.475     2961443.24749   2277447.22049  21452812.3174   21452816.5944
  20943720.837   -10439348.37349  -8090453.43349  20943720.5644   20943725.6194
  21648748.523     3439645.67549   2678810.45349  21648748.0644   21648753.2274
  23080976.412   -12084816.08749  -9392006.48149  23080975.1734   23080982.7064
 97  1 10 16 49 59.9990000  0  6 22 29 25 14 15 16
  22225043.642   -12238861.90149  -9519284.68849  22225042.6734   22225049.2564
  20961003.361    -5902062.46849  -4590372.98249  20961003.3294   20961007.5644
  21460879.258     3003834.24949   2310479.12949  21460879.0734   21460883.3874
  20927355.517   -10525348.83049  -8157466.78149  20927355.0744   20927360.0354
  21658800.436     3492468.38049   2719970.95949  21658799.6254   21658805.9284
  23058953.812   -12200545.35949  -9482185.12449  23058952.7494   23058959.1044
 97  1 10 16 50 29.9990000  0  6 22 29 25 14 15 16
  22205261.541   -12342817.46549  -9600288.98849  22205260.4784   22205266.9334
  20951814.774    -5950349.04349  -4627998.89149  20951814.7804   20951818.9364
  21468995.305     3046484.35349   2343712.93049  21468995.3544   21468999.3744
  20911038.579   -10611094.83749  -8224281.85349  20911038.3294   20911043.1104
  21668915.272     3545622.31649   2761389.56649  21668914.7724   21668920.1964
  23036938.950   -12316234.23349  -9572332.29349  23036938.1204   23036944.6464
 97  1 10 16 50 59.9990000  0  6 22 29 25 14 15 16
  22185525.006   -12446533.59049  -9681106.74049  22185524.7214   22185531.1914
  20942644.722    -5998538.02549  -4665548.75949  20942644.9994   20942648.9814
  21477160.231     3089391.10749   2377146.72049  21477160.2314   21477164.4154
  20894768.940   -10696592.34849  -8290903.29849  20894768.6834   20894773.7794
  21679094.285     3599113.52849   2803070.97849  21679093.6564   21679099.6014
  23014933.034   -12431875.99049  -9662442.75049  23014932.1844   23014938.8384
 97  1 10 16 51 29.9990000  0  6 22 29 25 14 15 16
  22165833.405   -12550013.76349  -9761740.63049  22165832.4344   22165838.6394
  20933491.411    -6046639.16949  -4703030.18349  20933491.5854   20933495.5384
  21485375.880     3132564.49649   2410788.28049  21485375.8944   21485379.9124
  20878547.445   -10781836.81949  -8357327.56549  20878547.3024   20878552.0484
  21689338.165     3652945.06949   2845017.57649  21689337.8644   21689343.5924
  22992937.862   -12547461.38349  -9752509.28849  22992937.4914   22992943.7124
 97  1 10 16 51 59.9990000  0  6 22 29 25 14 15 16
  22146188.838   -12653246.51749  -9842181.71149  22146188.0234   22146194.2664
  20924349.832    -6094678.73049  -4740463.61949  20924349.7444   20924353.7484
  21493643.255     3176009.61349   2444641.58249  21493643.1804   21493647.1374
  20862375.300   -10866821.96849  -8423549.76349  20862375.1784   20862380.0034
  21699646.965     3707118.05849   2887230.25549  21699646.2574   21699652.0134
  22970953.149   -12662991.93249  -9842533.10349  22970953.1104   22970958.6274
 97  1 10 16 52 29.9990000  0  6 22 29 25 14 15 16
  22126591.623   -12756230.54049  -9922428.96549  22126590.7404   22126597.0964
  20915216.407    -6142675.19049  -4777863.46749  20915216.4474   20915220.4594
  21501960.055     3219714.25149   2478697.10149  21501960.0834   21501964.1594
  20846253.309   -10951543.58349  -8489566.61149  20846252.9394   20846257.8944
  21710019.226     3761624.56349   2929702.82149  21710019.0174   21710024.5294
  22948982.313   -12778449.76049  -9932500.23549  22948981.5614   22948987.9224
 97  1 10 16 52 59.9990000  0  6 22 29 25 14 15 16
  22107041.006   -12858969.63249 -10002485.40549  22107040.4344   22107046.7704
  20906091.843    -6190625.15549  -4815227.09549  20906091.8144   20906096.0244
  21510319.556     3263643.55049   2512927.68249  21510319.3164   21510323.3084
  20830181.940   -11035999.01449  -8555376.04349  20830181.6954   20830186.5024
  21720451.103     3816443.81149   2972419.08249  21720450.8954   21720456.3504
  22927026.205   -12893830.19749 -10022407.08049  22927025.3614   22927031.2834
 97  1 10 16 53 29.9990000  0  6 22 29 25 14 15 16
  22087539.276   -12961451.69049 -10082341.53449  22087537.9464   22087544.9454
  20896982.359    -6238495.95049  -4852529.02649  20896982.1704   20896986.4974
  21518722.779     3307802.88349   2547337.50449  21518722.8884   21518726.8684
  20814162.899   -11120179.50449  -8620971.23549  20814162.7054   20814167.6004
  21730942.823     3871577.80249   3015380.59549  21730942.3724   21730947.9054
  22905084.331   -13009135.87849 -10112255.65449  22905083.9404   22905089.3034
 97  1 10 16 53 59.9990000  0  6 22 29 25 14 15 16
  22068090.422   -13063655.95149 -10161981.18049  22068089.3604   22068095.9904
  20887892.046    -6286266.00549  -4889752.45249  20887892.1934   20887896.1884
  21527170.141     3352193.82249   2581927.80049  21527170.2004   21527174.1864
  20798198.077   -11204075.34449  -8686344.62549  20798197.9174   20798202.9494
  21741494.962     3927029.43649   3058589.60649  21741494.8264   21741500.3204
  22883154.008   -13124380.24349 -10202056.45949  22883153.3434   22883158.9994
 97  1 10 16 54 29.9990000  0  6 22 29 25 14 15 16
  22048692.996   -13165589.85549 -10241410.12049  22048692.3084   22048698.5504
  20878824.364    -6333916.99649  -4926883.11149  20878824.3114   20878828.4044
  21535660.248     3396809.27549   2616693.04649  21535660.0534   21535664.3414
  20782286.498   -11287691.52149  -8751500.09949  20782286.4324   20782291.4494
  21752105.514     3982788.02449   3102037.80749  21752105.2914   21752110.6134
  22861233.828   -13239571.34149 -10291815.76449  22861233.8374   22861239.5324
 97  1 10 16 54 59.9990000  0  6 22 29 25 14 15 16
  22029346.245   -13267257.96649 -10320631.98849  22029344.9324   22029352.0324
  20869782.500    -6381432.24449  -4963907.99449  20869782.5404   20869786.6144
  21544193.744     3441652.78849   2651635.99449  21544193.6454   21544197.9264
  20766426.628   -11371035.72949  -8816443.64949  20766426.3324   20766431.5104
  21762774.418     4038853.70049   3145725.29749  21762773.4954   21762779.7354
  22839320.922   -13354724.60249 -10381545.57349  22839320.3284   22839326.4244
 97  1 10 16 55 29.9990000  0  6 22 29 25 14 15 16
  22010050.864   -13368655.57049 -10399643.10149  22010049.7204   22010056.7144
  20860765.542    -6428816.76149  -5000831.00449  20860765.4734   20860769.6394
  21552773.851     3486741.58649   2686770.07649  21552773.7654   21552777.9984
  20750617.144   -11454115.05749  -8881180.79649  20750616.8374   20750621.7754
  21773502.183     4095228.57549   3189653.72049  21773501.7484   21773507.5754
  22817413.298   -13469850.07149 -10471253.73049  22817412.4844   22817418.7894
 97  1 10 16 55 59.9990000  0  6 22 29 25 14 15 16
  21990808.812   -13469773.04549 -10478435.93049  21990807.4214   21990814.6214
  20851771.622    -6476080.32349  -5037659.75949  20851771.5794   20851775.7704
  21561400.826     3532076.34349   2722095.81849  21561400.6234   21561405.0854
  20734859.499   -11536921.88249  -8945705.59949  20734859.3264   20734864.3224
  21784288.661     4151911.64349   3233822.30349  21784288.4014   21784294.4394
  22795514.768   -13584927.55749 -10560924.49349  22795514.2344   22795519.9344
 97  1 10 16 56 29.9990000  0  6 22 29 25 14 15 16
  21971619.814   -13570611.65249 -10557011.47649  21971619.2644   21971625.6154
  20842797.306    -6523240.61049  -5074408.04449  20842797.4724   20842801.3864
  21570073.014     3577648.82349   2757606.79249  21570073.0794   21570077.1174
  20719152.330   -11619463.69749  -9010023.90249  20719152.2994   20719157.2694
  21795132.686     4208897.02149   3278226.44549  21795132.4044   21795138.0704
  22773630.104   -13699932.22149 -10650538.50849  22773629.2654   22773634.9284
 97  1 10 16 56 59.9990000  0  6 22 29 25 14 15 16
  21952484.938   -13671166.02449 -10635365.54749  21952484.1714   21952490.7944
  20833841.672    -6570302.82349  -5111079.91749  20833841.8014   20833845.7664
  21578790.123     3623457.44349   2793301.77249  21578790.0254   21578794.4414
  20703497.575   -11701730.35149  -9074127.79749  20703497.2874   20703502.4644
  21806034.109     4266184.07049   3322865.66349  21806033.8474   21806039.6194
  22751759.450   -13814863.36549 -10740095.23849  22751759.2554   22751764.6754
 97  1 10 16 57 29.9990000  0  6 22 29 25 14 15 16
  21933406.213   -13771425.39349 -10713489.72049  21933405.4394   21933412.0774
  20824905.335    -6617263.76649  -5147672.87249  20824905.3484   20824909.5434
  21587552.156     3669502.03849   2829180.63049  21587552.1494   21587556.3294
  20687898.552   -11783703.90049  -9138003.29549  20687898.2164   20687903.2244
  21816993.396     4323775.36149   3367741.95949  21816993.0604   21816998.5874
  22729906.829   -13929699.90849 -10829578.25249  22729906.0934   22729911.9414
 97  1 10 16 57 59.9990000  0  6 22 29 25 14 15 16
  21914385.769   -13871378.58649 -10791375.31249  21914384.5374   21914391.1254
  20815990.002    -6664114.22149  -5184179.73149  20815990.1804   20815994.1634
  21596359.223     3715783.46149   2865244.03049  21596359.5114   21596363.4084
  20672359.286   -11865363.16749  -9201633.90349  20672359.1044   20672364.1874
  21828011.700     4381677.05249   3412860.11449  21828011.2124   21828016.8764
  22708075.493   -14044424.41449 -10918973.95749  22708075.2374   22708080.8384
 97  1 10 16 58 29.9990000  0  6 22 29 25 14 15 16
  21895419.843   -13971044.89849 -10869037.36449  21895418.7074   21895425.3084
  20807091.820    -6710874.56249  -5220616.37249  20807091.7704   20807095.9134
  21605208.013     3762283.98449   2901478.15449  21605207.8864   21605212.2724
  20656878.536   -11946715.19549  -9265025.10649  20656878.3914   20656883.5304
  21839085.779     4439871.51649   3458206.39849  21839085.7264   21839091.2504
  22686261.508   -14159057.91949 -11008298.75749  22686260.7484   22686267.5374
 97  1 10 16 58 59.9990000  0  6 22 29 25 14 15 16
  21876510.195   -14070415.81449 -10946469.21649  21876509.5384   21876515.5534
  20798214.599    -6757524.77049  -5256967.19749  20798214.6764   20798218.7404
  21614100.509     3809014.28549   2937891.32549  21614100.4804   21614104.7064
  20641459.677   -12027741.95749  -9328162.85349  20641459.1954   20641464.4994
  21850216.740     4498364.60849   3503785.37449  21850216.4504   21850222.4274
  22664464.210   -14273603.57149 -11097555.11149  22664463.4684   22664469.2864
 97  1 10 16 59 29.9990000  0  6 22 29 25 14 15 16
  21857655.410   -14169498.42749 -11023676.41649  21857654.1814   21857660.6804
  20789356.235    -6804075.79649  -5293240.73749  20789356.2584   20789360.3294
  21623033.662     3855958.09349   2974470.87049  21623033.4854   21623038.2084
  20626099.301   -12108461.11849  -9391060.90849  20626098.9994   20626104.1304
  21861402.166     4557144.32349   3549587.69549  21861401.7074   21861407.7914
  22642682.828   -14388065.50749 -11186746.22849  22642681.8984   22642687.8094
 97  1 10 16 59 59.9990000  0  6 22 29 25 14 15 16
  21838857.684   -14268281.03749 -11100649.85849  21838856.9544   21838863.1004
  20780517.501    -6850523.78449  -5329433.99549  20780517.6574   20780521.5584
  21632007.311     3903114.71249   3011216.23749  21632007.1434   21632011.7734
  20610799.382   -12188862.71449  -9453711.51149  20610799.3614   20610804.3584
  21872642.437     4616212.06749   3595614.45349  21872641.6154   21872647.7294
  22620919.029   -14502434.74449 -11275865.12849  22620918.5244   22620924.0964
 97  1 10 17  0 29.9990000  0  6 22 29 25 14 15 16
  21820117.458   -14366761.28149 -11177387.65149  21820116.1184   21820123.0254
  20771700.093    -6896859.76449  -5365539.96949  20771700.0114   20771704.0194
  21641020.992     3950481.71449   3048125.53749  21641021.2134   21641025.3544
  20595557.800   -12268957.99349  -9516123.42149  20595557.6124   20595562.8574
  21883936.951     4675564.61749   3641863.14349  21883936.4764   21883942.0704
  22599174.418   -14616703.07749 -11364905.38849  22599173.4684   22599179.8224
 97  1 10 17  0 59.9990000  0  6 22 29 25 14 15 16
  21801435.213   -14464937.12549 -11253888.27949  21801434.2214   21801440.6874
  20762906.760    -6943068.97449  -5401547.15449  20762906.6494   20762910.7984
  21650075.737     3998064.54749   3085203.01949  21650075.8144   21650080.3824
  20580373.139   -12348754.09149  -9578302.21149  20580373.0044   20580378.2134
  21895284.972     4735198.49149   3688331.04949  21895284.5504   21895290.1034
  22577449.350   -14730868.92049 -11453865.78049  22577449.0974   22577455.0034
 97  1 10 17  1 29.9990000  0  6 22 29 25 14 15 16
  21782813.805   -14562793.06249 -11330139.59149  21782813.2424   21782819.2064
  20754138.608    -6989146.00149  -5437451.34449  20754138.7694   20754142.7024
  21659171.765     4045863.93049   3122449.24949  21659171.7274   21659176.3724
  20565247.465   -12428239.96349  -9640239.25949  20565247.3664   20565252.4874
  21906687.562     4795119.26249   3735022.50149  21906686.9464   21906692.6404
  22555748.214   -14844908.96949 -11542728.15849  22555748.1114   22555753.9074
 97  1 10 17  1 59.9990000  0  6 22 29 25 14 15 16
  21764253.995   -14660325.24249 -11406138.60749  21764253.2114   21764259.7754
  20745394.498    -7035096.63649  -5473257.05349  20745394.4824   20745398.6394
  21668308.033     4093875.06449   3159860.47849  21668308.2624   21668312.4364
  20550182.199   -12507408.78449  -9701929.25749  20550181.9854   20550186.9804
  21918142.991     4855317.49449   3781930.16449  21918142.4964   21918147.9084
  22534070.565   -14958825.72149 -11631494.46349  22534070.0584   22534075.7094
 97  1 10 17  2 29.9990000  0  6 22 29 25 14 15 16
  21745753.183   -14757547.57849 -11481896.22149  21745752.7794   21745758.6554
  20736673.285    -7080927.05549  -5508969.07549  20736673.3404   20736677.4704
  21677484.675     4142098.40249   3197437.06649  21677484.7004   21677489.2154
  20535174.230   -12586276.20049  -9763384.39649  20535174.1354   20535179.2004
  21929648.505     4915779.12449   3829043.08949  21929647.3614   21929653.1794
  22512411.256   -15072646.53149 -11720185.99749  22512410.8924   22512417.0294
 97  1 10 17  2 59.9990000  0  6 22 29 25 14 15 16
  21727315.011   -14854440.74949 -11557397.34849  21727313.5644   21727320.9254
  20727974.968    -7126636.93949  -5544587.17949  20727975.1014   20727979.1734
  21686702.929     4190540.29249   3235183.94749  21686702.8084   21686707.4404
  20520228.238   -12664817.66449  -9824585.54649  20520227.9524   20520233.2204
  21941205.071     4976509.52349   3876365.43249  21941204.2704   21941210.6524
  22490770.003   -15186372.47549 -11808803.62549  22490769.2344   22490775.5474
 97  1 10 17  3 29.9990000  0  6 22 29 25 14 15 16
  21708941.098   -14950995.90449 -11632635.09449  21708940.0344   21708946.5324
  20719296.219    -7172244.38949  -5580125.46849  20719296.2604   20719300.2294
  21695960.809     4239190.73049   3273093.33749  21695960.7894   21695965.4424
  20505346.527   -12743021.56149  -9885523.65849  20505346.4044   20505351.4264
  21952812.066     5037504.32249   3923893.79449  21952812.1744   21952817.6954
  22469146.022   -15300007.38349 -11897350.31049  22469145.5944   22469151.7864
 97  1 10 17  3 59.9990000  0  6 22 29 25 14 15 16
  21690631.566   -15047213.16149 -11707609.54049  21690630.7794   21690637.0334
  20710637.285    -7217747.46349  -5615582.42149  20710637.5044   20710641.5604
  21705259.136     4288053.75349   3311168.37849  21705259.1224   21705263.5974
  20490529.058   -12820888.11749  -9946198.90549  20490528.9224   20490533.8914
  21964468.858     5098760.76449   3971626.04149  21964468.1054   21964474.3694
  22447538.166   -15413557.48849 -11985830.91849  22447537.6034   22447544.0824
 97  1 10 17  4 29.9990000  0  6 22 29 25 14 15 16
  21672385.211   -15143098.33849 -11782325.18949  21672384.5404   21672390.5364
  20701998.052    -7263146.95749  -5650958.66249  20701998.0254   20702002.3174
  21714597.156     4337125.11749   3349405.76349  21714596.8774   21714601.3874
  20475774.482   -12898424.02649 -10006616.50549  20475774.2764   20475779.4224
  21976174.404     5160273.63349   4019558.09049  21976174.1014   21976179.7884
  22425947.248   -15527018.54749 -12074242.13649  22425946.3704   22425952.3274
 97  1 10 17  4 59.9990000  0  6 22 29 25 14 15 16
  21654202.825   -15238647.59749 -11856779.14549  21654202.0984   21654208.4954
  20693378.509    -7308443.07749  -5686254.35449  20693378.4824   20693382.7704
  21723973.030     4386395.60449   3387798.30649  21723972.9764   21723977.3804
  20461085.079   -12975617.63049 -10066767.37649  20461085.0764   20461090.3444
  21987929.167     5222045.14649   4067691.69749  21987928.1544   21987935.0014
  22404376.689   -15640372.54149 -12162569.92449  22404376.3634   22404382.1374
 97  1 10 17  5 29.9990000  0  6 22 29 25 14 15 16
  21636084.657   -15333859.00949 -11930969.79549  21636083.6614   21636090.1264
  20684780.788    -7353624.54949  -5721460.70849  20684780.8844   20684785.0904
  21733386.124     4435861.70949   3426343.28649  21733386.1604   21733390.7634
  20446460.830   -13052468.79649 -10126651.40549  20446460.7204   20446465.8304
  21999732.857     5284073.69049   4116025.57149  21999732.4524   21999738.1014
  22382828.541   -15753608.76449 -12250805.94149  22382827.8814   22382833.8054
 97  1 10 17  5 59.9980000  0  6 22 29 25 14 15 16
  21618030.781   -15428732.52149 -12004897.18449  21618029.8294   21618036.4674
  20676206.178    -7398684.64549  -5756572.48649  20676206.1604   20676210.4294
  21742833.952     4485510.22849   3465030.40149  21742833.5504   21742838.3714
  20431898.913   -13128992.14349 -10186279.99649  20431898.8414   20431903.7884
  22011582.121     5346341.63749   4164545.98449  22011581.4794   22011587.4914
  22361302.923   -15866726.68349 -12338949.77549  22361302.0934   22361307.9174
 97  1 10 17  6 29.9980000  0  6 22 29 25 14 15 16
  21600044.284   -15523252.09049 -12078548.73649  21600043.2114   21600049.8734
  20667657.498    -7443608.29749  -5791577.94049  20667657.5184   20667661.6424
  21752320.153     4535360.26149   3503874.53549  21752320.2424   21752324.9254
  20417403.419   -13205166.53349 -10245636.67549  20417403.2464   20417408.3814
  22023480.922     5408869.95049   4213269.28749  22023480.5424   22023486.0934
  22339801.881   -15979715.45349 -12426992.97349  22339801.6374   22339806.6564
 97  1 10 17  6 59.9980000  0  6 22 29 25 14 15 16
  21582126.592   -15617409.85149 -12151918.36249  21582125.5454   21582132.1884
  20659134.645    -7488396.46349  -5826477.82349  20659134.5694   20659138.7914
  21761843.637     4585406.22749   3542871.34449  21761843.4194   21761848.3574
  20402975.723   -13280984.59749 -10304715.69449  20402975.4044   20402980.6554
  22035427.057     5471647.20049   4262186.57749  22035426.2224   22035432.5004
  22318326.504   -16092569.48149 -12514931.17849  22318325.6754   22318331.6524
 97  1 10 17  7 29.9980000  0  6 22 29 25 14 15 16
  21564280.693   -15711190.67049 -12224994.30249  21564280.0404   21564286.2334
  20650640.085    -7533035.49549  -5861261.50149  20650640.1594   20650644.2734
  21771406.121     4635657.45349   3582028.08749  21771405.8694   21771410.7334
  20388617.536   -13356437.28449 -10363510.00449  20388617.2644   20388622.5784
  22047421.262     5534676.93449   4311300.60049  22047420.6784   22047427.0794
  22296880.708   -16205267.88249 -12602748.10349  22296880.2314   22296886.1824
 97  1 10 17  7 59.9980000  0  6 22 29 25 14 15 16
  21546500.350   -15804626.67449 -12297801.62149  21546499.3194   21546505.8244
  20642167.987    -7577556.89349  -5895953.51649  20642168.2344   20642172.1874
  21781006.179     4686105.84849   3621338.47849  21781006.0634   21781010.6384
  20374327.284   -13431533.27949 -10422026.37549  20374327.1774   20374332.3534
  22059461.290     5597947.27849   4360602.11849  22059460.4034   22059466.7454
  22275464.152   -16317812.86649 -12690445.49549  22275463.7174   22275469.2314
 97  1 10 17  8 29.9980000  0  6 22 29 25 14 15 16
  21528783.779   -15897727.96449 -12370348.07649  21528782.8444   21528789.4334
  20633714.904    -7621978.20949  -5930567.54449  20633714.8064   20633719.0124
  21790643.705     4736751.34949   3660802.44749  21790643.6114   21790648.3004
  20360106.049   -13506266.58049 -10480260.12949  20360105.7424   20360110.8544
  22071546.819     5661457.02049   4410090.19449  22071546.3564   22071552.5754
  22254078.400   -16430196.14749 -12778016.88949  22254077.9624   22254083.6224
 97  1 10 17  8 59.9980000  0  6 22 29 25 14 15 16
  21511132.489   -15990486.11649 -12442627.16049  21511131.6034   21511138.1494
  20625281.422    -7666296.54449  -5965101.32249  20625281.5554   20625285.6064
  21800318.588     4787593.05849   3700419.30849  21800318.2744   21800323.1704
  20345955.369   -13580628.94949 -10538204.84149  20345955.0884   20345960.2794
  22083678.492     5725208.87149   4459766.92849  22083678.2684   22083684.5384
  22232724.493   -16542411.47349 -12865457.40149  22232723.5664   22232729.5114
 97  1 10 17  9 29.9980000  0  6 22 29 25 14 15 16
  21493548.186   -16082892.57649 -12514632.19449  21493547.7864   21493553.2394
  20616866.594    -7710516.92349  -5999558.77449  20616866.5904   20616870.7224
  21810029.997     4838626.79449   3740185.79949  21810030.2304   21810034.5264
  20331875.777   -13654617.84849 -10595858.53849  20331875.5454   20331880.8444
  22095857.695     5789210.71749   4509638.44449  22095857.3364   22095863.6584
  22211402.468   -16654459.51849 -12952767.57249  22211401.3974   22211408.0824
 97  1 10 17  9 59.9980000  0  6 22 29 25 14 15 16
  21476032.862   -16174936.66649 -12586354.85449  21476032.0524   21476038.1944
  20608467.271    -7754655.86949  -6033952.77249  20608467.4254   20608471.5654
  21819775.440     4889839.25949   3780091.55349  21819775.4044   21819780.2154
  20317865.588   -13728241.96049 -10653227.98549  20317865.3454   20317870.3974
  22108082.349     5853451.63449   4559696.24349  22108081.9734   22108088.1894
  22190108.576   -16766359.63049 -13039962.47949  22190107.8584   22190114.2524
 97  1 10 17 10 29.9980000  0  6 22 29 25 14 15 16
  21458593.161   -16266583.08349 -12657767.65449  21458591.9564   21458598.7404
  20600088.561    -7798686.35549  -6068262.24849  20600088.7054   20600092.8294
  21829555.266     4941232.46149   3820138.15049  21829555.5034   21829559.8704
  20303924.408   -13801503.34249 -10710314.78449  20303924.1864   20303929.3754
  22120351.752     5917927.87049   4609937.40149  22120351.6094   22120357.2844
  22168841.658   -16878117.85649 -13127046.81449  22168841.0614   22168847.1374
 97  1 10 17 10 59.9980000  0  6 22 29 25 14 15 16
  21441232.359   -16357814.27449 -12728856.90849  21441231.6344   21441237.5634
  20591737.361    -7842572.35549  -6102459.14549  20591737.2974   20591741.3684
  21839370.349     4992810.57149   3860328.82849  21839370.2894   21839375.0854
  20290052.639   -13874400.00549 -10767117.39349  20290052.3094   20290057.4064
  22132666.612     5982642.89749   4660364.62249  22132665.9144   22132672.2244
  22147604.071   -16989722.01149 -13214011.09249  22147603.8534   22147609.3684
 97  1 10 17 11 29.9980000  0  6 22 29 25 14 15 16
  21423950.521   -16448631.11149 -12799623.32649  21423950.0384   21423956.1824
  20583413.252    -7886315.95849  -6136545.08749  20583413.3494   20583417.4804
  21849221.596     5044578.88749   3900667.72249  21849221.6194   21849226.4984
  20276245.453   -13946957.23049 -10823655.49749  20276245.2484   20276250.4584
  22145024.276     6047582.80149   4710967.07149  22145023.8094   22145029.9104
  22126395.869   -17101171.89849 -13300855.16849  22126395.0654   22126401.4874
 97  1 10 17 11 59.9980000  0  6 22 29 25 14 15 16
  21406751.110   -16539014.98449 -12870052.35549  21406750.3154   21406756.8324
  20575122.213    -7929885.81249  -6170495.64649  20575122.1694   20575126.3134
  21859114.464     5096566.04149   3941177.13549  21859114.4104   21859119.0354
  20262507.711   -14019149.78549 -10879909.44649  20262507.5584   20262512.7944
  22157426.930     6112758.81549   4761753.49249  22157426.3434   22157432.7024
  22105222.195   -17212440.31949 -13387557.83949  22105221.4744   22105227.7314
 97  1 10 17 12 29.9980000  0  6 22 29 25 14 15 16
  21389632.642   -16628973.36549 -12940149.71749  21389631.7164   21389638.0054
  20566867.392    -7973265.24149  -6204297.81049  20566867.4744   20566871.3974
  21869049.699     5148775.89749   3981860.08749  21869049.5324   21869054.2064
  20248843.322   -14090956.67749 -10935862.87949  20248843.2284   20248848.3794
  22169874.435     6178170.69649   4812723.70749  22169873.4264   22169880.1214
  22084084.670   -17323518.93849 -13474112.61349  22084083.7374   22084089.7274
 97  1 10 17 12 59.9980000  0  6 22 29 25 14 15 16
  21372590.624   -16718529.59349 -13009933.75949  21372590.0144   21372595.9874
  20558641.865    -8016490.67949  -6237979.98149  20558641.7384   20558645.9354
  21879022.525     5201183.51649   4022697.14349  21879022.3084   21879027.2584
  20235252.538   -14162376.94149 -10991515.04349  20235252.4064   20235257.4674
  22182364.121     6243803.82049   4863866.32149  22182363.1404   22182370.1424
  22062980.273   -17434423.30849 -13560531.60149  22062979.5474   22062985.5024
 97  1 10 17 13 29.9980000  0  6 22 29 25 14 15 16
  21355626.786   -16807674.95449 -13079397.66649  21355625.5984   21355631.9434
  20550439.121    -8059596.57949  -6271569.00949  20550439.1774   20550443.1864
  21889029.687     5253771.38549   4063674.65549  21889029.9504   21889034.5534
  20221738.514   -14233393.93549 -11046852.96949  20221738.4524   20221743.5124
  22194894.881     6309653.09549   4915177.37949  22194894.1054   22194900.3554
  22041906.321   -17545167.75149 -13646825.97149  22041905.8164   22041911.5774
 97  1 10 17 13 59.9980000  0  6 22 29 25 14 15 16
  21338740.830   -16896411.14149 -13148542.71449  21338739.9384   21338745.9494
  20542259.717    -8102579.50349  -6305062.20849  20542259.8794   20542263.9954
  21899066.674     5306515.82149   4104774.16249  21899066.6724   21899071.5064
  20208306.399   -14303980.25049 -11101855.30749  20208306.2214   20208311.1874
  22207467.286     6375721.13749   4966658.90649  22207466.5914   22207472.6214
  22020862.096   -17655756.20749 -13732998.79549  22020861.3454   22020867.1134
 97  1 10 17 14 29.9980000  0  7 22 29 25 18 14 15 16
  21321931.739   -16984743.15249 -13217372.87449  21321931.0544   21321937.2164
  20534100.401    -8145457.12849  -6338473.35949  20534100.4884   20534104.7294
  21909129.425     5359395.90149   4145979.37749  21909129.0864   21909134.4364
  24215969.807    -7095701.99649  -5508558.72449  24215969.7234   24215975.2354
  20194952.801   -14374153.82549 -11156536.02449  20194952.6254   20194957.6134
  22220079.673     6441999.26749   5018304.14149  22220079.4894   22220085.5974
  21999846.189   -17766195.49849 -13819055.38649  21999845.8344   21999851.4394
 97  1 10 17 14 59.9980000  0  7 22 29 25 18 14 15 16
  21305200.878   -17072664.29149 -13285882.86349  21305199.8774   21305206.1854
  20525957.577    -8188248.09849  -6371816.98849  20525957.7054   20525961.8784
  21919217.169     5412407.30849   4187286.91149  21919217.3724   21919221.6614
  24195831.160    -7201531.51449  -5591023.33549  24195830.2954   24195835.6624
  20181671.727   -14443946.18749 -11210919.69449  20181671.4004   20181676.4814
  22232731.015     6508482.65249   5070109.29249  22232730.4314   22232737.1054
  21978859.693   -17876480.54649 -13904991.78649  21978859.3724   21978864.9644
 97  1 10 17 15 29.9980000  0  7 22 29 25 18 14 15 16
  21288547.369   -17160179.15549 -13354076.22549  21288546.5264   21288552.8684
  20517836.295    -8230925.74449  -6405072.31449  20517836.3874   20517840.6444
  21929332.452     5465563.31949   4228707.12649  21929332.1594   21929336.9274
  24175688.806    -7307380.76449  -5673503.30249  24175688.7094   24175693.7404
  20168461.715   -14513365.35649 -11265012.56649  20168461.4954   20168466.3394
  22245420.548     6575166.28149   5122070.49849  22245419.6864   22245426.2574
  21957905.161   -17986597.42049 -13990797.14849  21957904.7494   21957910.4104
 97  1 10 17 15 59.9980000  0  7 22 29 25 18 14 15 16
  21271971.883   -17247283.88349 -13421949.99949  21271970.7914   21271977.2034
  20509743.608    -8273452.95049  -6438210.41249  20509743.6404   20509747.7414
  21939482.023     5518899.38049   4270267.64849  21939482.2034   21939486.8914
  24155543.228    -7413245.88549  -5755995.65849  24155543.4954   24155547.7544
  20155322.599   -14582411.86149 -11318815.04349  20155322.3414   20155327.4224
  22258150.102     6642060.36049   5174195.68549  22258149.2344   22258156.4364
  21936986.867   -18096523.45449 -14076453.79549  21936986.4304   21936992.1794
 97  1 10 17 16 29.9980000  0  7 22 29 25 18 14 15 16
  21255476.479   -17333967.43849 -13489495.58749  21255475.0714   21255481.4194
  20501679.324    -8315831.02149  -6471232.30349  20501679.5234   20501683.6404
  21949668.705     5572430.25649   4311979.97249  21949668.6714   21949673.5644
  24135396.230    -7519119.29549  -5838494.43049  24135395.8834   24135400.7274
  20142254.490   -14651085.35449 -11372326.86049  20142254.2384   20142259.3184
  22270918.252     6709157.19249   5226478.86849  22270918.1444   22270924.0394
  21916108.896   -18206237.74049 -14161945.44449  21916108.1644   21916114.3994
 97  1 10 17 16 59.9980000  0  7 22 29 25 18 14 15 16
  21239060.895   -17420231.46449 -13556714.27549  21239060.2954   21239066.3314
  20493645.272    -8358050.32049  -6504130.47249  20493645.3254   20493649.2434
  21959892.167     5626154.47149   4353842.95549  21959891.9234   21959896.8064
  24115246.954    -7625004.51949  -5921002.42349  24115246.2924   24115251.7934
  20129260.806   -14719367.66649 -11425533.86449  20129260.5434   20129265.7764
  22283723.709     6776449.45849   5278914.33949  22283723.4494   22283729.6314
  21895269.463   -18315749.88349 -14247279.58049  21895268.8414   21895275.2734
 97  1 10 17 17 29.9980000  0  7 22 29 25 18 14 15 16
  21222726.990   -17506066.52049 -13623598.72249  21222726.2824   21222732.6414
  20485643.250    -8400101.28449  -6536897.46949  20485643.1144   20485647.3804
  21970153.349     5680077.30949   4395860.70049  21970153.5194   21970158.1544
  24095098.781    -7730883.76049  -6003505.74149  24095099.4004   24095105.0974
  20116347.364   -14787228.22849 -11478412.23949  20116347.1034   20116352.3474
  22296566.189     6843936.63549   5331501.69649  22296565.5394   22296572.4364
  21874469.408   -18425054.86949 -14332452.29449  21874469.0304   21874474.8024
 97  1 10 17 17 59.9980000  0  7 22 29 25 18 14 15 16
  21206480.366   -17591443.10649 -13690125.87949  21206479.1204   21206485.6744
  20477670.327    -8441999.35649  -6569545.33549  20477670.2844   20477674.3214
  21980451.241     5734192.82749   4438028.58649  21980451.3004   21980456.3314
  24074953.365    -7836748.93549  -6085998.08849  24074953.0174   24074958.7234
  20103517.757   -14854648.35449 -11530947.41549  20103517.5144   20103522.6794
  22309446.515     6911622.98049   5384244.22849  22309445.9724   22309452.1584
  21853710.568   -18534143.31349 -14417456.27349  21853710.2914   21853715.7254
 97  1 10 17 18 29.9980000  0  7 22 29 25 18 14 15 16
  21190322.346   -17676353.84749 -13756290.06749  21190321.0564   21190328.0014
  20469723.778    -8483758.77349  -6602085.15849  20469723.8354   20469728.0934
  21990781.885     5788480.11749   4480330.31949  21990782.0284   21990786.9764
  24054811.076    -7942597.63849  -6168477.64549  24054808.7924   24054817.3604
  20090772.654   -14921624.40249 -11583136.55749  20090772.4684   20090777.5034
  22322363.393     6979501.43149   5437136.43949  22322362.6804   22322369.5024
  21832992.259   -18643018.52849 -14502294.10049  21832991.6344   21832997.7504
 97  1 10 17 18 59.9980000  0  7 22 29 25 18 14 15 16
  21174250.702   -17760810.88949 -13822100.71349  21174249.7524   21174256.1004
  20461801.919    -8525388.57549  -6634523.97949  20461801.9994   20461806.3214
  22001142.269     5842923.94149   4522754.02149  22001142.4364   22001147.3984
  24034668.245    -8048448.52549  -6250958.87449  24034667.5964   24034673.9864
  20078108.672   -14988174.08149 -11634993.46249  20078108.3954   20078113.5954
  22335314.786     7047561.31349   5490170.03049  22335314.2544   22335320.9074
  21812310.712   -18751700.84549 -14586981.61249  21812310.1824   21812316.6054
 97  1 10 17 19 29.9980000  0  7 22 29 25 18 14 15 16
  21158267.413   -17844803.53449 -13887549.50049  21158266.8274   21158272.7874
  20453906.951    -8566877.06449  -6666852.67949  20453907.0554   20453911.0364
  22011533.370     5897529.27049   4565303.57549  22011533.6024   22011538.5524
  24014525.636    -8154298.36649  -6333439.29249  24014525.8304   24014532.4574
  20065526.438   -15054293.99949 -11686515.48749  20065526.2254   20065531.4354
  22348302.417     7115811.52449   5543351.94349  22348301.4134   22348309.0954
  21791672.325   -18860156.49949 -14671492.51149  21791672.0194   21791677.8164
 97  1 10 17 19 59.9980000  0  7 22 29 25 18 14 15 16
  21142372.384   -17928332.29149 -13952636.82149  21142371.8014   21142377.5424
  20446041.596    -8608209.79349  -6699060.01649  20446041.5504   20446045.7354
  22021954.229     5952291.08449   4607975.05849  22021953.9094   22021959.0914
  23994381.197    -8260158.79749  -6415927.96549  23994381.5154   23994386.9214
  20053026.472   -15119981.82949 -11737700.82149  20053026.2594   20053031.4104
  22361327.024     7184256.19949   5596685.35949  22361326.1964   22361334.2814
  21771078.433   -18968378.24549 -14755821.14749  21771077.7174   21771083.8604
 97  1 10 17 20 29.9980000  0  7 22 29 25 18 14 15 16
  21126560.600   -18011423.94049 -14017383.56949  21126559.6074   21126566.2264
  20438205.753    -8649387.50249  -6731146.55949  20438205.7554   20438209.9824
  22032405.017     6007210.08349   4650769.02749  22032405.0634   22032410.0414
  23974234.295    -8366031.87949  -6498426.49749  23974234.9824   23974240.4844
  20040607.129   -15185245.92549 -11788555.97749  20040606.9964   20040612.0374
  22374386.965     7252886.25149   5650163.24549  22374386.1154   22374392.7654
  21750526.699   -19076378.14849 -14839976.91149  21750525.9244   21750531.8944
 97  1 10 17 20 59.9980000  0  7 22 29 25 18 14 15 16
  21110828.437   -18094097.06449 -14081804.18549  21110827.8184   21110833.5904
  20430395.212    -8690432.28249  -6763129.51849  20430395.1724   20430399.3844
  22042884.591     6062280.16349   4693680.71949  22042884.7284   22042889.7214
  23954081.655    -8471934.38549  -6580947.96049  23954080.5054   23954087.5864
  20028268.709   -15250085.00749 -11839079.95149  20028268.4684   20028273.5114
  22387479.320     7321686.48849   5703773.73649  22387479.2814   22387485.5414
  21730014.875   -19184168.48049 -14923969.37549  21730014.5744   21730019.9654
 97  1 10 17 21 29.9980000  0  7 22 29 25 18 14 15 16
  21095176.717   -18176347.34149 -14145895.31949  21095176.3134   21095182.1854
  20422609.625    -8731345.67449  -6795010.09949  20422609.5624   20422613.8924
  22053394.040     6117507.53449   4736714.97249  22053393.9534   22053399.0934
  23933924.607    -8577860.77349  -6663488.02449  23933924.0194   23933931.1504
  20016013.561   -15314486.37049 -11889262.84249  20016013.3724   20016018.4484
  22400604.405     7390658.71249   5757518.26349  22400603.7754   22400610.7944
  21709542.765   -19291750.54549 -15007799.55349  21709541.9574   21709547.8814
 97  1 10 17 21 59.9980000  0  7 22 29 25 18 14 15 16
  21079607.908   -18258162.14449 -14209647.10749  21079607.2524   21079613.2974
  20414846.561    -8772140.67249  -6826798.42949  20414846.6164   20414850.7494
  22063935.631     6172904.03249   4779881.01349  22063935.5854   22063940.9034
  23913766.128    -8683794.44149  -6746033.74949  23913766.3344   23913772.8964
  20003842.513   -15378445.68449 -11939101.28049  20003842.2484   20003847.4264
  22413762.310     7459803.71249   5811397.39949  22413761.8164   22413768.5414
  21689107.923   -19399136.49049 -15091476.91849  21689107.3534   21689113.1224
 97  1 10 17 22 29.9980000  0  7 22 29 25 18 14 15 16
  21064124.034   -18339530.38049 -14273050.93149  21064123.3014   21064129.4304
  20407105.588    -8812819.93049  -6858496.56749  20407105.5554   20407109.7684
  22074510.991     6228477.66249   4823185.07649  22074510.7944   22074516.5934
  23893608.245    -8789724.77749  -6828576.88449  23893607.5104   23893613.4474
  19991755.199   -15441964.82849 -11988596.73049  19991755.0664   19991760.1904
  22426953.187     7529121.83049   5865411.43349  22426952.8944   22426959.0194
  21668714.050   -19506307.05249 -15174986.45049  21668713.4024   21668719.1244
 97  1 10 17 22 59.9980000  0  7 22 29 25 18 14 15 16
  21048729.513   -18420429.27149 -14336088.98949  21048728.7784   21048735.2074
  20399390.495    -8853363.26449  -6890088.78749  20399390.6364   20399394.7514
  22085116.619     6284210.84649   4866613.46149  22085116.5224   22085121.8914
  23873449.425    -8895660.37649  -6911124.11649  23873449.5854   23873456.0454
  19979749.747   -15505054.12449 -12037757.23249  19979749.4874   19979754.8334
  22440177.222     7598613.96449   5919561.06549  22440177.0394   22440183.8214
  21648364.757   -19613243.38049 -15258313.45849  21648363.9694   21648370.1014
 97  1 10 17 23 29.9980000  0  7 22 29 25 18 14 15 16
  21033426.347   -18500848.03649 -14398752.97849  21033425.6924   21033431.8174
  20391703.396    -8893759.30849  -6921566.23849  20391703.4174   20391707.7334
  22095747.063     6340073.73149   4910142.91249  22095747.6124   22095752.3244
  23853288.519    -9001606.98149  -6993679.94049  23853288.7824   23853294.5154
  19967821.153   -15567739.42749 -12086602.93249  19967821.0154   19967826.1214
  22453432.331     7668269.38049   5973837.92849  22453432.1824   22453438.2764
  21628061.817   -19719935.90349 -15341450.48949  21628061.1554   21628066.8684
 97  1 10 17 23 59.9980000  0  7 22 29 25 18 14 15 16
  21018216.537   -18580776.16649 -14461034.63549  21018215.6924   21018222.2374
  20384046.467    -8933996.84849  -6952920.17949  20384046.5984   20384050.6974
  22106401.123     6396060.39949   4953768.82549  22106401.3074   22106406.0384
  23833126.165    -9107561.51049  -7076241.91649  23833125.2514   23833131.3014
  19955969.962   -15630018.03249 -12135131.72949  19955969.5904   19955974.6634
  22466717.684     7738084.08949   6028238.90149  22466717.0054   22466723.9114
  21607808.087   -19826370.14649 -15424386.27149  21607807.7464   21607813.0224
 97  1 10 17 24 29.9980000  0  7 22 29 25 18 14 15 16
  21003102.050   -18660203.28349 -14522925.91749  21003101.4754   21003107.7134
  20376424.444    -8974050.88649  -6984131.13849  20376424.5854   20376428.7454
  22117078.345     6452169.12349   4997489.84149  22117078.2954   22117083.5444
  23812963.456    -9213517.25549  -7158804.85549  23812963.1594   23812969.4424
  19944199.799   -15691870.50249 -12183328.47849  19944199.4384   19944204.6374
  22480033.944     7808061.31449   6082766.51549  22480033.5174   22480039.9354
  21587605.060   -19932538.29949 -15507114.70649  21587604.7624   21587610.2364
 97  1 10 17 24 59.9980000  0  7 22 29 25 18 14 15 16
  20988085.300   -18739116.84949 -14584417.00249  20988084.4514   20988090.8484
  20368836.934    -9013923.72349  -7015200.88749  20368836.9284   20368841.2504
  22127779.154     6508402.10549   5041307.68549  22127779.6874   22127784.3304
  23792801.557    -9319468.84249  -7241364.49849  23792800.7674   23792807.0714
  19932514.121   -15753279.05749 -12231179.31549  19932514.0384   19932519.1154
  22493380.606     7878198.38749   6137418.69149  22493379.4974   22493386.0394
  21567448.468   -20038462.17249 -15589652.78849  21567447.8574   21567453.5184
 97  1 10 17 25 29.9980000  0  7 22 29 25 18 14 15 16
  20973166.342   -18817516.51749 -14645507.61449  20973165.7594   20973171.7914
  20361281.278    -9053629.28349  -7046140.29249  20361281.3484   20361285.4874
  22138508.704     6564786.04649   5085243.16649  22138508.7794   22138513.4974
  23772641.791    -9425408.68649  -7323915.05349  23772641.0434   23772648.1894
  19920917.469   -15814219.95149 -12278665.73849  19920917.1964   19920922.6614
  22506757.477     7948494.04849   6192194.45249  22506756.3874   22506763.3014
  21547336.459   -20144151.35949 -15672008.00149  21547335.6204   21547341.8664
 97  1 10 17 25 59.9980000  0  7 22 29 25 18 14 15 16
  20958340.170   -18895428.73549 -14706218.41349  20958339.4934   20958345.8894
  20353754.617    -9093182.34249  -7076960.87449  20353754.6394   20353758.6554
  22149269.971     6621336.75449   5129308.59349  22149270.2494   22149275.0824
  23752483.776    -9531339.71549  -7406458.74149  23752483.2384   23752489.8954
  19909409.096   -15874696.73549 -12325790.51949  19909408.8834   19909414.0954
  22520162.143     8018935.61649   6247083.90549  22520162.0564   22520168.3534
  21527265.237   -20249625.99749 -15754196.03149  21527264.5754   21527270.3614
 97  1 10 17 26 29.9980000  0  7 22 29 25 18 14 15 16
  20943607.893   -18972847.40649 -14766544.65649  20943606.9734   20943613.4004
  20346257.848    -9132578.15749  -7107658.92749  20346257.8494   20346262.0394
  22160062.753     6678052.70149   5173502.78149  22160063.2874   22160067.8914
  23732325.877    -9637269.97349  -7489001.80649  23732325.4934   23732331.4284
  19897988.456   -15934712.84349 -12372556.33849  19897988.4094   19897993.5844
  22533594.181     8089521.14549   6302085.50749  22533594.0474   22533600.3554
  21507236.544   -20354877.43949 -15836210.14749  21507236.0404   21507241.9364
 97  1 10 17 26 59.9980000  0  7 22 29 25 18 14 15 16
  20928969.406   -19049772.99749 -14826486.62249  20928968.7664   20928974.7934
  20338789.285    -9171825.92949  -7138241.61849  20338789.2994   20338793.4694
  22170887.809     6734938.29649   5217829.16249  22170888.0744   22170892.9514
  23712167.555    -9743202.62849  -7571546.70249  23712167.2384   23712174.0184
  19886654.256   -15994274.69349 -12418968.17749  19886654.0964   19886659.3834
  22547053.292     8160248.84549   6357197.89149  22547052.3004   22547059.4274
  21487253.220   -20459890.26549 -15918038.32549  21487252.4454   21487258.2924
 97  1 10 17 27 29.9980000  0  7 22 29 25 18 14 15 16
  20914422.486   -19126217.61449 -14886053.82549  20914421.4574   20914428.0114
  20331352.053    -9210908.98349  -7168695.95149  20331352.0484   20331356.3934
  22181745.243     6791994.52449   5262288.50449  22181745.3874   22181750.5534
  23692011.487    -9849123.07649  -7654082.13449  23692011.3524   23692017.7784
  19875406.146   -16053383.85049 -12465027.26949  19875405.9134   19875411.2934
  22560539.908     8231121.15849   6412422.97249  22560539.8434   22560545.9204
  21467320.184   -20564639.26149 -15999660.92249  21467319.8444   21467325.3754
 97  1 10 17 27 59.9980000  0  7 22 29 25 18 14 15 16
  20899966.143   -19202186.12149 -14945250.03249  20899965.3154   20899971.7294
  20323946.563    -9249825.22449  -7199020.29949  20323946.4854   20323950.6314
  22192630.756     6849197.96249   5306862.56449  22192630.7614   22192635.6774
  23671857.691    -9955032.46649  -7736608.94249  23671856.5454   23671862.9154
  19864243.033   -16112046.37549 -12510738.33949  19864242.6314   19864248.0844
  22574051.775     8302126.18349   6467751.46949  22574051.8794   22574057.9374
  21447437.616   -20669123.05649 -16081076.87149  21447437.0384   21447442.9864
 97  1 10 17 28 29.9980000  0  7 22 29 25 18 14 15 16
  20885603.598   -19277661.66049 -15004062.11249  20885602.7684   20885608.9364
  20316571.609    -9288580.74749  -7229219.41749  20316571.6504   20316575.6924
  22203541.386     6906533.40549   5351539.47949  22203541.6184   22203546.0004
  23651705.489   -10060932.97349  -7819128.81449  23651705.4254   23651711.6474
  19853169.550   -16170237.97749 -12556082.45749  19853169.4374   19853174.7564
  22587588.937     8373264.54149   6523183.85849  22587588.4684   22587595.5324
  21427606.703   -20773335.29949 -16162281.21349  21427606.0374   21427611.5204
 97  1 10 17 28 59.9980000  0  7 22 29 25 18 14 15 16
  20871331.105   -19352663.90349 -15062505.41749  20871330.2194   20871336.3334
  20309223.778    -9327193.87349  -7259307.57549  20309223.7674   20309227.7844
  22214476.156     6963995.69949   5396315.24749  22214476.3084   22214481.6384
  23631555.970   -10166819.02549  -7901637.43749  23631555.5654   23631561.0794
  19842187.035   -16227951.64049 -12601054.15849  19842186.9604   19842192.1534
  22601149.792     8444527.17149   6578713.06149  22601149.2804   22601156.3334
  21407825.207   -20877287.78649 -16243283.14649  21407824.8914   21407830.3724
 97  1 10 17 29 29.9980000  0  7 22 29 25 18 14 15 16
  20857149.590   -19427188.21949 -15120576.31449  20857148.5674   20857154.8684
  20301905.662    -9365650.83749  -7289274.04649  20301905.6234   20301909.8154
  22225433.307     7021575.57449   5441182.63449  22225433.4834   22225438.2954
  23611407.592   -10272699.81949  -7984141.96849  23611407.7434   23611413.5724
  19831297.041   -16285179.19749 -12645647.07749  19831296.6994   19831302.1014
  22614733.531     8515909.47049   6634335.51949  22614733.2664   22614740.1884
  21388093.806   -20980977.05449 -16324079.97749  21388093.2114   21388098.9524
 97  1 10 17 29 59.9980000  0  7 22 29 25 18 14 15 16
  20843061.950   -19501219.05649 -15178262.67349  20843061.1394   20843067.4594
  20294615.214    -9403962.48949  -7319127.29149  20294615.1804   20294619.3854
  22236410.209     7079259.20649   5486130.87049  22236410.3534   22236415.6024
  23591257.669   -10378588.68449  -8066652.78549  23591257.8824   23591263.9564
  19820500.773   -16341913.95049 -12689855.99449  19820500.3634   19820505.8104
  22628339.080     8587406.33149   6690047.25749  22628339.2874   22628345.3884
  21368411.397   -21084409.15349 -16404676.42349  21368410.6974   21368416.3834
 97  1 10 17 30 29.9980000  0  7 22 29 25 18 14 15 16
  20829068.182   -19574756.82749 -15235564.82749  20829067.6074   20829073.8504
  20287351.531    -9442133.39149  -7348870.85449  20287351.5394   20287355.9504
  22247406.232     7137043.37449   5531157.44749  22247405.7224   22247411.3234
  23571105.385   -10484489.50849  -8149172.91649  23571105.2034   23571111.3724
  19809796.013   -16398167.63449 -12733690.05449  19809795.7944   19809801.0404
  22641965.930     8659015.63849   6745846.60349  22641965.2744   22641972.1284
  21348777.344   -21187586.51249 -16485074.35549  21348776.6294   21348782.2754
 97  1 10 17 30 59.9980000  0  7 22 29 25 18 14 15 16
  20815167.716   -19647804.48649 -15292485.06949  20815167.1604   20815172.9474
  20280115.924    -9480156.90049  -7378499.57149  20280116.0484   20280120.1364
  22258421.727     7194929.93849   5576263.81049  22258421.8354   22258427.3364
  23550951.893   -10590396.98249  -8231698.21849  23550952.1954   23550957.5194
  19799178.841   -16453961.40549 -12777165.73849  19799178.7044   19799183.9354
  22655613.198     8730732.10249   6801729.44149  22655612.3964   22655619.3274
  21329192.096   -21290507.26649 -16565272.33849  21329191.4284   21329197.1814
 97  1 10 17 31 29.9980000  0  7 22 29 25 18 14 15 16
  20801364.163   -19720342.65749 -15349008.31249  20801363.5464   20801369.5324
  20272910.914    -9518019.53149  -7408002.92649  20272910.9864   20272915.0754
  22269457.377     7252922.28749   5621452.60649  22269457.1064   22269461.9834
  23530798.988   -10696301.95449  -8314221.57649  23530798.9774   23530804.3644
  19788649.621   -16509293.10249 -12820281.36449  19788649.5434   19788654.8184
  22669281.749     8802560.82049   6857699.74149  22669281.9434   22669288.1184
  21309657.085   -21393164.27949 -16645264.80649  21309656.5024   21309662.2164
 97  1 10 17 31 59.9980000  0  7 22 29 25 18 14 15 16
  20787657.432   -19792371.77949 -15405134.85449  20787656.7354   20787662.8934
  20265732.076    -9555744.66349  -7437399.14549  20265732.0064   20265736.2334
  22280513.165     7311020.66049   5666724.01849  22280513.1824   22280518.0154
  23510648.076   -10802196.11049  -8396736.48449  23510647.6174   23510654.9264
  19778205.740   -16564176.37049 -12863047.56349  19778205.5834   19778210.9744
  22682971.659     8874501.39449   6913757.19649  22682971.9654   22682978.7424
  21290171.087   -21495564.08749 -16725056.85749  21290170.5624   21290176.6494
 97  1 10 17 32 29.9980000  0  7 22 29 25 18 14 15 16
  20774043.326   -19863914.37349 -15460882.29849  20774042.3204   20774048.6544
  20258577.767    -9593340.72749  -7466694.79349  20258577.5794   20258582.1654
  22291590.240     7369231.24849   5712082.86549  22291590.0934   22291595.1004
  23490495.938   -10908095.81949  -8479255.74049  23490495.8384   23490501.2904
  19767844.866   -16618623.23549 -12905473.71149  19767844.7564   19767850.0514
  22696680.390     8946540.21849   6969891.22949  22696680.1554   22696687.3144
  21270734.345   -21597704.81949 -16804647.03449  21270733.8474   21270739.8484
 97  1 10 17 32 59.9980000  0  7 22 29 25 18 14 15 16
  20760521.650   -19934971.04949 -15516251.13049  20760520.7214   20760527.2134
  20251445.718    -9630820.03749  -7495899.46949  20251445.7264   20251449.8534
  22302688.496     7427552.96749   5757528.30449  22302688.7104   22302694.1234
  23470340.636   -11014012.76449  -8561788.43149  23470340.8214   23470346.3084
  19757570.663   -16672614.84449 -12947545.11149  19757570.4194   19757575.8974
  22710405.517     9018665.49549   7026092.62749  22710404.8644   22710412.2714
  21251348.088   -21699579.97549 -16884030.26649  21251347.2284   21251353.4834
 97  1 10 17 33 29.9980000  0  7 22 29 25 18 14 15 16
  20747095.734   -20005524.66349 -15571227.99249  20747095.1154   20747100.9314
  20244339.283    -9668164.58849  -7524999.13249  20244339.2364   20244343.6424
  22313810.089     7485997.11749   5803069.14549  22313810.2314   22313815.8544
  23450184.106   -11119936.37749  -8644326.32649  23450183.6764   23450189.9844
  19747388.063   -16726124.72149 -12989241.13949  19747387.8784   19747393.1914
  22724149.229     9090888.51649   7082370.20449  22724149.7484   22724155.8584
  21232017.261   -21801163.92749 -16963186.58449  21232016.5214   21232022.2334
 97  1 10 17 33 59.9980000  0  7 22 29 25 18 14 15 16
  20733764.659   -20075580.14849 -15625816.67249  20733763.6144   20733769.8694
  20237257.781    -9705378.37749  -7553996.90649  20237257.8084   20237262.0134
  22324955.286     7544565.38049   5848706.69649  22324955.1954   22324960.3104
  23430024.969   -11225873.45649  -8726874.71149  23430024.4024   23430030.8014
  19737296.569   -16779155.87449 -13030564.13549  19737296.2644   19737301.7474
  22737909.237     9163197.28449   7138714.59549  22737909.0834   22737916.3334
  21212741.324   -21902459.52949 -17042118.21449  21212740.9154   21212746.7874
 97  1 10 17 34 29.9980000  0  7 22 29 25 18 14 15 16
  20720531.015   -20145123.07449 -15680005.98149  20720530.3554   20720536.4944
  20230205.131    -9742440.27549  -7582876.32249  20230205.0104   20230209.3624
  22336123.511     7603254.89049   5894438.72849  22336122.8844   22336128.9594
  23409863.393   -11331823.28049  -8809432.96749  23409861.9204   23409869.1384
  19727298.518   -16831695.80649 -13071504.35949  19727298.3064   19727303.5244
  22751683.842     9235582.73149   7195118.71949  22751683.4674   22751690.5234
  21193522.998   -22003452.53549 -17120814.05249  21193522.3304   21193528.2584
 97  1 10 17 34 59.9980000  0  7 22 29 25 18 14 15 16
  20707398.598   -20214134.34549 -15733781.01449  20707397.7974   20707404.0434
  20223182.702    -9779343.26849  -7611631.91649  20223182.7924   20223187.2644
  22347310.311     7662042.15849   5940246.92849  22347310.2994   22347315.7244
  23389701.285   -11437774.62549  -8891992.46749  23389701.5974   23389707.8204
  19717391.012   -16883760.33649 -13112074.13849  19717390.9744   19717396.2194
  22765472.043     9308039.68449   7251578.56149  22765471.3124   22765478.7394
  21174359.841   -22104155.67249 -17199284.02249  21174359.3264   21174365.2004
 97  1 10 17 35 29.9980000  0  7 22 29 25 18 14 15 16
  20694369.752   -20282601.53949 -15787132.09149  20694368.8474   20694375.4724
  20216196.122    -9816058.14749  -7640240.93049  20216196.2794   20216200.4194
  22358515.014     7720923.51849   5986128.45749  22358515.1024   22358520.5934
  23369541.916   -11543712.75049  -8974541.64549  23369541.2734   23369547.8724
  19707571.056   -16935364.73049 -13152285.37049  19707570.8534   19707576.1444
  22779275.375     9380576.37749   7308100.54749  22779274.0574   22779282.6144
  21155250.778   -22204574.66849 -17277532.58049  21155250.0754   21155255.9954
 97  1 10 17 35 59.9980000  0  7 22 29 25 18 14 15 16
  20681445.453   -20350519.42449 -15840055.11849  20681444.7644   20681450.9924
  20209243.200    -9852596.09549  -7668712.07549  20209243.2224   20209247.5344
  22369736.197     7779890.94849   6032077.04649  22369736.0644   22369741.5864
  23349382.289   -11649652.59649  -9057092.13449  23349381.9994   23349387.8224
  19697835.521   -16986525.10849 -13192150.61249  19697835.4224   19697840.7724
  22793092.276     9453184.30449   7364678.03549  22793092.0014   22793099.0774
  21136192.652   -22304725.64949 -17355572.30249  21136191.8494   21136197.9414
 97  1 10 17 36 29.9970000  0  7 22 29 25 18 14 15 16
  20668625.569   -20417888.12849 -15892550.23049  20668624.9194   20668631.1774
  20202322.415    -9888965.12149  -7697051.59849  20202322.3634   20202326.6334
  22380968.880     7838919.06949   6078072.91749  22380969.4674   22380974.6174
  23329219.213   -11755610.18949  -9139656.45949  23329219.3384   23329224.1604
  19688182.420   -17037252.69849 -13231678.61849  19688182.1654   19688187.7394
  22806920.466     9525851.65949   7421301.80949  22806920.5874   22806926.9634
  21117185.183   -22404610.52149 -17433404.65949  21117184.4374   21117190.3734
 97  1 10 17 36 59.9970000  0  7 22 29 25 18 14 15 16
  20655909.297   -20484712.37449 -15944621.05849  20655908.5624   20655914.9794
  20195434.548    -9925161.19949  -7725256.35549  20195434.7214   20195439.0094
  22392217.498     7898030.57849   6124133.78149  22392217.2614   22392223.6064
  23309053.527   -11861581.22149  -9222231.30149  23309053.2584   23309059.3094
  19678614.888   -17087530.47249 -13270856.12849  19678614.7384   19678620.0474
  22820763.502     9598596.48949   7477985.98049  22820763.0544   22820770.2424
  21098226.942   -22504236.76549 -17511035.50149  21098226.3424   21098232.1314
 97  1 10 17 37 29.9970000  0  7 22 29 25 18 14 15 16
  20643295.940   -20550996.17949 -15996270.75749  20643295.1844   20643301.5074
  20188577.222    -9961196.68549  -7753335.96749  20188577.2094   20188581.5084
  22403485.836     7957245.84349   6170275.49349  22403485.7704   22403491.8644
  23288884.615   -11967569.58449  -9304819.63749  23288884.3014   23288889.5674
  19669137.682   -17137333.74049 -13309663.88649  19669137.6694   19669142.9774
  22834620.654     9671415.65549   7534728.04849  22834621.0814   22834628.3364
  21079321.164   -22603587.41049 -17588451.58749  21079320.5304   21079326.1484
 97  1 10 17 37 59.9970000  0  7 22 29 25 18 14 15 16
  20630782.632   -20616753.87349 -16047510.52949  20630781.8774   20630788.3004
  20181744.903    -9997100.76249  -7781313.19249  20181744.9094   20181749.2644
  22414775.411     8016572.41249   6216503.93049  22414775.7444   22414780.8794
  23268711.602   -12073578.72349  -9387424.10949  23268710.6674   23268717.4624
  19659754.618   -17186642.31249 -13348086.17049  19659754.3454   19659759.8434
  22848490.152     9744299.25449   7591520.31849  22848489.8404   22848497.8704
  21060470.351   -22702649.01649 -17665642.44649  21060469.6704   21060475.6104
 97  1 10 17 38 29.9970000  0  7 22 29 25 18 14 15 16
  20618366.938   -20681998.67449 -16098350.63649  20618365.9124   20618372.6114
  20174937.100   -10032876.02549  -7809190.03949  20174937.1324   20174941.5264
  22426085.129     8076005.17849   6262815.11849  22426084.9344   22426090.3554
  23248536.473   -12179599.88149  -9470037.97249  23248535.4444   23248542.8614
  19650469.058   -17235438.24249 -13386108.99349  19650468.8734   19650474.3064
  22862370.251     9817239.02449   7648356.36749  22862369.6014   22862377.4844
  21041675.757   -22801415.22549 -17742603.12449  21041675.2014   21041680.9884
 97  1 10 17 38 59.9970000  0  7 22 29 25 18 14 15 16
  20606050.322   -20746722.77749 -16148784.99649  20606049.4794   20606056.2094
  20168154.708   -10068517.73449  -7836962.81649  20168154.6874   20168159.0504
  22437418.129     8135560.27349   6309221.62449  22437418.0194   22437423.9464
  23228364.542   -12285604.01549  -9552638.56149  23228363.9684   23228370.2374
  19641286.490   -17283692.92949 -13423710.07249  19641286.2904   19641291.7984
  22876262.216     9890241.69349   7705241.40549  22876262.0734   22876270.5844
  21022940.494   -22899869.84849 -17819321.01049  21022939.9724   21022945.5354
 97  1 10 17 39 29.9970000  0  7 22 29 25 18 14 15 16
  20593831.483   -20810933.08049 -16198818.97849  20593830.7184   20593837.3484
  20161395.014   -10104040.24249  -7864642.71149  20161394.9974   20161399.3504
  22448769.416     8195211.32049   6355702.89349  22448769.8104   22448774.8204
  23208195.556   -12391593.43049  -9635227.71449  23208195.4914   23208202.2664
  19632204.192   -17331420.87149 -13460900.69549  19632204.0484   19632209.4734
  22890163.957     9963295.97849   7762166.66849  22890163.6894   22890170.9424
  21004266.383   -22998003.04249 -17895788.42949  21004265.6004   21004271.5244
 97  1 10 17 39 59.9970000  0  7 22 29 25 18 14 15 16
  20581712.808   -20874617.22049 -16248442.97949  20581712.0874   20581718.6654
  20154662.608   -10139419.20549  -7892210.75349  20154662.6774   20154667.0154
  22460134.616     8254935.28749   6402240.99049  22460134.7924   22460140.4554
  23188032.612   -12497550.98949  -9717792.06049  23188033.2794   23188037.2724
  19623223.637   -17378614.03749 -13497674.60949  19623223.4054   19623228.9264
  22904076.882    10036408.80249   7819137.55249  22904077.0874   22904084.2454
  20985655.481   -23095803.77049 -17971996.78749  20985654.8434   20985660.9504
 97  1 10 17 40 29.9970000  0  7 22 29 25 18 14 15 16
  20569696.170   -20937765.35649 -16297649.31649  20569695.6564   20569701.9644
  20147958.770   -10174648.17649  -7919661.91349  20147958.9284   20147963.2134
  22471509.384     8314709.70449   6448818.40149  22471509.0984   22471514.8294
  23167872.460   -12603493.15649  -9800344.37849  23167871.1574   23167877.6554
  19614339.749   -17425299.05249 -13534052.56849  19614339.5654   19614345.1294
  22917998.804    10109568.29149   7876144.81149  22917998.5204   22918005.9804
  20967105.029   -23193287.06249 -18047957.79149  20967104.4364   20967110.3054
 97  1 10 17 40 59.9970000  0  7 22 29 25 18 14 15 16
  20557781.751   -21000375.88349 -16346436.72349  20557780.7054   20557787.6124
  20141284.337   -10209722.62849  -7946992.66849  20141284.4094   20141288.9634
  22482892.190     8374526.76849   6495429.03549  22482892.4274   22482897.6334
  23147713.846   -12709426.87349  -9882890.11849  23147713.8914   23147720.3054
  19605548.460   -17471497.71649 -13570051.55349  19605548.3314   19605553.5834
  22931928.586    10182768.98249   7933184.17549  22931928.6764   22931936.0574
  20948615.216   -23290451.61349 -18123670.43349  20948614.8264   20948620.7724
 97  1 10 17 41 29.9970000  0  7 22 29 25 18 14 15 16
  20545971.762   -21062437.81949 -16394796.65449  20545971.1304   20545977.3934
  20134643.643   -10244619.88549  -7974185.35349  20134643.7664   20134648.2624
  22494283.355     8434387.27649   6542073.52749  22494283.0124   22494288.7554
  23127555.355   -12815360.64749  -9965435.90249  23127555.3674   23127561.0774
  19596848.896   -17517214.42749 -13605674.99149  19596848.7444   19596854.2954
  22945867.738    10256019.01549   7990261.96549  22945868.4564   22945875.4374
  20930188.054   -23387287.11949 -18199126.67049  20930187.6034   20930193.2924
 97  1 10 17 41 59.9970000  0  7 22 29 25 18 14 15 16
  20534265.999   -21123952.03249 -16442729.79949  20534265.3444   20534271.5664
  20128034.748   -10279349.88649  -8001247.71349  20128034.9014   20128039.3054
  22505681.398     8494284.12849   6588746.33249  22505681.4214   22505687.2334
  23107391.190   -12921324.25749 -10048004.94149  23107391.2064   23107397.8094
  19588237.598   -17562467.26649 -13640936.96849  19588237.4754   19588243.0114
  22959811.769    10329294.65049   8047359.70849  22959812.0734   22959819.5384
  20911818.052   -23483822.27549 -18274348.87249  20911817.4604   20911823.3954
 97  1 10 17 42 29.9970000  0  7 22 29 25 18 14 15 16
  20522668.151   -21184899.19249 -16490221.10449  20522667.3634   20522673.8034
  20121460.097   -10313899.96749  -8028169.86849  20121460.0934   20121464.6004
  22517094.156     8554258.12049   6635479.25449  22517094.3104   22517100.3034
  23087225.046   -13027298.84149 -10130582.52549  23087224.9774   23087230.8764
  19579716.855   -17607244.27449 -13675828.16149  19579716.7744   19579722.2624
  22973762.804    10402607.05549   8104486.12149  22973761.6864   22973769.9644
  20893509.215   -23580035.95149 -18349320.56649  20893508.6854   20893514.5424
 97  1 10 17 42 59.9970000  0  7 22 29 25 18 14 15 16
  20511175.799   -21245292.06049 -16537280.47949  20511174.9694   20511181.4434
  20114919.423   -10348271.53549  -8054952.91949  20114919.5214   20114924.0054
  22528522.524     8614314.51549   6682276.38249  22528522.0694   22528528.5964
  23067059.033   -13133272.32649 -10213159.25149  23067058.7784   23067065.0964
  19571286.967   -17651543.86349 -13710347.34149  19571286.9404   19571292.2514
  22987719.911    10475951.85949   8161637.77149  22987719.4834   22987727.8744
  20875262.700   -23675922.17449 -18424037.10449  20875262.1474   20875267.9854
 97  1 10 17 43 29.9970000  0  7 22 29 25 18 14 15 16
  20499788.242   -21305133.98849 -16583910.53449  20499787.5324   20499793.9974
  20108408.969   -10382484.52149  -8081612.40649  20108408.9584   20108413.6334
  22539966.230     8674451.26449   6729136.11049  22539966.2264   22539971.8224
  23046889.772   -13239262.19649 -10295748.76349  23046889.0714   23046895.1924
  19562947.112   -17695370.06349 -13744497.65449  19562946.9244   19562952.3274
  23001680.387    10549314.10549   8218803.02649  23001679.9784   23001688.6324
  20857075.644   -23771495.86849 -18498510.11449  20857074.8784   20857080.6384
 97  1 10 17 43 59.9970000  0  7 22 29 25 18 14 15 16
  20488508.118   -21364411.41549 -16630100.72149  20488507.6014   20488513.6924
  20101928.205   -10416541.25549  -8108150.14149  20101928.1954   20101932.5194
  22551429.516     8734690.98449   6776076.08649  22551429.9004   22551435.5474
  23026722.680   -13345241.31449 -10378329.88949  23026722.0324   23026728.8224
  19554700.608   -17738705.84149 -13778265.82149  19554700.3834   19554705.9074
  23015645.613    10622700.37849   8275986.99249  23015645.3004   23015652.4294
  20838950.484   -23866744.19249 -18572729.58449  20838949.9354   20838955.7764
 97  1 10 17 44 29.9970000  0  7 22 29 25 18 14 15 16
  20477332.784   -21423138.25449 -16675861.86749  20477331.9084   20477338.7084
  20095477.842   -10450438.16249  -8134563.33449  20095478.0104   20095482.2614
  22562912.348     8795033.40549   6823096.07449  22562911.9514   22562918.2064
  23006561.028   -13451191.90249 -10460888.77049  23006560.1804   23006566.7604
  19546548.884   -17781543.70749 -13811646.00549  19546548.7264   19546554.2004
  23029616.343    10696116.24449   8333194.03549  23029615.3294   23029623.8584
  20820890.461   -23961650.45949 -18646682.52749  20820890.0784   20820895.8244
 97  1 10 17 44 59.9970000  0  7 22 29 25 18 14 15 16
  20466259.494   -21481328.93349 -16721205.24449  20466258.5944   20466264.8794
  20089054.800   -10484191.63349  -8160864.75649  20089054.7474   20089059.3014
  22574408.819     8855447.63249   6870172.01549  22574408.8424   22574414.1454
  22986400.505   -13557135.68449 -10543442.34849  22986399.1674   22986405.2354
  19538490.654   -17823890.10749 -13844643.22649  19538490.5144   19538495.9604
  23043589.275    10769544.16849   8390410.45049  23043588.8654   23043597.3804
  20802891.626   -24056235.18349 -18720384.90949  20802891.1084   20802897.0324
 97  1 10 17 45 29.9970000  0  7 22 29 25 18 14 15 16
  20455289.714   -21538975.56949 -16766124.71649  20455289.1884   20455295.0124
  20082658.464   -10517804.54749  -8187056.65649  20082658.6754   20082663.1684
  22585917.352     8915925.26349   6917297.37049  22585917.3054   22585923.6024
  22966241.992   -13663069.24749 -10625987.96249  22966241.9024   22966246.9824
  19530531.625   -17865715.20949 -13877234.23149  19530531.6244   19530536.7424
  23057564.711    10842984.90949   8447636.85649  23057565.1904   23057571.5254
  20784954.157   -24150497.17949 -18793835.81249  20784953.3564   20784959.1044
 97  1 10 17 45 59.9970000  0  7 22 29 25 18 14 15 16
  20444424.041   -21596074.99949 -16810617.75849  20444423.3304   20444429.8124
  20076291.920   -10551261.13649  -8213126.74749  20076292.0124   20076296.4414
  22597437.062     8976461.22949   6964468.17249  22597436.5004   22597442.8034
  22946087.252   -13768983.23249 -10708518.33049  22946086.5554   22946092.5924
  19522674.233   -17907006.24049 -13909409.08249  19522674.1544   19522679.4664
  23071542.765    10916438.85349   8504873.55949  23071542.1744   23071550.2494
  20767079.682   -24244428.02149 -18867028.68149  20767078.9504   20767084.8214
 97  1 10 17 46 29.9970000  0  7 22 29 25 18 14 15 16
  20433662.968   -21652624.79949 -16854682.53349  20433661.9504   20433668.2664
  20069958.154   -10584545.48749  -8239062.62349  20069958.2074   20069962.6674
  22608964.766     9037039.63049   7011672.04149  22608964.5404   22608970.2554
  22925933.990   -13874888.62949 -10791042.00049  22925933.0374   22925939.5654
  19514918.585   -17947762.68349 -13941167.37049  19514918.4634   19514923.9324
  23085522.237    10989900.65949   8562116.37949  23085521.6764   23085529.7474
  20749268.191   -24338027.93049 -18939963.67649  20749267.4714   20749273.2934
 97  1 10 17 46 59.9970000  0  7 22 29 25 18 14 15 16
  20423011.717   -21708597.60449 -16898297.69849  20423010.9544   20423017.0694
  20063660.373   -10617640.73949  -8264851.15849  20063660.4674   20063664.8744
  22620503.218     9097674.53149   7058919.93249  22620503.3414   22620508.1124
  22905783.547   -13980779.40149 -10873554.29249  22905783.7164   22905789.0684
  19507267.887   -17987967.48149 -13972495.80749  19507267.6404   19507273.3194
  23099504.669    11063378.86649   8619371.96749  23099503.5764   23099512.7944
  20731520.613   -24431291.76649 -19012636.79549  20731520.0874   20731525.8844
 97  1 10 17 47 29.9970000  0  7 22 29 25 18 14 15 16
  20412464.922   -21764021.11149 -16941484.81749  20412463.8954   20412470.4564
  20057394.469   -10650568.39749  -8290509.09349  20057394.4454   20057399.1934
  22632048.865     9158347.31449   7106197.33549  22632048.3794   22632055.0144
  22885630.094   -14086686.48949 -10956079.28449  22885629.8984   22885635.7814
  19499716.259   -18027651.67749 -14003418.57849  19499716.0474   19499721.6144
  23113484.233    11136841.60349   8676615.49549  23113483.7984   23113491.8554
  20713832.023   -24524246.04149 -19085068.69849  20713831.4634   20713837.2494
 97  1 10 17 47 59.9970000  0  7 22 29 25 18 14 15 16
  20402025.214   -21818882.10249 -16984233.62249  20402024.3424   20402030.6314
  20051163.803   -10683310.76349  -8316022.65649  20051163.7984   20051168.3864
  22643604.070     9219070.37449   7153513.92149  22643604.2394   22643611.1984
  22865472.994   -14192613.18449 -11038619.56449  22865472.7234   22865477.1714
  19492262.154   -18066823.37649 -14033942.00849  19492261.9784   19492267.4474
  23127462.579    11210298.00349   8733854.09149  23127462.1014   23127469.6734
  20696205.144   -24616875.66049 -19157247.61949  20696204.3264   20696210.3734
 97  1 10 17 48 29.9970000  0  7 22 29 25 18 14 15 16
  20391691.109   -21873188.25149 -17026550.09449  20391690.5864   20391696.2254
  20044966.418   -10715878.03449  -8341399.78349  20044966.3694   20044971.0374
  22655169.150     9279844.74549   7200870.50249  22655169.1534   22655174.6234
  22845313.592   -14298551.98749 -11121169.26049  22845314.3184   22845319.2074
  19484906.189   -18105479.35649 -14064063.57949  19484906.1804   19484911.5484
  23141440.431    11283751.22749   8791090.21149  23141440.3444   23141447.7684
  20678640.932   -24709176.09849 -19229170.03449  20678640.2654   20678646.2004
 97  1 10 17 48 59.9970000  0  7 22 29 25 18 14 15 16
  20381459.585   -21926955.06749 -17068446.30649  20381458.7304   20381465.2334
  20038797.718   -10748294.83349  -8366659.65449  20038797.9894   20038802.3944
  22666745.123     9340676.28049   7248271.61649  22666745.3994   22666751.2384
  22825150.000   -14404512.30249 -11203735.73649  22825149.5884   22825155.8734
  19477647.967   -18143621.62549 -14093784.85449  19477647.8754   19477653.3194
  23155416.036    11357193.29849   8848317.64849  23155416.0394   23155422.7444
  20661139.192   -24801148.17449 -19300836.58949  20661138.6514   20661144.6804
 97  1 10 17 49 29.9970000  0  7 22 29 25 18 14 15 16
  20371330.670   -21980182.84849 -17109922.47149  20371329.6424   20371335.9724
  20032656.669   -10780566.48749  -8391806.42349  20032656.7704   20032661.2474
  22678331.085     9401560.11849   7295713.48549  22678331.3884   22678337.4794
  22804981.586   -14510497.45449 -11286321.56749  22804979.9714   22804986.2434
  19470487.250   -18181251.62049 -14123106.95549  19470487.1824   19470492.6464
  23169389.081    11430621.84049   8905534.54149  23169389.4254   23169397.4514
  20643702.581   -24892778.40549 -19372236.77449  20643702.0924   20643708.0044
 97  1 10 17 49 59.9970000  0  7 22 29 25 18 14 15 16
  20361304.258   -22032871.91649 -17150978.87149  20361303.4734   20361309.5264
  20026541.070   -10812704.39949  -8416848.98249  20026541.2144   20026545.6874
  22689925.497     9462488.60349   7343190.13949  22689925.8914   22689931.5284
  22784809.848   -14616500.19049 -11368921.07849  22784810.1144   22784814.9974
  19463422.815   -18218375.57849 -14152034.74749  19463422.6034   19463428.0094
  23183358.895    11504032.59149   8962737.56849  23183358.4354   23183365.7464
  20626334.342   -24984049.19249 -19443356.86849  20626333.8264   20626339.6424
 97  1 10 17 50 29.9970000  0  8 22 19 29 25 18 14 15 16
  20351381.977   -22085013.72749 -17191608.85949  20351381.2424   20351387.4874
  23932690.896    -4273877.80049  -3316775.57649  23932690.7934   23932699.1674
  20020452.101   -10844702.32349  -8441782.45949  20020452.2794   20020456.8174
  22701531.501     9523478.08849   7390714.33249  22701531.6974   22701536.9574
  22764639.776   -14722494.34549 -11451513.94249  22764639.5084   22764646.1244
  19456455.032   -18254991.54749 -14180566.70549  19456455.0064   19456460.6904
  23197325.897    11577429.47649   9019929.79149  23197324.8964   23197333.7724
  20609038.052   -25074941.90149 -19514182.36149  20609037.5404   20609043.3734
 97  1 10 17 50 59.9970000  0  8 22 19 29 25 18 14 15 16
  20341567.898   -22136587.16149 -17231795.94549  20341567.1464   20341573.1764
  23910096.220    -4392613.76049  -3409297.11849  23910095.3454   23910104.4004
  20014391.122   -10876553.02149  -8466601.20449  20014391.0454   20014395.7854
  22713148.993     9584528.45049   7438285.95649  22713149.0444   22713154.3274
  22744470.321   -14828485.27049 -11534104.26149  22744470.9104   22744475.6954
  19449581.862   -18291110.60949 -14208711.46249  19449581.6354   19449587.2284
  23211288.526    11650803.47649   9077104.16349  23211287.1904   23211297.1144
  20591814.955   -25165449.86649 -19584708.05049  20591814.3744   20591820.4164
 97  1 10 17 51 29.9970000  0  8 22 19 29 25 18 14 15 16
  20331866.485   -22187568.41349 -17271521.59549  20331865.6524   20331872.0774
  23887521.082    -4511247.37049  -3501738.86249  23887520.1644   23887528.5784
  20008360.542   -10908243.99849  -8491295.49949  20008360.4504   20008365.2304
  22724775.310     9645624.87549   7485893.46749  22724775.4454   22724781.3864
  22724302.734   -14934466.79949 -11616687.26349  22724301.8934   22724307.3074
  19442801.234   -18326743.20949 -14236477.15249  19442801.3494   19442806.6894
  23225245.468    11724147.50349   9134255.19749  23225246.4864   23225252.9284
  20574666.511   -25255565.41549 -19654927.96049  20574666.0954   20574672.0034
 97  1 10 17 51 59.9970000  0  8 22 19 29 25 18 14 15 16
  20322280.100   -22237945.31549 -17310776.30449  20322279.3394   20322285.1254
  23864966.662    -4629771.47849  -3594095.28349  23864967.0774   23864974.5184
  20002362.400   -10939764.61549  -8515857.04449  20002362.6234   20002367.1744
  22736411.707     9706774.01649   7533542.05549  22736412.2194   22736417.7754
  22704139.790   -15040423.55949 -11699250.95649  22704139.4414   22704145.3534
  19436114.589   -18361882.05949 -14263858.10149  19436114.6584   19436120.1624
  23239197.795    11797467.16749   9191387.21949  23239197.3884   23239206.5754
  20557593.656   -25345284.09549 -19724838.63049  20557593.3344   20557599.1634
 97  1 10 17 52 29.9970000  0  8 22 19 29 25 18 14 15 16
  20312807.329   -22287724.99949 -17349565.66649  20312806.6174   20312812.7214
  23842429.642    -4748203.54549  -3686379.98749  23842429.0704   23842438.1054
  19996397.340   -10971111.50449  -8540283.21949  19996397.3824   19996401.8754
  22748055.474     9767961.83749   7581220.77549  22748056.1884   22748061.7604
  22683978.264   -15146372.65749 -11781808.68449  22683978.2494   22683983.0554
  19429521.372   -18396529.74049 -14290856.32349  19429521.2624   19429526.8524
  23253143.386    11870751.02749   9248491.33449  23253143.6144   23253151.0424
  20540590.568   -25434636.02749 -19794463.51749  20540589.8864   20540595.9514
 97  1 10 17 52 59.9970000  0  8 22 19 29 25 18 14 15 16
  20303450.834   -22336893.76449 -17387878.97249  20303449.8544   20303456.0384
  23819913.187    -4866527.64349  -3778580.54449  23819912.5584   23819921.9104
  19990468.598   -11002267.41949  -8564560.57949  19990468.6274   19990473.0904
  22759704.608     9829178.20549   7628921.74949  22759704.2354   22759711.0584
  22663818.488   -15252312.92849 -11864359.54449  22663818.0754   22663824.1664
  19423026.787   -18430659.15949 -14317450.70549  19423026.5884   19423032.0424
  23267082.830    11944003.40849   9305570.92349  23267081.5654   23267092.2634
  20523655.644   -25523629.88049 -19863809.37249  20523655.1194   20523660.9834
 97  1 10 17 53 29.9970000  0  8 22 19 29 25 18 14 15 16
  20294206.168   -22385474.74049 -17425734.28649  20294205.4844   20294211.4804
  23797420.925    -4984725.51949  -3870682.75249  23797420.6584   23797428.2444
  19984576.766   -11033229.31949  -8588686.75949  19984576.8054   19984581.4294
  22771356.337     9890408.12349   7676633.28749  22771356.3584   22771362.7644
  22643660.542   -15358244.20149 -11946903.39549  22643660.6904   22643665.7414
  19416633.575   -18464255.89249 -14343630.01149  19416633.1854   19416638.8284
  23281016.303    12017223.31849   9362625.22449  23281017.0274   23281025.4214
  20506787.129   -25612274.51949 -19932883.12049  20506786.3974   20506792.5554
 97  1 10 17 53 59.9970000  0  8 22 19 29 25 18 14 15 16
  20285068.486   -22433493.43149 -17463151.44649  20285067.7204   20285073.7574
  23774952.975    -5102795.12949  -3962684.98549  23774953.1324   23774961.1424
  19978722.049   -11063996.28849  -8612661.03749  19978722.0984   19978726.9314
  22783010.295     9951649.40949   7724353.68049  22783010.5804   22783016.7384
  22623505.790   -15464158.45649 -12029433.97749  22623504.5644   22623511.3814
  19410343.794   -18497308.89649 -14369385.62449  19410343.6594   19410349.3144
  23294943.225    12090408.40249   9419652.39949  23294943.5564   23294952.0624
  20489982.244   -25700584.78449 -20001696.31249  20489981.5314   20489987.6234
 97  1 10 17 54 29.9970000  0  8 22 19 29 25 18 14 15 16
  20276041.651   -22480929.88749 -17500114.89449  20276040.9994   20276047.0364
  23752512.319    -5220720.91749  -4054575.15749  23752510.6094   23752520.7774
  19972907.412   -11094552.44649  -8636471.05249  19972907.3244   19972912.0454
  22794669.742    10012919.70549   7772096.68549  22794669.5394   22794676.4824
  22603358.973   -15570030.85449 -12111931.94049  22603358.0914   22603364.3674
  19404161.372   -18529797.90949 -14394701.77549  19404161.3394   19404166.9364
  23308865.334    12163568.36349   9476660.00449  23308865.6784   23308873.4614
  20473245.486   -25788536.94249 -20070230.46649  20473245.1074   20473250.8874
 97  1 10 17 54 59.9970000  0  8 22 19 29 25 18 14 15 16
  20267125.085   -22527786.67149 -17536626.66349  20267124.5424   20267130.7494
  23730099.534    -5338500.62849  -4146351.49649  23730099.7744   23730107.3594
  19967128.132   -11124922.92149  -8660136.37949  19967128.0754   19967132.7234
  22806333.815    10074214.59749   7819858.85149  22806333.6244   22806340.6514
  22583220.554   -15675859.11549 -12194395.50549  22583220.6124   22583227.3534
  19398086.151   -18561723.61549 -14419578.98049  19398085.9254   19398091.6654
  23322781.041    12236695.24049   9533641.82049  23322780.9654   23322790.3804
  20456580.558   -25876111.89849 -20138470.69049  20456579.9144   20456586.2554
 97  1 10 17 55 29.9970000  0  8 22 19 29 25 18 14 15 16
  20258319.510   -22574060.44249 -17572684.13749  20258318.4984   20258325.1734
  23707713.958    -5456137.01449  -4238016.19749  23707713.8514   23707723.1324
  19961380.243   -11155128.36649  -8683673.11149  19961380.5144   19961385.1334
  22818004.068    10135541.65249   7867646.08249  22818004.0644   22818010.3194
  22563089.914   -15781646.71849 -12276827.40249  22563088.9794   22563095.1694
  19392115.131   -18593101.57649 -14444029.37949  19392115.0184   19392120.4734
  23336689.260    12309782.88549   9590593.07949  23336689.1164   23336698.4404
  20439990.236   -25963294.70349 -20206405.34849  20439989.7304   20439995.5674
 97  1 10 17 55 59.9970000  0  8 22 19 29 25 18 14 15 16
  20249629.493   -22619726.84349 -17608268.32449  20249628.5944   20249635.1074
  23685353.936    -5573640.99849  -4329577.73049  23685353.6214   23685363.0504
  19955662.028   -11185178.04749  -8707088.45949  19955662.1834   19955666.7004
  22829684.633    10196923.03549   7915475.65149  22829684.4884   22829690.8134
  22542966.946   -15887393.38649 -12359227.41349  22542966.8794   22542972.5874
  19386246.644   -18623940.73249 -14468059.92549  19386246.5514   19386252.3044
  23350589.735    12382829.44049   9647512.27549  23350589.6234   23350598.0354
  20423476.603   -26050074.37249 -20274025.86549  20423475.7524   20423482.1264
 97  1 10 17 56 29.9970000  0  8 22 19 29 25 18 14 15 16
  20241055.887   -22664781.47549 -17643375.82249  20241054.8894   20241061.3784
  23663019.247    -5691010.60049  -4421034.55249  23663019.2034   23663027.9824
  19949970.363   -11215088.27949  -8730395.14949  19949970.3834   19949975.0224
  22841374.537    10258353.66949   7963343.58849  22841374.4754   22841381.3824
  22522848.485   -15993116.33749 -12441608.92449  22522847.6274   22522853.5954
  19380480.757   -18654240.71849 -14491670.33849  19380480.6124   19380486.3764
  23364481.293    12455828.58349   9704394.53849  23364480.5974   23364490.0474
  20407040.673   -26136445.76249 -20341328.25349  20407040.0204   20407046.3834
 97  1 10 17 56 59.9970000  0  8 22 19 29 25 18 14 15 16
  20232596.223   -22709237.07849 -17678016.54549  20232595.5264   20232601.6724
  23640710.401    -5808244.03849  -4512385.26649  23640710.2974   23640719.0974
  19944308.152   -11244843.37149  -8753580.95549  19944308.1134   19944312.6254
  22853072.259    10319825.26249   8011243.45149  22853071.8684   22853078.6974
  22502730.629   -16098836.19649 -12523988.04149  22502730.2344   22502737.5064
  19374817.799   -18683999.98649 -14514859.40549  19374817.7734   19374823.4514
  23378363.406    12528778.85649   9761238.70449  23378363.2964   23378371.7994
  20390681.500   -26222413.86249 -20408316.38349  20390680.8554   20390686.9094
 97  1 10 17 57 29.9970000  0  8 22 19 29 25 18 14 15 16
  20224248.190   -22753106.25849 -17712200.30949  20224247.1754   20224253.7374
  23618424.758    -5925355.76449  -4603641.14749  23618424.5954   23618433.5224
  19938680.763   -11274415.53749  -8776624.22749  19938680.7694   19938685.4144
  22864776.358    10381330.56149   8059169.58449  22864776.2454   22864782.7004
  22482611.267   -16204563.83949 -12606373.21749  22482611.2524   22482616.6604
  19369256.318   -18713225.95549 -14537632.91249  19369256.2634   19369262.0064
  23392234.383    12601670.49449   9818037.19449  23392234.1534   23392243.1954
  20374395.048   -26307999.77949 -20475006.70749  20374394.4804   20374400.3784
 97  1 10 17 57 59.9970000  0  8 22 19 29 25 18 14 15 16
  20216006.752   -22796415.15049 -17745947.49749  20216005.8204   20216012.2254
  23596162.553    -6042344.81649  -4694801.43449  23596162.7264   23596171.3744
  19933090.786   -11303791.03749  -8799514.24049  19933090.8684   19933095.4564
  22876485.711    10442863.57549   8107117.28449  22876485.6894   22876492.6654
  22462489.988   -16310301.79749 -12688766.41949  22462489.9924   22462496.5004
  19363796.426   -18741918.02549 -14559990.39849  19363796.2034   19363801.9504
  23406093.294    12674499.00849   9874786.49649  23406093.7094   23406103.0014
  20358181.459   -26393202.90249 -20541398.75049  20358180.9554   20358186.7414
 97  1 10 17 58 29.9970000  0  8 22 19 29 25 18 14 15 16
  20207866.978   -22839189.65549 -17779278.27649  20207866.1554   20207872.5064
  23573922.437    -6159217.71949  -4785871.19549  23573922.1434   23573930.9024
  19927538.418   -11332969.16649  -8822250.46749  19927538.4124   19927542.9494
  22888194.070    10504391.08749   8155060.70649  22888195.0124   22888199.8054
  22442365.026   -16416059.32449 -12771174.88249  22442365.1344   22442370.5664
  19358435.506   -18770089.93349 -14581942.56349  19358435.3444   19358441.0414
  23419937.520    12747250.11049   9931475.47549  23419937.6454   23419946.7344
  20342041.029   -26478021.46849 -20607491.14249  20342040.5184   20342046.3904
 97  1 10 17 58 59.9970000  0  8 22 19 29 25 18 14 15 16
  20199831.259   -22881417.79049 -17812183.28849  20199830.3984   20199836.7614
  23551705.655    -6275967.83749  -4876845.25949  23551705.5744   23551714.1624
  19922025.838   -11361938.00949  -8844823.60849  19922025.9484   19922030.5344
  22899904.519    10565929.36449   8203012.53149  22899904.5464   22899910.7324
  22422238.041   -16521827.35049 -12853591.52549  22422237.9984   22422243.8564
  19353172.883   -18797745.30249 -14603492.22949  19353172.7574   19353178.3474
  23433768.232    12819930.07449   9988109.03249  23433767.9404   23433777.2724
  20325975.887   -26562444.48449 -20673275.31349  20325975.3604   20325981.0564
 97  1 10 17 59 29.9970000  0  8 22 19 29 25 18 14 15 16
  20191902.277   -22923084.81449 -17844651.09949  20191901.6074   20191908.0484
  23529514.034    -6392585.60149  -4967716.19949  23529513.6174   23529522.4534
  19916549.053   -11390718.81149  -8867250.22849  19916549.0704   19916553.6764
  22911618.705    10627487.35649   8250979.70249  22911619.1464   22911625.6484
  22402112.917   -16627585.39649 -12936000.39749  22402113.0204   22402118.4724
  19348007.773   -18824888.23249 -14624642.59149  19348007.6934   19348013.3874
  23447585.639    12892540.43549  10044688.35149  23447585.2844   23447594.7494
  20309988.988   -26646456.28449 -20738739.05849  20309988.4784   20309994.2654
 97  1 10 17 59 59.9970000  0  8 22 19 29 25 18 14 15 16
  20184082.795   -22964176.51649 -17876670.60549  20184081.8514   20184088.3354
  23507347.736    -6509069.77949  -5058483.03149  23507347.8624   23507356.3384
  19911104.189   -11419331.86549  -8889546.13749  19911104.1494   19911108.8934
  22923335.586    10689060.01649   8298958.32249  22923335.6654   22923341.1284
  22381991.315   -16733325.31149 -13018395.12149  22381990.5604   22381997.4124
  19342938.889   -18851525.65849 -14645399.05849  19342938.8324   19342944.4724
  23461388.934    12965077.10949  10101210.25449  23461388.4494   23461398.1534
  20294082.141   -26730047.27349 -20803874.90249  20294081.3404   20294087.1484
 97  1 10 18  0 29.9970000  0  8 22 19 29 25 18 14 15 16
  20176377.787   -23004666.66849 -17908221.37249  20176377.1254   20176383.3574
  23485205.728    -6625427.20449  -5149151.09449  23485206.0604   23485214.3494
  19905688.601   -11447791.23749  -8911722.28749  19905688.6394   19905693.3304
  22935054.723    10750644.50049   8346946.15949  22935054.7024   22935060.4634
  22361873.585   -16839044.55749 -13100773.76449  22361873.6174   22361879.3464
  19337968.284   -18877646.35949 -14665752.87749  19337968.0934   19337973.7514
  23475177.100    13037533.49749  10157669.57949  23475177.0734   23475186.5174
  20278252.394   -26813233.21849 -20868695.12349  20278251.8184   20278257.5334
 97  1 10 18  0 59.9970000  0  8 22 19 29 25 18 14 15 16
  20168790.192   -23044539.77249 -17939291.32749  20168789.2284   20168795.7994
  23463088.529    -6741653.76549  -5239717.17549  23463087.8524   23463096.6674
  19900300.822   -11476104.26649  -8933784.40549  19900300.8884   19900305.5184
  22946777.770    10812249.01449   8394949.59649  22946777.8764   22946783.8194
  22341762.473   -16944729.40449 -13183125.58249  22341761.3504   22341769.4394
  19333099.167   -18903233.91049 -14685691.25449  19333098.9844   19333104.9094
  23488949.331    13109905.68549  10214063.27749  23488949.8084   23488957.9884
  20262497.146   -26896027.53549 -20933210.18249  20262496.6754   20262502.5984
 97  1 10 18  1 29.9970000  0  8 22 19 29 25 18 14 15 16
  20161322.280   -23083784.24449 -17969871.42949  20161321.3684   20161327.5734
  23440996.096    -6857749.94949  -5330181.66249  23440995.1874   23441004.4694
  19894944.307   -11504253.07249  -8955718.56449  19894944.3774   19894948.8984
  22958503.282    10873866.98949   8442963.53049  22958503.0894   22958510.2304
  22321661.029   -17050363.27749 -13265437.69249  22321659.9064   22321667.0944
  19328333.835   -18928276.09749 -14705204.67349  19328333.7234   19328339.4364
  23502705.808    13182195.17049  10270392.54749  23502705.4564   23502714.1814
  20246815.978   -26978432.61949 -20997421.94449  20246815.3114   20246821.3434
 97  1 10 18  1 59.9970000  0  8 22 19 29 25 18 14 15 16
  20153973.996   -23122399.67049 -17999961.38149  20153972.9754   20153979.4614
  23418928.400    -6973716.51949  -5420545.16349  23418928.2134   23418936.9904
  19889621.665   -11532223.82349  -8977513.97449  19889621.6214   19889626.1404
  22970232.190    10935502.44149   8490991.10549  22970232.5294   22970239.3964
  22301567.011   -17155957.74749 -13347719.08649  22301567.3964   22301573.8174
  19323674.088   -18952763.41549 -14724285.72249  19323673.9294   19323679.8674
  23516445.984    13254399.57549  10326655.50149  23516446.2034   23516455.1344
  20231206.718   -27060459.75549 -21061339.19849  20231206.1674   20231212.1434
 97  1 10 18  2 29.9970000  0  8 22 19 29 25 18 14 15 16
  20146741.718   -23160405.58549 -18029576.38049  20146740.9914   20146747.0394
  23396886.331    -7089547.76449  -5510803.22249  23396885.4334   23396892.8824
  19884332.334   -11560019.63549  -8999173.07049  19884332.3234   19884336.9404
  22981963.100    10997148.53849   8539026.96649  22981963.8874   22981969.5064
  22281479.543   -17261518.40749 -13429974.12749  22281479.2034   22281485.4634
  19319121.355   -18976688.30949 -14742928.52449  19319121.1314   19319126.9314
  23530168.476    13326511.76749  10382846.58749  23530168.0944   23530177.8364
  20215669.874   -27142106.43349 -21124959.99749  20215669.3334   20215675.1914
 97  1 10 18  2 59.9970000  0  8 22 19 29 25 18 14 15 16
  20139622.647   -23197816.47049 -18058727.70949  20139621.5804   20139627.9094
  23374867.843    -7205254.89349  -5600964.58349  23374866.9964   23374874.7454
  19879078.918   -11587626.47049  -9020684.90849  19879078.8504   19879083.6974
  22993693.944    11058794.01549   8587062.33549  22993694.0474   22993700.3724
  22261395.314   -17367061.66749 -13512215.62649  22261394.6974   22261401.1164
  19314672.079   -19000069.60249 -14761147.73749  19314671.9114   19314677.7774
  23543872.932    13398528.43049  10438963.24349  23543873.0164   23543883.1154
  20200208.339   -27223357.45649 -21188272.49149  20200207.7174   20200213.8154
 97  1 10 18  3 29.9970000  0  8 22 19 29 25 18 14 15 16
  20132612.068   -23234657.33449 -18087434.87049  20132611.2934   20132617.3184
  23352870.809    -7320849.91749  -5691038.57149  23352870.2644   23352878.7844
  19873860.717   -11615048.56549  -9042052.79449  19873860.8124   19873865.2874
  23005423.169    11120430.85949   8635090.97649  23005423.1874   23005428.8634
  22241308.702   -17472617.51949 -13594466.93249  22241308.3034   22241314.5434
  19310321.528   -19022932.07849 -14778962.68249  19310321.3534   19310327.0474
  23557557.253    13470439.03249  10494997.25349  23557557.3424   23557566.6444
  20184821.911   -27304213.79949 -21251277.44549  20184821.4694   20184827.2754
 97  1 10 18  3 59.9970000  0  8 22 19 29 25 18 14 15 16
  20125709.028   -23270932.80149 -18115701.47949  20125708.0624   20125714.4604
  23330897.312    -7436321.06349  -5781016.03649  23330897.4864   23330905.7584
  19868674.648   -11642301.59949  -9063288.94249  19868674.7034   19868679.1734
  23017150.115    11182055.81149   8683110.33849  23017150.1984   23017157.1084
  22221218.759   -17578190.75649 -13676731.79949  22221218.4314   22221224.0334
  19306069.726   -19045275.46649 -14796373.13849  19306069.7264   19306075.3114
  23571221.374    13542244.51649  10550949.35749  23571221.0434   23571230.6404
  20169515.524   -27384649.61549 -21313954.71149  20169514.9054   20169520.8484
 97  1 10 18  4 29.9970000  0  8 22 19 29 25 18 14 15 16
  20118913.121   -23306645.45149 -18143529.51049  20118912.3074   20118918.6004
  23308947.528    -7551666.80449  -5870895.78549  23308947.2524   23308956.2204
  19863519.493   -11669392.24749  -9084398.55549  19863519.5324   19863524.2194
  23028873.701    11243663.28249   8731116.10049  23028874.3624   23028880.7964
  22201127.459   -17683771.49049 -13759002.50049  22201127.2394   22201132.6904
  19301917.988   -19067093.13849 -14813373.95249  19301917.6904   19301923.5934
  23584865.684    13613945.37549  10606819.92149  23584864.8984   23584876.4084
  20154293.302   -27464643.03049 -21376287.25349  20154292.6744   20154298.6314
 97  1 10 18  4 59.9970000  0  9 22  4 19 29 25 18 14 15 16
  20112227.396   -23341779.17449 -18170906.43849  20112226.2454   20112232.8144
  23913531.369    -4315437.12949  -3346077.72149  23913531.3274   23913537.5624
  23287020.935    -7666891.16249  -5960680.94349  23287021.4214   23287028.8164
  19858395.775   -11696317.73949  -9105379.47349  19858395.6594   19858400.4164
  23040596.418    11305266.03149   8779118.16649  23040597.1764   23040602.3714
  22181034.780   -17789359.40849 -13841278.79649  22181033.7704   22181040.6204
  19297865.967   -19088386.79349 -14829966.44349  19297865.8754   19297871.7414
  23598490.441    13685543.40649  10662610.38549  23598489.9854   23598500.8864
  20139154.660   -27544197.10949 -21438277.45149  20139154.1444   20139159.9684
 97  1 10 18  5 29.9960000  0  9 22  4 19 29 25 18 14 15 16
  20105652.105   -23376332.36149 -18197831.00649  20105651.3474   20105657.5804
  23903002.606    -4370766.66449  -3389191.73449  23903001.5664   23903008.6174
  23265122.283    -7781969.31949  -6050352.17449  23265122.2714   23265129.4764
  19853301.450   -11723088.56949  -9126239.87749  19853301.2864   19853306.1644
  23052318.799    11366866.57349   8827118.52049  23052318.3424   23052325.1924
  22160944.374   -17894935.01449 -13923545.50449  22160944.4974   22160949.8054
  19293915.688   -19109145.63049 -14846142.19549  19293915.5404   19293921.3954
  23612094.628    13757032.94049  10718316.28349  23612095.5564   23612103.3444
  20124098.561   -27623317.21849 -21499929.49549  20124097.8474   20124103.8304
 97  1 10 18  5 59.9960000  0  9 22  4 19 29 25 18 14 15 16
  20099189.394   -23410294.24949 -18224294.81049  20099188.3914   20099194.9454
  23892564.970    -4425616.72449  -3431932.10449  23892565.2814   23892570.3574
  23243251.928    -7896898.71549  -6139907.47549  23243251.5124   23243258.7744
  19848238.110   -11749696.74549  -9146973.54649  19848238.1514   19848242.7884
  23064041.467    11428469.24749   8875120.52349  23064041.3364   23064047.6044
  22140859.137   -18000483.56049 -14005791.14149  22140858.3734   22140865.4364
  19290071.744   -19129345.74849 -14861882.57649  19290071.5714   19290077.4404
  23625680.003    13828423.07749  10773944.74349  23625679.9324   23625689.2664
  20109126.459   -27701996.22049 -21561237.81949  20109125.9124   20109132.0234
 97  1 10 18  6 29.9960000  0  9 22  4 19 29 25 18 14 15 16
  20092844.119   -23443638.91649 -18250277.66049  20092843.3744   20092849.6844
  23882217.413    -4479993.85549  -3474303.96449  23882217.5254   23882223.2934
  23221413.381    -8011661.44649  -6229332.92449  23221412.8304   23221420.6294
  19843215.392   -11776091.40949  -9167540.84149  19843215.5484   19843219.9834
  23075770.705    11490106.84049   8923149.73549  23075771.0464   23075778.2254
  22120784.257   -18105977.53449 -14087994.23249  22120784.0004   22120790.5984
  19286338.210   -19148965.71449 -14877170.88649  19286337.9864   19286343.8074
  23639248.405    13899723.77349  10829503.51549  23639247.4004   23639257.1744
  20094240.741   -27780221.05849 -21622192.24749  20094240.1374   20094246.3304
 97  1 10 18  6 59.9960000  0  9 22  4 19 29 25 18 14 15 16
  20086614.699   -23476374.74049 -18275786.09149  20086613.7174   20086620.1454
  23871951.863    -4533939.80949  -3516339.83149  23871951.8824   23871957.5584
  23199604.129    -8126269.30849  -6318637.66749  23199602.2704   23199612.2194
  19838234.465   -11802266.53549  -9187937.06649  19838234.3164   19838238.9074
  23087504.159    11551766.59049   8971196.22249  23087504.6834   23087511.4314
  22100718.638   -18211423.17549 -14170159.65149  22100718.5014   22100724.5764
  19282710.756   -19168027.98849 -14892024.63649  19282710.5274   19282716.4094
  23652796.631    13970918.77549  10884979.90949  23652796.2504   23652805.8364
  20079439.167   -27858003.88549 -21682802.25649  20079438.5744   20079444.6634
 97  1 10 18  7 29.9960000  0  9 22  4 19 29 25 18 14 15 16
  20080500.494   -23508504.92049 -18300822.57849  20080499.7194   20080505.9154
  23861770.667    -4587442.85749  -3558030.59849  23861771.1404   23861777.8544
  23177826.884    -8240709.07649  -6407811.41249  23177825.7354   23177835.6974
  19833297.850   -11828208.74349  -9208151.80049  19833297.8744   19833302.6864
  23099240.722    11613442.20449   9019255.06349  23099240.4494   23099247.1644
  22080663.278   -18316814.53049 -14252282.79049  22080662.7454   22080669.1824
  19279190.845   -19186525.43749 -14906438.27049  19279190.8444   19279196.5804
  23666324.064    14042004.53849  10940371.20749  23666324.4454   23666334.1894
  20064724.041   -27935332.53449 -21743058.36149  20064723.3814   20064729.5294
 97  1 10 18  7 59.9960000  0  9 22  4 19 29 25 18 14 15 16
  20074502.503   -23540024.76049 -18325383.49449  20074501.3824   20074507.8504
  23851674.869    -4640497.29449  -3599371.79149  23851676.2284   23851681.7934
  23156082.020    -8354978.88049  -6496852.75449  23156081.3384   23156090.8074
  19828405.720   -11853917.06349  -9228184.28349  19828405.4714   19828410.2954
  23110979.345    11675129.17749   9067322.75449  23110979.2724   23110986.3374
  22060615.908   -18422164.17249 -14334373.39949  22060615.2344   22060621.6744
  19275777.659   -19204462.14549 -14920414.95349  19275777.4374   19275783.0224
  23679829.266    14112973.99649  10995671.83949  23679830.7544   23679838.2394
  20050095.616   -28012205.42649 -21802959.32649  20050095.0384   20050100.9804
 97  1 10 18  8 29.9960000  0  9 22  4 19 29 25 18 14 15 16
  20068624.565   -23570913.52649 -18349452.66149  20068623.8614   20068630.0274
  23841668.551    -4693081.00149  -3640346.16449  23841669.0064   23841674.7974
  23134371.087    -8469070.68049  -6585755.38049  23134370.6084   23134379.7674
  19823558.780   -11879387.74349  -9248031.58949  19823558.7564   19823563.5664
  23122722.314    11736838.96949   9115408.21249  23122721.9034   23122729.9254
  22040577.364   -18527467.68949 -14416428.08649  22040577.1664   22040583.5664
  19272471.459   -19221836.36849 -14933953.34049  19272471.1164   19272476.8194
  23693314.371    14183837.78049  11050890.13549  23693314.0704   23693322.1954
  20035553.989   -28088622.14549 -21862504.83249  20035553.3954   20035559.5534
 97  1 10 18  8 59.9960000  0  9 22  4 19 29 25 18 14 15 16
  20062864.185   -23601184.84549 -18373040.71149  20062863.3194   20062869.6184
  23831755.463    -4745174.68149  -3680938.70949  23831756.1294   23831760.7784
  23112692.188    -8582993.44549  -6674526.29649  23112691.2674   23112700.4564
  19818748.910   -11904663.86849  -9267727.28949  19818749.0064   19818754.0074
  23134463.587    11798539.85949   9163486.73749  23134463.6044   23134471.0214
  22020542.921   -18632749.41949 -14498465.78249  22020542.9654   22020547.8544
  19269268.585   -19238667.57349 -14947068.59749  19269268.4634   19269274.4214
  23706776.675    14254581.90949  11106015.22649  23706776.2204   23706786.3904
  20021093.748   -28164611.19849 -21921717.09349  20021093.1764   20021099.4304
 97  1 10 18  9 29.9960000  0  9 22  4 19 29 25 18 14 15 16
  20057221.835   -23630835.43349 -18396145.06749  20057220.9854   20057227.4914
  23821940.899    -4796750.91749  -3721128.05449  23821942.3034   23821947.1114
  23091046.081    -8696744.03449  -6763163.03949  23091045.4724   23091052.9384
  19813974.017   -11929756.28249  -9287279.84149  19813974.0314   19813978.7924
  23146201.102    11860221.08949   9211549.95949  23146201.6184   23146208.4334
  22000512.026   -18738012.58749 -14580489.02149  22000511.8534   22000517.5984
  19266170.086   -19254950.41149 -14959756.55149  19266169.9284   19266175.9074
  23720215.933    14325204.63949  11161045.70549  23720216.2764   23720225.1594
  20006712.109   -28240187.23849 -21980607.52349  20006711.5024   20006717.8554
 97  1 10 18  9 59.9960000  0  8 22  4 19 29 25 18 14 16
  20051699.232   -23659856.91349 -18418759.19749  20051698.5084   20051704.8384
  23812225.510    -4847806.00049  -3760911.29449  23812225.0404   23812231.1654
  23069429.173    -8810341.29749  -6851680.32549  23069428.2174   23069437.3864
  19809233.561   -11954667.51849  -9306691.20949  19809233.4734   19809238.2244
  23157936.816    11921891.83649   9259604.98849  23157937.4144   23157944.5884
  21980487.626   -18843241.79949 -14662485.78449  21980487.3954   21980493.3934
  19263175.465   -19270687.25849 -14972019.05749  19263175.4214   19263181.1974
  19992409.995   -28315345.33549 -22039172.28249  19992409.3634   19992415.8054
 97  1 10 18 10 29.9960000  0  8 22  4 19 29 25 18 14 16
  20046294.030   -23688261.63549 -18440892.75349  20046293.3104   20046299.6074
  23802607.322    -4898350.37049  -3800296.59049  23802608.3574   23802613.3114
  23047835.040    -8923818.72749  -6940104.22349  23047834.6464   23047843.3434
  19804527.522   -11979398.08949  -9325961.79549  19804527.5114   19804532.2784
  23169668.314    11983540.95049   9307643.17049  23169668.3824   23169675.5944
  21960471.522   -18948427.39849 -14744448.57049  21960471.3324   21960476.6854
  19260283.056   -19285887.29349 -14983863.27149  19260282.9644   19260288.7164
  19978188.243   -28390080.99949 -22097407.87049  19978187.6294   19978193.8004
 97  1 10 18 10 59.9960000  0  8 22  4 19 29 25 18 14 16
  20041003.297   -23716064.61149 -18462557.41549  20041002.4234   20041008.6554
  23793083.475    -4948398.54949  -3839295.25349  23793082.4224   23793090.2874
  23026264.566    -9037172.84549  -7028432.04849  23026264.6394   23026272.0714
  19799856.068   -12003946.75849  -9345090.63849  19799856.1454   19799860.9924
  23181395.325    12045166.13849   9355662.71549  23181396.1734   23181403.1694
  21940464.940   -19053562.67949 -14826372.13749  21940464.5324   21940470.7524
  19257492.094   -19300553.91149 -14995291.83649  19257491.9864   19257497.8754
  19964049.965   -28464378.28449 -22155301.86049  19964049.5964   19964055.5644
 97  1 10 18 11 29.9960000  0  8 22  4 19 29 25 18 14 16
  20035826.499   -23743268.84149 -18483755.51949  20035825.7264   20035832.0254
  23783649.444    -4997974.79249  -3877926.16249  23783649.6324   23783654.8564
  23004717.451    -9150404.25849  -7116664.27049  23004717.1464   23004725.1414
  19795220.662   -12028305.95649  -9364071.84549  19795220.5744   19795225.5754
  23193118.676    12106772.77849   9403667.80349  23193118.5984   23193125.6624
  21920469.766   -19158637.75349 -14908248.79549  21920468.9754   21920475.7124
  19254804.707   -19314676.47549 -15006296.46549  19254804.6164   19254810.4614
  19950000.728   -28538207.66349 -22212831.25049  19950000.0924   19950006.2084
 97  1 10 18 11 59.9960000  0  8 22  4 19 29 25 18 14 16
  20030764.642   -23769868.88249 -18504482.82749  20030763.7614   20030770.2024
  23774303.736    -5047087.11849  -3916195.59849  23774305.2214   23774310.3704
  22983195.790    -9263500.96949  -7204791.52849  22983195.2254   22983204.2104
  19790623.278   -12052465.23449  -9382897.27049  19790623.1074   19790627.7634
  23204841.942    12168379.03049   9451672.57849  23204841.8624   23204849.5294
  21900485.620   -19263655.32149 -14990080.62749  21900485.1104   21900491.1064
  19252222.028   -19328248.79349 -15016872.33049  19252221.8744   19252227.7104
  19936044.004   -28611550.93849 -22269981.86149  19936043.4044   19936049.7454
 97  1 10 18 12 29.9960000  0  8 22  4 19 29 25 18 14 16
  20025819.860   -23795853.70749 -18524730.74349  20025819.0444   20025825.2974
  23765049.490    -5095719.23049  -3954090.79849  23765050.4784   23765057.0964
  22961708.144    -9376418.53349  -7292779.19749  22961707.7514   22961716.6174
  19786067.554   -12076405.98049  -9401552.41149  19786067.7304   19786072.4764
  23216566.491    12229991.83049   9499682.47749  23216566.8654   23216574.1734
  21880511.021   -19368622.23849 -15071872.99449  21880510.7784   21880516.3594
  19249747.896   -19341250.35349 -15027003.44149  19249747.7474   19249753.5314
  19922181.865   -28684397.03449 -22326745.05649  19922181.2714   19922187.3684
 97  1 10 18 12 59.9960000  0  8 22  4 19 29 25 18 14 16
  20020991.057   -23821229.19949 -18544503.85549  20020990.0774   20020996.6364
  23755885.540    -5143876.19649  -3991615.80049  23755885.6134   23755892.2254
  22940258.231    -9489138.71849  -7380613.06049  22940257.8704   22940266.1484
  19781552.568   -12100132.46649  -9420040.59249  19781552.5864   19781557.2854
  23228291.336    12291605.86449   9547693.30949  23228291.2394   23228298.2174
  21860540.905   -19473565.72849 -15153647.11049  21860540.8524   21860546.4424
  19247382.491   -19353680.88049 -15036689.60149  19247382.2654   19247388.2104
  19908411.522   -28756760.71449 -22383132.34849  19908410.9044   19908417.0444
 97  1 10 18 13 29.9960000  0  8 22  4 19 29 25 18 14 16
  20016279.401   -23845989.21049 -18563797.36449  20016278.6894   20016285.1244
  23746814.523    -5191545.05949  -4028760.44249  23746814.4324   23746820.1144
  22918844.691    -9601667.10949  -7468297.48249  22918843.8154   22918853.3394
  19777080.814   -12123631.80749  -9438351.77549  19777080.7324   19777085.6164
  23240016.260    12353219.88849   9595704.16249  23240016.6014   23240023.1744
  21840575.154   -19578486.48049 -15235403.50549  21840574.8254   21840580.7034
  19245127.224   -19365532.44549 -15045924.62549  19245127.1664   19245132.9334
  19894728.814   -28828663.84349 -22439160.76649  19894728.1964   19894734.4304
 97  1 10 18 13 59.9960000  0  8 22  4 19 29 25 18 14 16
  20011683.648   -23870139.95749 -18582616.12249  20011682.9604   20011689.2294
  23737837.961    -5238717.40149  -4065518.18649  23737837.5974   23737844.4354
  22897468.287    -9714000.55949  -7555830.00149  22897467.7434   22897477.0814
  19772655.253   -12146888.27149  -9456473.71549  19772655.2264   19772660.2034
  23251741.971    12414838.78949   9643718.82649  23251741.8444   23251749.2344
  21820613.072   -19683387.95949 -15317144.89449  21820612.9944   21820618.1204
  19242982.216   -19376804.76049 -15054708.27649  19242982.0914   19242987.8294
  19881131.984   -28900115.86749 -22494837.67649  19881131.4094   19881137.6994
 97  1 10 18 14 29.9960000  0  8 22  4 19 29 25 18 14 16
  20007201.716   -23893692.70949 -18600968.91149  20007200.9734   20007207.5664
  23728954.593    -5285400.02749  -4101894.30849  23728955.1964   23728959.9214
  22876125.690    -9826156.70649  -7643224.37249  22876125.3084   22876133.7834
  19768274.881   -12169907.40449  -9474410.72649  19768275.1084   19768279.7874
  23263467.702    12476457.61449   9691733.41049  23263467.5674   23263474.3094
  21800655.759   -19788264.18549 -15398866.61249  21800655.4804   21800660.5154
  19240946.757   -19387501.40949 -15063043.35349  19240946.6804   19240952.4474
  19867621.328   -28971114.90949 -22550161.61149  19867620.6924   19867626.9244
 97  1 10 18 14 59.9960000  0  8 22  4 19 29 25 18 14 16
  20002833.463   -23916648.20749 -18618856.31549  20002832.7274   20002838.9694
  23720162.797    -5331601.31049  -4137895.38949  23720163.1534   23720168.3364
  22854813.918    -9938150.54649  -7730492.27049  22854813.6324   22854821.9024
  19763939.662   -12192689.22349  -9492162.81849  19763939.7794   19763944.4314
  23275195.248    12538086.30949   9739755.70949  23275195.9274   23275202.5194
  21780705.713   -19893102.55549 -15480558.82349  21780704.7724   21780711.6804
  19239020.858   -19397622.13049 -15070929.66849  19239020.6334   19239026.5704
  19854197.679   -29041656.67249 -22605129.22549  19854197.1554   19854203.1884
 97  1 10 18 15 29.9960000  0  8 22  4 19 29 25 18 14 16
  19998578.606   -23939007.71249 -18636279.29049  19998577.7434   19998584.4014
  23711462.109    -5377323.92549  -4173523.47049  23711462.3364   23711468.6064
  22833530.512   -10049995.44249  -7817644.08349  22833529.5364   22833538.5534
  19759647.860   -12215242.96449  -9509737.19549  19759647.8904   19759652.8234
  23286926.040    12599731.65049   9787790.97349  23286925.7274   23286933.8994
  21760765.288   -19997890.11949 -15562211.45449  21760765.0064   21760770.9414
  19237203.292   -19407173.85249 -15078372.60249  19237203.0814   19237208.9164
  19840863.488   -29111728.23849 -22659730.45149  19840863.0464   19840869.1724
 97  1 10 18 15 59.9960000  0  8 22  4 19 29 25 18 14 16
  19994435.314   -23960780.93949 -18653245.42949  19994434.3114   19994440.6864
  23702851.072    -5422575.49049  -4208784.48149  23702851.7274   23702857.5964
  22812273.566   -10161701.11749  -7904687.43149  22812272.9924   22812281.5114
  19755395.138   -12237591.33249  -9527151.53749  19755395.3044   19755399.9464
  23298657.128    12661378.11649   9835827.11849  23298657.8654   23298664.3364
  21740833.434   -20102632.46549 -15643828.84849  21740832.4054   21740838.8964
  19235489.480   -19416180.15249 -15085390.52949  19235489.2284   19235495.1754
  19827623.436   -29181304.96049 -22713946.08549  19827622.9224   19827629.0794
 97  1 10 18 16 29.9960000  0  8 22  4 19 29 25 18 14 16
  19990405.066   -23981959.92249 -18669748.51249  19990404.2914   19990410.7254
  23694329.510    -5467356.74049  -4243679.02649  23694328.2384   23694333.9904
  22791041.853   -10273274.85149  -7991627.97349  22791041.1814   22791050.3914
  19751177.769   -12259753.79549  -9544421.01249  19751178.0044   19751182.6254
  23310383.330    12722999.26249   9883843.52949  23310383.4974   23310390.5544
  21720910.778   -20207326.23449 -15725408.39749  21720909.8774   21720916.4754
  19233878.163   -19424647.87049 -15091988.77349  19233878.0234   19233883.9664
  19814478.023   -29250384.59849 -22767774.38049  19814477.4134   19814483.5914
 97  1 10 18 16 59.9960000  0  8 22  4 19 29 25 18 14 16
  19986490.076   -24002533.47249 -18685779.84849  19986489.2714   19986495.7424
  23685901.146    -5511648.28049  -4278191.96949  23685900.9224   23685907.2194
  22769837.117   -10384706.08349  -8078457.46549  22769837.0704   22769845.6324
  19746996.006   -12281729.28549  -9561544.79549  19746996.1094   19747000.6814
  23322102.487    12784583.24949   9931830.99749  23322102.7744   23322110.3154
  21700998.661   -20311964.81949 -15806944.93049  21700998.2624   21701004.8224
  19232370.014   -19432573.41049 -15098164.55849  19232369.9774   19232375.7434
  19801427.032   -29318968.17049 -22821216.13349  19801426.4584   19801432.7134
 97  1 10 18 17 29.9960000  0  8 22  4 19 29 25 18 14 16
  19982692.152   -24022491.71049 -18701331.71449  19982691.5014   19982697.8094
  23677568.305    -5555437.92449  -4312313.83249  23677568.6404   23677574.2584
  22748662.148   -10495981.65749  -8165165.66449  22748662.0394   22748669.9694
  19742850.853   -12303512.53649  -9578518.78149  19742850.9694   19742855.7824
  23333812.369    12846118.75549   9979780.70549  23333812.1584   23333819.1034
  21681099.490   -20416535.59649 -15888428.63749  21681098.7284   21681104.6794
  19230963.950   -19439962.82449 -15103922.58949  19230963.8314   19230969.6514
  19788471.420   -29387050.49649 -22874267.30749  19788470.8374   19788477.0294
 97  1 10 18 17 59.9960000  0  8 22  4 19 29 25 18 14 16
  19979013.725   -24041821.81949 -18716394.13149  19979012.8674   19979019.3154
  23669330.054    -5598730.70049  -4346048.52349  23669331.1234   23669337.7074
  22727520.007   -10607083.88049  -8251738.79149  22727519.6264   22727527.2484
  19738742.513   -12325101.99349  -9595341.76149  19738742.5234   19738747.5024
  23345512.409    12907602.73949  10027690.28349  23345512.3984   23345519.8064
  21661213.844   -20521035.21249 -15969856.89349  21661213.5244   21661219.1864
  19229660.548   -19446812.12249 -15109259.74349  19229660.2134   19229666.2504
  19775608.980   -29454643.20149 -22926936.96149  19775608.3014   19775614.6684
 97  1 10 18 18 29.9960000  0  8 22  4 19 29 25 18 14 16
  19975456.908   -24060512.79849 -18730958.51949  19975456.0104   19975462.5204
  23661184.330    -5641537.50349  -4379404.55649  23661184.9824   23661191.2534
  22706413.913   -10717996.00949  -8338163.79849  22706412.5284   22706421.2004
  19734673.325   -12346485.87449  -9612004.54949  19734673.3504   19734678.3734
  23357207.327    12969059.63849  10075578.74649  23357207.1524   23357214.7634
  21641342.438   -20625459.74849 -16051226.65049  21641341.4514   21641348.5714
  19228463.092   -19453104.83649 -15114163.19549  19228462.7824   19228468.9394
  19762837.177   -29521759.49949 -22979235.38749  19762836.6634   19762842.8234
 97  1 10 18 18 59.9960000  0  8 22  4 19 29 25 18 14 16
  19972018.644   -24078580.88649 -18745037.54149  19972017.7204   19972024.2894
  23653127.648    -5683875.84449  -4412395.52149  23653127.1914   23653135.4954
  22685342.059   -10828729.20949  -8424449.36049  22685342.1844   22685349.7654
  19730642.715   -12367666.90049  -9628509.27349  19730642.5804   19730647.5264
  23368898.217    13030495.20849  10123450.59449  23368897.4694   23368905.6784
  21621482.954   -20729821.71049 -16132547.63949  21621482.4794   21621489.0784
  19227367.305   -19458863.48849 -15118650.49649  19227367.2514   19227372.9214
  19750153.405   -29588413.20849 -23031173.35249  19750152.7744   19750159.0964
 97  1 10 18 19 29.9960000  0  8 22  4 19 29 25 18 14 16
  19968697.467   -24096033.90049 -18758637.28649  19968696.6194   19968703.1554
  23645156.748    -5725763.05249  -4445034.99149  23645156.2794   23645162.5754
  22664305.203   -10939279.48449  -8510592.38849  22664304.7884   22664312.6124
  19726650.206   -12388647.79049  -9644858.05049  19726650.0044   19726654.9364
  23380586.370                    10171311.44749  23380585.837    23380594.2204
  21601634.329   -20834127.24249 -16213824.64849  21601633.9704   21601640.3524
  19226372.345   -19464092.17949 -15122724.83949  19226372.1504   19226378.1644
  19737559.089   -29654596.74749 -23082744.95749  19737558.5534   19737564.7314
 97  1 10 18 19 59.9960000  0  8 22  4 19 29 25 18 14 16
  19965491.726   -24112880.25649 -18771764.30449  19965490.8484   19965497.4974
  23637271.724    -5767199.02649  -4477322.79849  23637272.0674   23637278.8684
  22643301.643   -11049653.66249  -8596598.20449  22643301.6584   22643308.3754
  19722696.730   -12409423.41449  -9661046.87249  19722696.8514   19722701.6794
  23392272.285    13153325.93259  10219162.81849  23392271.1184   23392278.8384
  21581793.282   -20938392.58449 -16295070.34649  21581793.3754   21581798.8424
  19225480.491   -19468778.79449 -15126376.77749  19225480.2674   19225486.4484
  19725055.858   -29720301.81549 -23133943.72349  19725055.3184   19725061.5994
 97  1 10 18 20 29.9960000  0  8 22  4 19 29 25 18 14 16
  19962397.800   -24129139.04249 -18784433.47349  19962396.7804   19962403.0954
  23629474.307    -5808175.04849  -4509252.23749  23629474.2554   23629480.9664
  22622327.979   -11159870.35649  -8682481.28949  22622327.0994   22622334.6724
  19718784.706   -12429981.50449  -9677066.18249  19718784.7394   19718789.8104
  23403951.720    13214701.82249  10266988.15949  23403951.0324   23403958.8674
  21561957.571   -21042630.04849 -16376294.32249  21561957.5174   21561963.3274
  19224692.008   -19472922.37649 -15129605.57749  19224691.7834   19224697.8204
  19712644.918   -29785521.98649 -23184764.65549  19712644.4804   19712650.5124
 97  1 10 18 20 59.9960000  0  8 22  4 19 29 25 18 14 16
  19959413.524   -24144821.57149 -18796653.60849  19959412.8564   19959419.0404
  23621766.580    -5848679.32749  -4540814.08849  23621766.7414   23621772.3044
  22601382.678   -11269938.56249  -8768248.69349  22601382.3694   22601390.8824
  19714912.860   -12450328.11049  -9692920.70049  19714912.9504   19714917.8724
  23415618.631    13276012.12749  10314762.42549  23415619.6144   23415625.8564
  21542124.525   -21146853.39449 -16457507.29649  21542124.0584   21542131.1974
  19224007.320   -19476520.75049 -15132409.53849  19224007.0274   19224012.9844
  19700327.050   -29850252.93149 -23235204.37049  19700326.6084   19700332.6224
 97  1 10 18 21 29.9960000  0  8 22  4 19 29 25 18 14 16
  19956541.889   -24159911.99649 -18808412.38049  19956540.9944   19956547.2744
  23614151.886    -5888694.70049  -4571994.95749  23614152.0134   23614159.5884
  22580467.591   -11379847.45049  -8853891.94349  22580466.8084   22580475.5674
  19711082.737   -12470455.64949  -9708604.51549  19711082.7414   19711087.7184
  23427275.473    13337269.08349  10362495.12149  23427276.5644   23427283.4734
  21522295.796   -21251053.80649 -16538702.39849  21522295.5154   21522301.5614
  19223431.724   -19479545.66049 -15134766.64849  19223431.6954   19223437.6664
  19688106.122   -29914474.54749 -23285247.20749  19688105.6884   19688111.8924
 97  1 10 18 21 59.9960000  0  8 22  4 19 29 25 18 14 16
  19953783.863   -24174405.37849 -18819705.93249  19953782.9634   19953789.3584
  23606632.086    -5928212.29249  -4602787.93649  23606630.4904   23606637.9284
  22559580.615   -11489609.09449  -8939420.46849  22559579.5484   22559588.5154
  19707295.969   -12490355.28349  -9724110.74049  19707296.0034   19707301.2694
  23438921.124    13398467.36449  10410182.07949  23438921.6724   23438929.2164
  21502471.920   -21355228.95149 -16619877.80449  21502471.9484   21502477.6384
  19222966.657   -19481989.67049 -15136671.10649  19222966.5974   19222972.4254
  19675982.282   -29978185.79849 -23334892.35949  19675981.9014   19675988.1424
 97  1 10 18 22 29.9960000  0  8 22  4 19 29 25 18 14 16
  19951140.387   -24188297.05149 -18830530.61549  19951139.5734   19951145.9214
  23599205.778    -5967237.29749  -4633197.10149  23599205.9804   23599213.1534
  22538721.819   -11599222.95349  -9024833.83049  22538721.9674   22538729.2054
  19703549.343   -12510044.20549  -9739452.78149  19703549.4974   19703554.3174
  23450556.900    13459613.46449  10457828.37749  23450557.4274   23450563.3034
  21482657.402   -21459354.81349 -16701014.81049  21482657.0464   21482663.5214
  19222610.465   -19483861.65549 -15138129.82749  19222610.3244   19222616.4594
  19663954.160   -30041394.16849 -23384145.65549  19663953.7184   19663959.8494
 97  1 10 18 22 59.9960000  0  8 22  4 19 29 25 18 14 16
  19948611.190   -24201588.07049 -18840887.24149  19948610.5244   19948616.8194
  23591872.597    -6005774.36249  -4663226.03549  23591872.9364   23591880.1894
  22517892.993   -11708679.93249  -9110124.97449  22517893.2274   22517900.5364
  19699839.187   -12529541.40749  -9754645.42749  19699839.1154   19699844.1054
  23462184.904    13520718.58749  10505442.77349  23462183.5884   23462190.4454
  21462855.149   -21563416.47549 -16782101.79349  21462854.2254   21462860.3004
  19222360.326   -19485176.27549 -15139154.23849  19222360.0574   19222366.3454
  19652019.837   -30104109.63949 -23433014.87949  19652019.2804   19652025.5494
 97  1 10 18 23 29.9960000  0  8 22  4 19 29 25 18 14 16
  19946197.465   -24214272.37149 -18850771.09749  19946196.6254   19946203.0194
  23584631.172    -6043828.77649  -4692878.87149  23584631.4194   23584638.2974
  22497095.345   -11817972.11249  -9195287.68049  22497094.7354   22497102.5734
  19696168.735   -12548829.76549  -9769675.33049  19696168.5164   19696173.5494
  23473809.606    13581806.69849  10553043.89149  23473809.0604   23473817.9244
  21443068.530   -21667395.92049 -16863124.70649  21443067.7134   21443073.1724
  19222213.459   -19485948.13149 -15139755.71449  19222213.0394   19222219.1854
  19640178.997   -30166333.91649 -23481501.34849  19640178.4374   19640184.5774
 97  1 10 18 23 59.9960000  0  8 22  4 19 29 25 18 14 16
  19943896.005   -24226366.62749 -18860195.18549  19943895.1494   19943901.3424
  23577481.768    -6081399.38749  -4722154.73349  23577481.7894   23577488.2714
  22476331.592   -11927085.91449  -9280311.39749  22476330.8404   22476339.5264
  19692538.295   -12567907.92249  -9784541.44349  19692538.3294   19692543.1824
  23485429.390    13642869.07649  10600624.95749  23485429.0464   23485436.8874
  21423298.847   -21771286.02849 -16944078.00349  21423298.1694   21423304.6124
  19222165.601   -19486199.57749 -15139951.68249  19222165.4324   19222171.4904
  19628427.771   -30228087.01049 -23529620.66749  19628427.2934   19628433.2844
 97  1 10 18 24 29.9960000  0  8 22  4 19 29 25 18 14 16
  19941707.443   -24237867.53649 -18869156.94449  19941706.7544   19941713.0034
  23570426.660    -6118474.06249  -4751044.12849  23570427.5834   23570432.5024
  22455607.296   -12035992.48549  -9365173.62549  22455607.2674   22455614.7124
  19688949.888   -12586765.29349  -9799235.50949  19688949.9344   19688954.9014
  23497046.724    13703918.82649  10648196.19849  23497045.8544   23497054.3564
  21403548.452   -21875074.88949 -17024952.39949  21403548.2624   21403554.2044
  19222217.717   -19485925.91249 -15139738.47749  19222217.6264   19222223.6214
  19616765.312   -30289373.76949 -23577376.60449  19616764.8564   19616771.0244
 97  1 10 18 24 59.9960000  0  8 22  4 19 29 25 18 14 16
  19939634.115   -24248763.13549 -18877647.03349  19939633.2094   19939639.6824
  23563470.047    -6155031.12249  -4779530.22349  23563471.0184   23563476.5644
  22434923.457   -12144686.26049  -9449870.03249  22434923.2964   22434930.7574
  19685408.788   -12605374.13249  -9813735.91849  19685408.9054   19685413.6824
  23508662.066    13764958.44749  10695759.52349  23508661.2224   23508670.3004
  21383813.608   -21978782.02149 -17105763.12249  21383813.2544   21383819.3724
  19222371.872   -19485115.99049 -15139107.41049  19222371.7494   19222377.7934
  19605195.999   -30350170.97349 -23624751.07049  19605195.4764   19605201.7374
 97  1 10 18 25 29.9960000  0  8 22  4 19 29 25 18 14 16
  19937676.159   -24259052.24749 -18885664.52549  19937675.3854   19937681.5344
  23556609.600    -6191083.56649  -4807623.06649  23556609.9984   23556616.1814
  22414277.242   -12253183.06449  -9534412.97749  22414277.4894   22414284.5924
  19681916.871   -12623724.41249  -9828034.85249  19681916.8924   19681921.8664
  23520273.060    13825974.97549  10743304.87849  23520273.6534   23520282.0354
  21364088.356   -22082438.92849 -17186534.71649  21364088.4994   21364093.6254
  19222629.737   -19483761.32149 -15138051.85649  19222629.6304   19222635.7714
  19593721.438   -30410470.20749 -23671737.50949  19593721.0994   19593727.4134
 97  1 10 18 25 59.9960000  0  7 22  4 19 29 18 14 16
  19935832.277   -24268741.94849 -18893214.94649  19935831.5114   19935837.7894
  23549845.057    -6226632.60149  -4835323.66349  23549844.8524   23549851.3814
  22393666.574   -12361494.09549  -9618811.16849  22393666.4274   22393674.5094
  19678470.853   -12641833.40549  -9842145.76049  19678470.7484   19678475.7584
  21344370.397   -22186057.18149 -17267276.17749  21344370.0104   21344376.3294
  19222994.347   -19481845.26649 -15136558.86049  19222994.2384   19223000.3954
  19582341.798   -30470270.81049 -23718335.40049  19582341.3674   19582347.6464
 97  1 10 18 26 29.9960000  0  7 22  4 19 29 18 14 16
  19934103.622   -24277825.84149 -18900293.32149  19934102.9084   19934109.1514
  23543172.307    -6261698.03049  -4862647.42549  23543173.3904   23543178.3784
  22373084.761   -12469652.18149  -9703090.16149  22373084.0564   22373092.9224
  19675069.596   -12659706.97749  -9856073.22949  19675069.5134   19675074.6094
  21324654.418   -22289665.14849 -17348009.62849  21324654.4594   21324659.5324
  19223468.416   -19479354.24249 -15134617.83549  19223468.3004   19223474.3894
  19571062.447   -30529544.33749 -23764522.58149  19571061.9164   19571068.2554
 97  1 10 18 26 59.9960000  0  7 22  4 19 29 18 14 16
  19932491.364   -24286298.31949 -18906895.25849  19932490.5044   19932497.0034
  23536589.844    -6296289.10749  -4889601.57549  23536590.6374   23536595.4144
  22352530.063   -12577666.86549  -9787257.40849  22352529.4164   22352537.8024
  19671713.986   -12677340.96549  -9869814.00849  19671713.8764   19671718.8184
  21304940.741   -22393261.33749 -17428733.88849  21304940.3174   21304946.3914
  19224052.428   -19476285.41449 -15132226.57049  19224052.3264   19224058.6914
  19559887.084   -30588271.40549 -23810283.94949  19559886.5224   19559892.7514
 97  1 10 18 27 29.9960000  0  7 22  4 19 29 18 14 16
  19930995.969   -24294156.67849 -18913018.66349  19930995.1694   19931001.6914
  23530096.568    -6330411.66149  -4916190.62049  23530096.0234   23530103.8394
  22332007.178   -12685515.21149  -9871295.06049  22332006.4344   22332014.6664
  19668403.353   -12694738.80349  -9883370.78049  19668403.6874   19668408.2104
  21285236.237   -22496809.01149 -17509420.36149  21285236.2784   21285241.8004
  19224747.684   -19472631.89749 -15129379.71949  19224747.8144   19224753.8384
  19548816.430   -30646448.09549 -23855616.45249  19548815.9364   19548821.9184
 97  1 10 18 27 59.9960000  0  7 22  4 19 29 18 14 16
  19929614.660   -24301415.55649 -18918674.94449  19929613.8754   19929620.2444
  23523691.167    -6364072.29449  -4942419.74249  23523690.9884   23523698.6734
  22311516.953   -12793191.94149  -9955198.97949  22311516.8484   22311524.9434
  19665133.576   -12711921.69849  -9896760.06449  19665133.5514   19665138.5764
  21265545.971   -22600282.29949 -17590048.86149  21265545.8194   21265551.2134
  19225549.728   -19468417.38949 -15126095.73649  19225549.6394   19225555.8564
  19537849.851   -30704077.82049 -23900522.74749  19537849.4684   19537855.8224
 97  1 10 18 28 29.9960000  0  7 22  4 19 29 18 14 16
  19928346.863   -24308077.81249 -18923866.32649  19928345.8134   19928352.5024
  23517372.877    -6397275.94549  -4968292.76849  23517372.3524   23517380.5724
  22291060.585   -12900690.59449 -10038964.14649  22291060.3004   22291068.3114
  19661905.319   -12728886.21449  -9909979.17749  19661905.2364   19661910.3304
  21245872.929   -22703664.75649 -17670606.58549  21245872.9584   21245878.8494
  19226455.449   -19463657.77249 -15122386.98749  19226455.4324   19226461.5714
  19526987.794   -30761158.52349 -23945001.22949  19526987.1184   19526993.5424
 97  1 10 18 28 59.9960000  0  7 22  4 19 29 18 14 16
  19927192.849   -24314142.52849 -18928592.09149  19927192.0624   19927198.5014
  23511141.332    -6430023.04649  -4993810.03049  23511141.8254   23511146.9714
  22270643.902   -13007980.87549 -10122566.92749  22270644.3144   22270651.6954
  19658717.862   -12745636.37649  -9923031.26549  19658717.9334   19658722.7004
  21226221.105   -22806935.46549 -17751077.23549  21226221.0234   21226226.8164
  19227462.791   -19458364.45149 -15118262.35649  19227462.6754   19227468.9474
  19516224.968   -30817717.44649 -23989073.12349  19516224.3894   19516230.7184
 97  1 10 18 29 29.9960000  0  7 22  4 19 29 18 14 16
  19926152.126   -24319611.72749 -18932853.82349  19926151.2134   19926157.7184
  23504997.250    -6462310.70749  -5018969.30049  23504997.0094   23505003.2764
  22250268.504   -13115054.06849 -10206000.56049  22250267.7504   22250276.6074
  19655570.318   -12762176.82749  -9935919.95049  19655570.3224   19655575.1844
  21206590.336   -22910095.73849 -17831461.82149  21206589.9234   21206595.5944
  19228572.080   -19452535.45749 -15113720.32049  19228572.2364   19228578.1374
  19505561.428   -30873754.78449 -24032738.59349  19505560.9814   19505567.3074
 97  1 10 18 29 59.9960000  0  7 22  4 19 29 18 14 16
  19925225.161   -24324482.95349 -18936649.59349  19925224.4644   19925230.7464
  23498941.402    -6494134.87049  -5043767.40849  23498941.3214   23498948.7844
  22229933.382   -13221915.85349 -10289269.45049  22229932.6484   22229941.4314
  19652466.124   -12778489.64549  -9948631.25049  19652466.0614   19652471.1134
  21186977.223   -23013163.18149 -17911774.07149  21186976.7214   21186982.9734
  19229784.969   -19446161.91249 -15108753.95849  19229784.4774   19229791.0954
  19494994.775   -30929282.92049 -24076007.28249  19494994.1664   19495000.5504
 97  1 10 18 30 29.9960000  0  7 22  4 19 29 18 14 16
  19924415.115   -24328739.83449 -18939966.65249  19924414.2754   19924420.8224
  23492976.977    -6525478.06549  -5068190.72449  23492977.0404   23492983.3274
  22209637.907   -13328568.95349 -10372375.74149  22209637.3584   22209646.3094
  19649408.562   -12794557.17349  -9961151.42149  19649408.4484   19649413.2854
  21167377.770   -23116158.60349 -17992030.21049  21167377.2504   21167383.5104
  19231104.764   -19439226.28249 -15103349.61649  19231104.5534   19231110.9814
  19484524.210   -30984306.26749 -24118882.63349  19484523.7354   19484529.9774
 97  1 10 18 30 59.9960000  0  7 22  4 19 29 18 14 16
  19923722.292   -24332380.78849 -18942803.76949  19923721.4554   19923727.7414
  23487106.231    -6556329.59349  -5092230.95449  23487106.4454   23487112.8204
  22189380.815   -13435020.20949 -10455324.72549  22189380.1124   22189388.7784
  19646398.771   -12810373.69949  -9973476.00049  19646398.7714   19646403.9084
  21147789.403   -23219095.65049 -18072240.86549  21147788.8704   21147795.1284
  19232531.404   -19431729.49549 -15097508.00149  19232531.3564   19232537.7244
  19474149.482   -31038825.66749 -24161365.29249  19474148.8474   19474155.3884
 97  1 10 18 31 29.9960000  0  7 22  4 19 29 18 14 16
  19923139.950   -24335441.11249 -18945188.46049  19923139.1984   19923145.4244
  23481326.487    -6586702.61649  -5115898.30249  23481325.8464   23481331.8604
  22169151.301   -13541326.95549 -10538161.13049  22169150.8364   22169159.4854
  19643433.427   -12825956.92549  -9985618.79049  19643433.5844   19643438.5134
  21128206.313   -23322005.10949 -18152430.02349  21128205.8274   21128212.2334
  19234059.013   -19423701.95949 -15091252.82149  19234058.9484   19234065.3484
  19463866.868   -31092861.18649 -24203470.90249  19463866.2964   19463872.6404
 97  1 10 18 31 59.9960000  0  7 22  4 19 29 18 14 16
  19922670.739   -24337906.68149 -18947109.70349  19922669.8134   19922676.2694
  23475642.718    -6616571.12249  -5139172.51649  23475641.5124   23475650.3874
  22148952.306   -13647473.28949 -10620872.50149  22148952.3494   22148959.9244
  19640517.851   -12841278.57749  -9997557.74849  19640517.8924   19640522.7374
  21108637.406   -23424840.16349 -18232561.20649  21108636.9354   21108643.0004
  19235689.574   -19415133.65949 -15084576.26949  19235689.3994   19235695.6414
  19453680.358   -31146391.68449 -24245182.98749  19453679.6484   19453686.0514
 97  1 10 18 32 29.9960000  0  7 22  4 19 29 18 14 16
  19922312.299   -24339790.36549 -18948577.53049  19922311.2614   19922318.0034
  23470055.694    -6645931.34649  -5162050.66549  23470056.2584   23470062.8964
  22128783.410   -13753461.02249 -10703460.31249  22128783.6024   22128791.1504
  19637649.794   -12856350.22149 -10009301.89449  19637649.7184   19637654.6034
  21089086.041   -23527583.05149 -18312620.57349  21089085.9404   21089092.3574
  19237420.612   -19406037.23849 -15077488.19649  19237420.4014   19237426.6124
  19443595.321   -31199388.84449 -24286479.48549  19443594.6604   19443601.2134
 97  1 10 18 32 59.9960000  0  7 22  4 19 29 18 14 16
  19922061.322   -24341109.16349 -18949605.17849  19922060.5144   19922066.7584
  23464562.176    -6674799.87849  -5184545.67249  23464562.8914   23464568.9714
  22108646.290   -13859282.39349 -10785918.47149  22108645.7934   22108654.4084
  19634829.450   -12871170.99549 -10020850.56049  19634829.5704   19634834.3874
  21069555.870   -23630214.71249 -18392593.27349  21069555.6004   21069561.7044
  19239252.281   -19396411.73449 -15069987.84349  19239252.1334   19239258.4584
  19433614.828   -31251836.67749 -24327347.93249  19433614.2394   19433620.6664
 97  1 10 18 33 29.9950000  0  7 22  4 19 29 18 14 16
  19921917.055   -24341867.49949 -18950196.10949  19921916.2244   19921922.6644
  23459157.543    -6703202.70049  -5206677.78149  23459158.2634   23459163.6514
  22088541.932   -13964931.51249 -10868242.41949  22088541.5014   22088549.9864
  19632056.789   -12885741.42549 -10032204.15049  19632056.6704   19632061.7554
  21050048.628   -23732726.10649 -18472472.25849  21050048.2854   21050054.6824
  19241184.190   -19386259.59149 -15062077.12349  19241184.2654   19241190.2884
  19423738.492   -31303737.29849 -24367789.98649  19423737.8464   19423744.3604
 97  1 10 18 33 59.9950000  0  7 22  4 19 29 18 14 16
  19921880.131   -24342061.50849 -18950347.30449  19921879.2304   19921885.8484
  23453837.546    -6731160.08249  -5228462.84549  23453836.9774   23453844.0394
  22068471.948   -14070399.92949 -10950425.54949  22068471.4154   22068479.9074
  19629329.057   -12900075.60949 -10043373.66849  19629328.9784   19629334.3204
  21030562.664   -23835125.31349 -18552263.82449  21030561.9254   21030568.3794
  19243217.217   -19375576.22549 -15053752.46749  19243216.9484   19243223.5434
  19413965.996   -31355092.10649 -24407806.73249  19413965.4514   19413972.0204
 97  1 10 18 34 29.9950000  0  7 22  4 19 29 18 14 16
  19921955.959   -24341663.31949 -18950037.03749  19921955.1974   19921961.6604
  23448603.285    -6758666.42949  -5249896.42949  23448603.2304   23448610.2664
  22048438.002   -14175678.90649 -11032461.05449  22048437.8744   22048445.9734
  19626647.080   -12914169.63849 -10054356.05649  19626647.1554   19626652.0554
  21011093.437   -23937436.66549 -18631986.93549  21011093.3134   21011099.5234
  19245355.186   -19364341.31049 -15044998.03649  19245354.8884   19245361.6304
  19404298.962   -31405892.91749 -24447391.79349  19404298.3144   19404304.8484
 97  1 10 18 34 59.9950000  0  7 22  4 19 29 18 14 16
  19922147.807   -24340655.16649 -18949251.47549  19922147.0654   19922153.6344
  23443453.195    -6785729.74049  -5270984.79049  23443452.0164   23443461.1944
  22028438.716   -14280775.50949 -11114354.47949  22028438.0904   22028446.4344
  19624010.540   -12928024.88049 -10065152.34549  19624010.4804   19624015.6114
  20991637.984   -24039675.80249 -18711653.78849  20991637.4424   20991643.6574
  19247597.834   -19352556.36549 -15035815.00849  19247597.6954   19247603.9214
  19394732.283   -31456166.32849 -24486565.89649  19394731.8474   19394738.4164
 97  1 10 18 35 29.9950000  0  7 22  4 19 29 18 14 16
  19922458.623   -24339022.05049 -18947978.92449  19922457.9494   19922464.2164
  23438390.356    -6812334.97049  -5291716.18549  23438391.7594   23438396.9184
  22008472.720   -14385697.38149 -11196111.75049  22008472.3924   22008480.4284
  19621417.800   -12941649.80949 -10075769.18349  19621417.6654   19621422.7984
  20972196.193   -24141843.04849 -18791264.61149  20972195.7214   20972202.2364
  19249944.225   -19340226.18149 -15026207.11649  19249943.8414   19249950.2384
  19385264.239   -31505921.34449 -24525336.05849  19385263.6814   19385270.1994
 97  1 10 18 35 59.9950000  0  7 22  4 19 29 18 14 16
  19922889.933   -24336755.54949 -18946212.82049  19922889.1114   19922895.1514
  23433421.070    -6838449.12149  -5312064.94049  23433421.3804   23433427.9034
  21988541.536   -14490436.05449 -11277726.26849  21988541.5294   21988548.6344
  19618868.464   -12955046.74349 -10086208.36249  19618868.4404   19618873.4234
  20952769.256   -24243932.42249 -18870814.75549  20952768.9304   20952775.0574
  19252396.713   -19327338.17949 -15016164.56449  19252396.6234   19252402.7864
  19375898.537   -31555138.53249 -24563687.13149  19375897.8954   19375904.3844
 97  1 10 18 36 29.9950000  0  7 22  4 19 29 18 14 16
  19923439.205   -24333869.29949 -18943963.78249  19923438.3614   19923444.6894
  23428547.746    -6864058.82249  -5332020.63349  23428548.2244   23428555.7814
  21968646.516   -14594984.93949 -11359192.87749  21968646.2234   21968654.2154
  19616365.970   -12968197.50049 -10096455.72149  19616366.1624   19616371.2174
  20933358.792   -24345935.04749 -18950297.29949  20933358.7174   20933364.8274
  19254955.760   -19313890.54749 -15005685.93149  19254955.8014   19254962.1184
  19366638.444   -31603800.84149 -24601605.82849  19366637.9664   19366644.4114
 97  1 10 18 36 59.9950000  0  7 22  4 19 29 18 14 16
  19924101.438   -24330389.50349 -18941252.24749  19924100.2424   19924106.7704
  23423769.000    -6889172.02949  -5351589.42549  23423768.6324   23423776.0884
  21948788.773   -14699338.16449 -11440507.04549  21948788.4204   21948796.5404
  19613911.319   -12981097.01049 -10106507.30549  19613911.3424   19613916.5414
  20913969.059   -24447828.77549 -19029694.99049  20913968.8014   20913974.7984
  19257621.610   -19299881.71549 -14994770.00049  19257621.6464   19257627.5334
  19357484.962   -31651902.79749 -24639087.88849  19357484.4624   19357490.9714
 97  1 10 18 37 29.9950000  0  7 22  4 19 29 18 14 16
  19924868.694   -24326357.28849 -18938110.25349  19924867.8314   19924874.1904
  23419078.397    -6913821.20549  -5370796.65149  23419079.1894   23419086.4814
  21928966.194   -14803506.52549 -11521677.16349  21928965.9034   21928974.3604
  19611501.388   -12993761.30649 -10116375.60349  19611501.4004   19611506.5904
  20894594.924   -24549640.65049 -19109028.90149  20894594.4734   20894601.0804
  19260390.698   -19285330.27149 -14983431.25549  19260390.3494   19260396.7144
  19348435.990   -31699455.51449 -24676141.97349  19348435.4974   19348442.0554
 97  1 10 18 37 59.9950000  0  7 22  4 19 29 18 14 16
  19925739.532   -24321780.91949 -18934544.22349  19925738.6684   19925745.0794
  23414475.539    -6938009.67349  -5389644.89349  23414475.7864   23414482.5784
  21909182.835   -14907468.84649 -11602686.72449  21909182.7484   21909190.7524
  19609140.851   -13006165.99749 -10126041.61749  19609140.8944   19609145.9774
  20875237.167   -24651366.31249 -19188295.62449  20875236.9944   20875243.2134
  19263264.388   -19270229.11149 -14971664.16649  19263264.1604   19263270.5734
  19339495.381   -31746438.94849 -24712752.46049  19339494.7864   19339501.4054
 97  1 10 18 38 29.9950000  0  7 22  4 19 29 18 14 16
  19926711.391   -24316673.85549 -18930564.66349  19926710.7454   19926716.7514
  23409955.761    -6961762.48849  -5408153.66549  23409956.8044   23409962.9484
  21889437.074   -15011233.44449 -11683542.21549  21889437.1584   21889444.1084
  19606831.260   -13018303.13849 -10135499.14849  19606831.3834   19606836.3324
  20855893.900   -24753016.06649 -19267503.20149  20855893.3954   20855899.6254
  19266238.843   -19254598.16149 -14959484.25549  19266238.6714   19266245.1314
  19330659.734   -31792870.67849 -24748933.04949  19330659.1534   19330665.5634
 97  1 10 18 38 59.9950000  0  7 22  4 19 29 18 14 16
  19927790.101   -24311005.33149 -18926147.61149  19927789.2794   19927795.6714
  23405521.298    -6985065.93849  -5426312.27249  23405522.1844   23405528.0864
  21869731.286   -15114787.82049 -11764233.91349  21869730.9904   21869738.8524
  19604573.339   -13030168.74149 -10144745.10449  19604573.3764   19604578.4354
  20836567.192   -24854578.26049 -19346642.54949  20836566.8854   20836573.1014
  19269313.099   -19238443.22349 -14946896.03949  19269313.0724   19269319.4714
  19321929.228   -31838749.73149 -24784682.98149  19321928.5974   19321935.2624
 97  1 10 18 39 29.9950000  0  7 22  4 19 29 18 14 16
  19928978.256   -24304761.34949 -18921282.14249  19928977.4464   19928983.3294
  23401175.025    -7007904.32749  -5444108.49349  23401175.6134   23401182.7854
  21850065.932   -15218130.14049 -11844760.36249  21850065.0254   21850074.2954
  19602366.680   -13041764.97249 -10153781.13949  19602366.6344   19602371.8024
  20817259.823   -24956039.13949 -19425702.94549  20817259.3514   20817265.4714
  19272484.097   -19221779.80249 -14933911.59449  19272483.7374   19272490.3484
  19313306.124   -31884064.54749 -24819993.24249  19313305.6074   19313311.9554
 97  1 10 18 39 59.9950000  0  7 22  4 19 29 18 14 16
  19930279.520   -24297922.88049 -18915953.43549  19930278.6354   19930285.0384
  23396921.357    -7030256.89549  -5461526.14549  23396921.8884   23396928.6204
  21830441.828   -15321255.18249 -11925117.49649  21830441.6304   21830449.1214
  19600209.910   -13053099.03249 -10162612.88549  19600209.7174   19600214.8264
  20797977.617   -25057367.38249 -19504659.99849  20797976.9104   20797983.0384
  19275752.171   -19204606.13349 -14920529.55249  19275751.7754   19275758.3054
  19304793.610   -31928798.18349 -24854850.63749  19304793.1804   19304799.5004
 97  1 10 18 40 29.9950000  0  7 22  4 19 29 18 14 16
  19931697.123   -24290473.40649 -18910148.62449  19931696.0544   19931702.4954
  23392761.382    -7052118.61349  -5478561.31749  23392761.9084   23392768.8044
  21810855.886   -15424179.84649 -12005318.49149  21810855.2294   21810862.7684
  19598099.471   -13064189.44449 -10171254.78149  19598099.5084   19598104.9154
  20778721.683   -25158557.70749 -19583509.58249  20778721.2714   20778727.0454
  19279117.690   -19186920.44849 -14906748.53449  19279117.6654   19279123.9584
  19296390.669   -31972955.96449 -24889259.31249  19296390.2674   19296396.6814
 97  1 10 18 40 59.9950000  0  7 22  4 19 29 18 14 16
  19933233.658   -24282398.67649 -18903856.60649  19933232.7004   19933239.0404
  23388695.462    -7073485.08049  -5495210.60649  23388696.3324   23388703.7874
  21791307.528   -15526906.89449 -12085365.50549  21791307.1424   21791315.1104
  19596032.737   -13075050.27249 -10179717.78449  19596032.8294   19596037.7954
  20759493.356   -25259603.25949 -19662246.35149  20759493.3324   20759499.3864
  19282585.204   -19168698.81249 -14892549.89849  19282585.2144   19282591.6134
  19288099.079   -32016528.88549 -24923212.25349  19288098.6074   19288104.9654
 97  1 10 18 41 29.9950000  0  7 22  4 19 29 18 14 16
  19934885.675   -24273717.12449 -18897091.74049  19934884.9164   19934890.8894
  23384719.443    -7094380.15849  -5511492.58249  23384719.9754   23384726.9984
  21771793.353   -15629454.44849 -12165272.65549  21771792.6024   21771800.6374
  19594009.802   -13085681.04249 -10188001.52349  19594010.0094   19594014.9644
  20740290.112   -25360516.86049 -19740880.30049  20740289.7664   20740295.7544
  19286158.651   -19149920.31249 -14877917.34549  19286158.4404   19286165.1814
  19279917.783   -32059521.90949 -24956713.32349  19279917.0314   19279923.5624
 97  1 10 18 41 59.9950000  0  7 22  4 19 29 18 14 16
  19936653.499   -24264426.99249 -18889852.65949  19936652.5834   19936658.9844
  23380832.170    -7114808.58149  -5527410.91049  23380832.1774   23380839.8214
  21752314.269   -15731817.54649 -12245036.08549  21752313.7374   21752322.2764
  19592034.376   -13096061.97649 -10196090.58049  19592034.4074   19592039.5404
  20721108.952   -25461314.32249 -19819423.75149  20721108.7754   20721114.5934
  19289840.595   -19130571.86049 -14862840.66949  19289840.4314   19289846.8194
  19271844.846   -32101945.60049 -24989770.76149  19271844.2804   19271850.7284
 97  1 10 18 42 29.9950000  0  7 22  4 19 29 18 14 16
  19938532.337   -24254553.51449 -18882159.01649  19938531.1124   19938537.7754
  23377030.750    -7134785.03849  -5542977.07149  23377032.2174   23377038.3764
  21732868.336   -15834006.61049 -12324663.88649  21732866.9794   21732875.9874
  19590111.175   -13106168.61049 -10203965.90649  19590111.0584   19590116.4114
  20701942.965   -25562032.33949 -19897905.30249  20701942.3244   20701948.7204
  19293628.903   -19110664.42649 -14847328.41849  19293628.5494   19293635.3084
  19263875.870   -32143822.79349 -25022402.35249  19263875.1074   19263881.7214
 97  1 10 18 42 59.9950000  0  7 22  4 19 29 18 14 16
  19940519.749   -24244109.63649 -18874020.92549  19940518.8864   19940525.2804
  23373314.812    -7154313.15449  -5558193.87949  23373314.7014   23373321.7224
  21713459.781   -15935999.05449 -12404138.49949  21713459.0754   21713466.8704
  19588245.203   -13115974.31549 -10211606.73949  19588245.0904   19588250.2064
  20682792.499   -25662668.63249 -19976323.17449  20682791.9114   20682798.3194
  19297522.498   -19090203.56049 -14831384.92749  19297522.2234   19297528.9764
  19256010.268   -32185156.83749 -25054610.71249  19256009.7524   19256016.3494
 97  1 10 18 43 29.9950000  0  7 22  4 19 29 18 14 16
  19942611.072   -24233119.56349 -18865457.22849  19942610.2084   19942616.6014
  23369684.738    -7173390.66649  -5573059.55949  23369683.8254   23369691.7694
  21694091.402   -16037780.53049 -12483448.71449  21694090.9534   21694098.7444
  19586437.224   -13125475.26549 -10219010.08549  19586437.1624   19586442.6064
  20663657.210   -25763225.06049 -20054678.81549  20663657.2684   20663662.7344
  19301516.036   -19069217.45149 -14815032.14949  19301515.8194   19301522.3934
  19248246.223   -32225957.24749 -25086403.24949  19248245.5774   19248252.0224
 97  1 10 18 43 59.9950000  0  7 22  4 19 29 18 14 16
  19944807.306   -24221578.14849 -18856463.91349  19944806.2784   19944812.5864
  23366144.490    -7191996.13449  -5587557.44749  23366145.1944   23366151.6984
  21674766.482   -16139333.38749 -12562580.77349  21674765.7624   21674773.1594
  19584686.334   -13134676.23949 -10226179.69149  19584686.2844   19584691.4714
  20644539.873   -25863687.49949 -20132961.21549  20644539.4434   20644545.3634
  19305606.248   -19047723.43149 -14798283.60049  19305605.9474   19305612.5854
  19240584.103   -32266221.75849 -25117778.20549  19240583.5414   19240589.9514
 97  1 10 18 44 29.9950000  0  7 22  4 19 29 18 14 16
  19947107.981   -24209487.89749 -18847042.93549  19947107.1254   19947113.3134
  23362695.512    -7210120.01949  -5601680.08649  23362695.9924   23362703.1024
  21655485.727   -16240654.05549 -12641531.90749  21655485.2994   21655492.6064
  19582988.885   -13143596.38849 -10233130.47649  19582988.9494   19582994.4104
  20625445.317   -25964030.07849 -20211150.22049  20625444.8824   20625450.7794
  19309794.040   -19025716.40849 -14781135.30549  19309793.8684   19309800.4594
  19233026.152   -32305939.24249 -25148726.90349  19233025.8034   19233032.0714
 97  1 10 18 44 59.9950000  0  7 22  4 19 29 18 14 16
  19949512.784   -24196850.46649 -18837195.58749  19949511.9104   19949518.0794
  23359337.862    -7227765.50249  -5615429.89549  23359338.1074   23359345.6114
  21636247.901   -16341749.02449 -12720307.15449  21636246.6884   21636255.7264
  19581337.397   -13152275.25249 -10239893.24649  19581337.4224   19581342.9164
  20606377.487   -26064231.97049 -20289229.60249  20606377.1824   20606383.4454
  19314079.135   -19003198.35649 -14763588.81749  19314078.9514   19314085.5114
  19225574.352   -32345098.84849 -25179240.89849  19225573.8324   19225580.4344
 97  1 10 18 45 29.9950000  0  7 22  4 19 29 18 14 16
  19952022.792   -24183660.08749 -18826917.35749  19952021.6234   19952028.1784
  23356073.069    -7244921.07149  -5628797.96949  23356072.1084   23356080.9344
  21617049.904   -16442634.76449 -12798919.37349  21617049.4484   21617057.3754
  19579731.651   -13160713.37149 -10246468.42049  19579731.6744   19579736.9494
  20587337.960   -26164285.30549 -20367193.21449  20587337.7834   20587343.4004
  19318463.848   -18980156.65749 -14745634.27549  19318463.4464   19318470.1994
  19218232.778   -32383679.19149 -25209303.51749  19218232.1554   19218238.7854
 97  1 10 18 45 59.9950000  0  7 22  4 19 29 18 14 16
  19954639.113   -24169911.08049 -18816203.84849  19954638.2114   19954644.6914
  23352898.964    -7261602.37249  -5641796.49549  23352899.3744   23352905.0744
  21597886.697   -16543338.12249 -12877389.48249  21597886.7144   21597894.1384
  19578172.123   -13168908.78949 -10252854.47449  19578172.1234   19578177.3434
  20568325.240   -26264197.71849 -20445047.03249  20568324.9454   20568331.6124
  19322948.823   -18956587.93349 -14727269.07549  19322948.5814   19322955.3194
  19211001.095   -32421681.84349 -25238915.99449  19211000.7114   19211007.0374
 97  1 10 18 46 29.9950000  0  7 22  4 19 29 18 14 16
  19957360.646   -24155609.49749 -18805059.75849  19957359.8774   19957365.9774
  23349809.568    -7277836.37649  -5654446.46449  23349809.2034   23349817.2314
  21578755.190   -16643874.73549 -12955729.65949  21578754.4694   21578762.5874
  19576659.323   -13176858.67149 -10259049.20749  19576659.4314   19576664.6324
  20549334.349   -26363995.49049 -20522811.51249  20549334.1124   20549340.2974
  19327534.977   -18932487.65749 -14708489.67749  19327534.5964   19327541.1354
  19203879.132   -32459108.03049 -25268079.27349  19203878.5124   19203885.2074
 97  1 10 18 46 59.9950000  0  7 22  4 19 29 18 14 16
  19960190.930   -24140736.46649 -18793470.38249  19960190.1884   19960196.7874
  23346806.037    -7293622.07749  -5666747.10949  23346806.9924   23346812.2744
  21559657.318   -16744234.55649 -13033932.07549  21559656.5204   21559663.9634
  19575198.476   -13184535.61549 -10265031.25649  19575198.5124   19575203.8004
  20530364.106   -26463684.37549 -20600491.14649  20530363.3954   20530369.7284
  19332223.947   -18907847.02149 -14689289.22749  19332223.8304   19332230.5734
  19196868.108   -32495951.22249 -25296788.26949  19196867.8054   19196874.3684
 97  1 10 18 47 29.9950000  0  7 22  4 19 29 18 14 16
  19963130.565   -24125288.53249 -18781433.04149  19963129.5934   19963136.1064
  23343885.285    -7308971.07149  -5678707.42349  23343885.3044   23343892.1104
  21540593.334   -16844416.39449 -13111995.79849  21540592.8684   21540601.1724
  19573791.401   -13191929.87149 -10270793.02749  19573791.3464   19573796.7134
  20511410.533   -26563285.82149 -20678102.65449  20511409.9764   20511416.1004
  19337013.994   -18882675.43149 -14669675.03549  19337013.9144   19337020.4774
  19189964.285   -32532231.11649 -25325058.33149  19189963.5554   19189970.3754
 97  1 10 18 47 59.9950000  0  7 22  4 19 29 18 14 16
  19966180.606   -24109260.14849 -18768943.41049  19966179.8314   19966186.4664
  23341046.166    -7323890.29049  -5690332.91649  23341047.6194   23341053.9744
  21521565.938   -16944405.55849 -13189909.39549  21521565.2204   21521573.0434
  19572434.191   -13199062.10149 -10276350.62449  19572434.1864   19572439.4404
  20492473.469   -26662800.75149 -20755646.73349  20492473.2264   20492479.2584
  19341902.877   -18856984.42949 -14649656.10949  19341902.6294   19341909.1184
  19183165.387   -32567959.42049 -25352898.58249  19183164.7714   19183171.4414
 97  1 10 18 48 29.9950000  0  7 22  4 19 29 18 14 16
  19969339.459   -24092660.43949 -18756008.58449  19969338.8644   19969345.1144
  23338288.061    -7338385.59549  -5701628.04249  23338288.3594   23338294.9994
  21502576.138   -17044197.32849 -13267669.16149  21502574.9874   21502583.8944
  19571124.983   -13205942.03649 -10281711.62549  19571125.1124   19571130.2294
  20473553.806   -26762224.42449 -20833119.71249  20473553.2944   20473559.4064
  19346886.925   -18830793.08249 -14629247.30349  19346886.8894   19346893.4874
  19176471.812   -32603134.42549 -25380307.69649  19176471.2754   19176477.7524
 97  1 10 18 48 59.9950000  0  7 22  4 19 29 18 14 16
  19972607.439   -24075487.39649 -18742627.00149  19972606.7524   19972613.1384
  23335614.006    -7352437.94149  -5712578.03049  23335614.7504   23335621.0074
  21483626.529   -17143778.34849 -13345264.70149  21483625.9754   21483635.0584
  19569864.127   -13212567.94349 -10286874.66249  19569864.0954   19569869.3484
  20454656.392   -26861531.40349 -20910501.75749  20454656.0564   20454661.9474
  19351963.553   -18804115.33149 -14608459.47749  19351963.5444   19351970.1074
  19169883.349   -32637757.10249 -25407286.42049  19169882.8864   19169889.4404
 97  1 10 18 49 29.9950000  0  7 22  4 19 29 18 14 16
  19975981.302   -24057757.82149 -18728811.75149  19975980.7364   19975986.6194
  23333023.289    -7366052.13249  -5723186.56549  23333023.8544   23333031.7994
  21464716.163   -17243152.76549 -13422699.23349  21464715.5474   21464724.5644
  19568651.073   -13218942.67649 -10291841.98949  19568651.1954   19568656.4744
  20435782.705   -26960713.07449 -20987786.15249  20435782.3224   20435788.1154
  19357129.815   -18776966.48249 -14587304.55449  19357129.7484   19357136.7104
  19163400.724   -32671823.74849 -25433831.87449  19163400.1144   19163406.8024
 97  1 10 18 49 59.9950000  0  7 22  4 19 29 18 14 16
  19979458.641   -24039484.35649 -18714572.70449  19979457.5494   19979464.0724
  23330515.900    -7379228.27049  -5733453.75949  23330515.8204   23330523.8294
  21445845.460   -17342318.89849 -13499971.46549  21445845.0204   21445853.1164
  19567487.963   -13225054.95949 -10296604.81449  19567487.9104   19567493.3194
  20416936.730   -27059749.45549 -21064957.33949  20416936.4394   20416942.0874
  19362386.426   -18749343.07849 -14565779.83749  19362386.2194   19362392.9844
  19157026.360   -32705321.41149 -25459933.96749  19157025.9574   19157032.3404
 97  1 10 18 50 29.9950000  0  7 22  4 19 29 18 14 16
  19983039.060   -24020669.08049 -18699911.47049  19983038.2704   19983044.6734
  23328093.951    -7391955.86749  -5743371.47949  23328095.4464   23328101.6274
  21427017.783   -17441259.12649 -13577067.68549  21427017.6944   21427024.6794
  19566380.642   -13230873.96649 -10301139.11649  19566380.5974   19566385.8844
  20398120.320   -27158630.32249 -21142007.34149  20398120.3254   20398125.8434
  19367735.870   -18721231.67849 -14543874.86549  19367735.6264   19367742.3214
  19150762.233   -32738239.77849 -25485584.65249  19150761.8534   19150768.3924
 97  1 10 18 50 59.9950000  0  7 22  4 19 29 18 14 16
  19986719.593   -24001327.73349 -18684840.31749  19986718.6134   19986725.0884
  23325759.533    -7404223.83149  -5752931.04249  23325758.9834   23325767.3524
  21408231.309   -17539982.31549 -13653994.77349  21408230.6904   21408238.2854
  19565328.448   -13236403.27949 -10305447.67649  19565328.4154   19565333.9304
  20379333.413   -27257356.17649 -21218936.55849  20379332.7524   20379338.9214
  19373180.379   -18692620.80049 -14521580.69049  19373180.4564   19373187.0194
  19144608.557   -32770577.62549 -25510782.98649  19144608.0744   19144614.7234
 97  1 10 18 51 29.9950000  0  7 22  4 19 29 18 14 16
  19990496.264   -23981481.03949 -18669375.38949  19990495.6084   19990501.8744
  23323509.340    -7416049.05649  -5762145.58649  23323510.5104   23323517.8504
  21389483.437   -17638502.81549 -13730763.93449  21389482.9594   21389490.5974
  19564329.173   -13241654.54349 -10309539.59149  19564329.3874   19564334.4284
  20360574.871   -27355932.71149 -21295749.41849  20360574.4984   20360580.4364
  19378722.732   -18663495.48949 -14498885.67249  19378722.6894   19378729.5444
  19138566.618   -32802328.35449 -25535523.82549  19138566.1164   19138572.6974
 97  1 10 18 51 59.9950000  0  7 22  4 19 29 18 14 16
  19994371.072   -23961118.80649 -18653508.72649  19994370.0664   19994376.7614
  23321345.164    -7427421.77049  -5771007.54749  23321345.7384   23321353.0584
  21370774.089   -17736820.76949 -13807375.27949  21370773.4214   21370780.6244
  19563381.763   -13246633.39949 -10313419.22649  19563381.8634   19563387.0604
  20341845.680   -27454355.30649 -21372442.31949  20341845.3244   20341851.0444
  19384365.542   -18633842.47649 -14475779.46449  19384365.4434   19384371.9594
  19132638.396   -32833481.52949 -25559799.03649  19132637.7804   19132644.5204
 97  1 10 18 52 29.9950000  0  7 22  4 19 29 18 14 16
  19998344.395   -23940239.02649 -18637238.78449  19998343.5754   19998349.7974
  23319267.823    -7438338.73449  -5779514.34849  23319269.9154   23319275.6884
  21352100.325   -17834951.51649 -13883840.76049  21352099.4694   21352107.6654
  19562485.197   -13251344.90049 -10317090.52949  19562485.1234   19562490.6214
  20323146.045   -27552622.61749 -21449014.21149  20323145.8594   20323151.6814
  19390108.339   -18603664.21849 -14452263.97749  19390108.1774   19390114.5724
  19126824.835   -32864032.11549 -25583604.69649  19126824.2054   19126830.9414
 97  1 10 18 52 59.9950000  0  7 22  4 19 29 18 14 16
  20002416.361   -23918840.87049 -18620564.90949  20002415.6264   20002421.9364
  23317272.448    -7448825.15649  -5787685.70149  23317272.0384   23317281.3934
  21333457.333   -17932920.88249 -13960180.45249  21333457.0854   21333465.2844
  19561638.339   -13255795.10049 -10320558.22549  19561638.2404   19561643.6714
  20304474.079   -27650744.59849 -21525472.85649  20304473.7354   20304479.1294
  19395950.422   -18572963.65949 -14428341.49649  19395950.2634   19395956.7744
  19121123.890   -32893990.77749 -25606949.11449  19121123.5024   19121129.9944
 97  1 10 18 53 29.9950000  0  7 22  4 19 29 18 14 16
  20006592.567   -23896894.88049 -18603464.15449  20006591.9754   20006598.2904
  23315358.084    -7458884.52949  -5795524.26449  23315358.5534   23315365.5924
  21314850.075   -18030702.66549 -14036374.00549  21314850.3164   21314857.3424
  19560844.887   -13259964.78749 -10323807.34549  19560844.9894   19560850.1904
  20285828.610   -27748727.04649 -21601822.77549  20285828.0234   20285833.7194
  19401891.601   -18541742.74049 -14404013.53649  19401891.3404   19401898.0934
  19115534.809   -32923361.79349 -25629835.63549  19115534.4414   19115540.9034
 97  1 10 18 53 59.9950000  0  7 22  4 19 29 18 14 16
  20010876.772   -23874381.32249 -18585921.13749  20010876.0994   20010882.6004
  23313525.766    -7468514.04549  -5803027.87949  23313526.9114   23313532.9124
  21296280.412   -18128287.08749 -14112413.76649  21296280.0924   21296287.2694
  19560108.083   -13263836.74249 -10326824.46649  19560108.1294   19560113.5574
  20267208.906   -27846573.95149 -21678067.08049  20267208.4544   20267214.0444
  19407928.923   -18510016.61749 -14379291.90549  19407928.9804   19407935.2074
  19110055.768   -32952154.43249 -25652271.46649  19110055.1944   19110061.7914
 97  1 10 18 54 29.9950000  0  7 22  4 19 29 18 14 16
  20015265.906   -23851316.10049 -18567948.25549  20015265.0004   20015271.6944
  23311770.764    -7477737.77049  -5810215.28549  23311770.8174   23311778.1114
  21277747.596   -18225677.27049 -14188302.16949  21277746.9824   21277754.5904
  19559427.396   -13267413.82549 -10329611.81149  19559427.2704   19559432.7814
  20248610.491   -27944308.95749 -21754224.18549  20248609.8394   20248615.7094
  19414059.173   -18477802.07349 -14354189.69349  19414059.1374   19414065.5764
  19104680.951   -32980399.54549 -25674280.65749  19104680.3654   19104686.9464
 97  1 10 18 54 59.9950000  0  7 22  4 19 29 18 14 16
  20019760.492   -23827696.95649 -18549543.74049  20019759.6394   20019766.4724
  23310093.460    -7486552.76449  -5817084.22049  23310092.5194   23310102.4144
  21259255.912   -18322851.65049 -14264022.39949  21259255.9034   21259263.6744
  19558801.705   -13270701.93949 -10332173.99949  19558801.6334   19558807.1064
  20230033.400   -28041931.92649 -21830293.98749  20230033.0204   20230038.9814
  19420282.335   -18445099.34249 -14328707.06949  19420282.3484   19420288.8304
  19099408.964   -33008104.01249 -25695868.56549  19099408.4254   19099414.9994
 97  1 10 18 55 29.9950000  0  7 22  4 19 29 18 14 16
  20024360.775   -23803522.43849 -18530706.47349  20024359.8344   20024366.1534
  23308497.716    -7494938.90149  -5823618.95149  23308497.6834   23308506.0354
  21240807.204   -18419800.27149 -14339566.72349  21240806.6764   21240814.1724
  19558230.114   -13273705.61549 -10334514.54749  19558230.2294   19558235.6174
  20211481.697   -28139421.72549 -21906260.02249  20211481.2334   20211486.8464
  19426598.467   -18411907.96249 -14302843.69849  19426598.4964   19426605.2224
  19094244.693   -33035242.49249 -25717015.44549  19094244.0204   19094250.6674
 97  1 10 18 55 59.9950000  0  7 22  4 19 29 18 14 16
  20029066.340   -23778794.77349 -18511438.18349  20029065.6464   20029071.6174
  23306986.577    -7502880.31549  -5829807.18049  23306986.0694   23306993.8554
  21222401.500   -18516522.48849 -14414934.64449  21222400.7984   21222409.6624
  19557713.729   -13276419.45749 -10336629.25949  19557713.5074   19557719.1114
  20192961.444   -28236746.34749 -21982097.35849  20192960.6844   20192966.8734
  19433011.186   -18378209.16249 -14276584.93849  19433010.8174   19433017.7444
  19089193.617   -33061786.13849 -25737698.82449  19089193.3564   19089199.8814
 97  1 10 18 56 29.9950000  0  7 22  4 19 29 18 14 16
  20033872.822   -23753536.65049 -18491756.53849  20033872.1594   20033878.6214
  23305559.260    -7510380.33649  -5835651.43649  23305559.3274   23305568.1094
  21204036.209   -18613032.17949 -14490136.94549  21204035.3024   21204043.0664
  19557248.644   -13278863.61049 -10338533.79949  19557248.4994   19557254.1964
  20174471.976   -28333908.91549 -22057808.41449  20174471.2544   20174477.0784
  19439519.195   -18344009.52049 -14249935.89449  19439519.0414   19439525.5414
  19084255.579   -33087735.97049 -25757919.48849  19084254.9954   19084261.7294
 97  1 10 18 56 59.9950000  0  7 22  4 19 29 18 14 16
  20038781.139   -23727743.17249 -18471657.73649  20038780.1814   20038786.6854
  23304217.216    -7517433.82749  -5841147.75949  23304217.2464   23304225.4154
  21185710.841   -18709332.45549 -14565176.07149  21185710.5484   21185717.9764
  19556836.040   -13281031.81149 -10340223.33649  19556835.9544   19556841.3284
  20156017.015   -28430890.20949 -22133378.22949  20156016.5104   20156022.3564
  19446121.745   -18309313.21949 -14222899.84749  19446121.5504   19446128.3114
  19079434.203   -33113072.28249 -25777662.09549  19079433.6434   19079440.3844
 97  1 10 18 57 29.9950000  0  7 22  4 19 29 18 14 16
  20043786.640   -23701439.01449 -18451160.99949  20043785.6664   20043792.3204
  23302957.176    -7524055.53849  -5846307.59349  23302956.3794   23302965.6894
  21167423.004   -18805435.50549 -14640061.50449  21167423.4184   21167429.8764
  19556476.910   -13282919.10149 -10341693.97849  19556477.0134   19556482.4484
  20137591.976   -28527714.41949 -22208825.63849  20137591.7454   20137597.6874
  19452815.181   -18274138.97249 -14195491.37749  19452814.8374   19452821.7534
  19074726.818   -33137809.77749 -25796938.08249  19074726.0924   19074733.1324
 97  1 10 18 57 59.9950000  0  7 22  4 19 29 18 14 16
  20048887.041   -23674636.23849 -18430275.71549  20048886.5454   20048892.7364
  23301778.253    -7530250.70449  -5851135.08249  23301779.9634   23301786.7864
  21149173.863   -18901335.01949 -14714788.34849  21149173.4624   21149180.8944
  19556173.554   -13284513.24149 -10342936.18949  19556173.6534   19556178.9554
  20119194.497   -28624393.51649 -22284159.97149  20119194.3824   20119199.8084
  19459598.419   -18238493.13949 -14167715.42149  19459598.4204   19459604.7604
  19070129.792   -33161967.27749 -25815762.12849  19070129.1644   19070136.0274
 97  1 10 18 58 29.9950000  0  7 22  4 19 29 18 14 16
  20054082.923   -23647332.06349 -18408999.73449  20054082.1284   20054088.7794
  23300679.979    -7536022.86149  -5855632.92849  23300680.9244   23300686.9484
  21130965.145   -18997022.47349 -14789349.95549  21130964.8474   21130972.5914
  19555927.688   -13285805.77549 -10343943.40149  19555927.9434   19555933.0914
  20100823.963   -28720931.60449 -22359384.43849  20100823.5794   20100829.2574
  19466470.349   -18202381.16149 -14139576.24949  19466470.0234   19466476.5634
  19065641.317   -33185554.56349 -25834141.85949  19065640.8224   19065647.4834
 97  1 10 18 58 59.9950000  0  7 22  4 19 29 18 14 16
  20059374.352   -23619525.50849 -18387332.28249  20059373.7354   20059380.0334
  23299661.459    -7541375.38249  -5859803.75749  23299662.3194   23299668.2654
  21112796.650   -19092498.02549 -14863746.45749  21112796.3154   21112803.8584
  19555738.755   -13286798.61149 -10344717.08249  19555738.8044   19555744.3044
  20082479.057   -28817334.62449 -22434503.65049  20082478.7394   20082484.3654
  19473431.982   -18165797.77749 -14111069.74149  19473431.7744   19473438.5714
  19061260.275   -33208577.03049 -25852081.46249  19061259.6854   19061266.5504
 97  1 10 18 59 29.9950000  0  7 22  4 19 29 18 14 16
  20064760.613   -23591220.57149 -18365276.49249  20064759.4764   20064766.5814
  23298725.568    -7546294.38449  -5863636.83349  23298726.3074   23298734.7894
  21094668.696   -19187760.97549 -14937977.29149  21094668.3454   21094675.6574
  19555605.106   -13287501.09949 -10345264.50049  19555605.0964   19555610.5484
  20064159.249   -28913605.66949 -22509520.04149  20064158.9324   20064164.8694
  19480486.527   -18128726.01949 -14082182.69049  19480486.5804   19480493.2744
  19056986.149   -33231037.59149 -25869583.22249  19056985.5434   19056992.3344
 97  1 10 18 59 59.9950000  0  7 22  4 19 29 18 14 16
  20070242.532   -23562412.86149 -18342828.92749  20070241.9014   20070248.2514
  23297870.280    -7550789.92849  -5867139.89749  23297869.4414   23297878.8354
  21076578.176   -19282827.33449 -15012054.94649  21076577.4594   21076586.0824
  19555522.817   -13287933.26949 -10345601.27449  19555522.5034   19555528.0734
  20045866.758   -29009733.16149 -22584424.57349  20045866.3164   20045872.1194
  19487632.350   -18091174.65049 -14052921.91149  19487632.2834   19487638.9234
  19052818.324   -33252939.94449 -25886650.01249  19052817.8594   19052824.6584
 97  1 10 19  0 29.9940000  0  7 22  4 19 29 18 14 16
  20075824.671   -23533078.81949 -18319971.22349  20075824.1264   20075830.3824
  23297097.680    -7554850.04949  -5870303.70449  23297097.9854   23297106.0414
  21058525.626   -19377693.66549 -15085976.73449  21058525.5464   21058532.6674
  19555493.525   -13288087.02449 -10345721.10049  19555493.2744   19555499.0724
  20027606.422   -29105691.85049 -22659197.56749  20027605.8674   20027612.0254
  19494871.292   -18053133.95449 -14023279.85049  19494870.9524   19494877.7024
  19048760.616   -33274263.53849 -25903265.82149  19048759.9884   19048766.8064
 97  1 10 19  0 59.9940000  0  7 22  4 19 29 18 14 16
  20081504.362   -23503231.93749 -18296713.91549  20081503.6044   20081509.6874
  23296405.760    -7558486.48049  -5873137.35549  23296404.1454   23296412.9724
  21040507.092   -19472381.82349 -15159759.67349  21040506.7004   21040513.6574
  19555514.731   -13287975.60049 -10345634.31049  19555514.7394   19555520.3304
  20009376.126   -29201492.50149 -22733847.43249  20009375.7874   20009381.5324
  19502201.135   -18014615.60049 -13993265.58949  19502200.8774   19502207.3674
  19044812.234   -33295012.33749 -25919433.74549  19044811.6014   19044818.5064
 97  1 10 19  1 29.9940000  0  6 22 19 29 18 14 16
  20087280.982   -23472875.81549 -18273059.78649  20087279.9454   20087286.3864
  21022523.467   -19566886.37449 -15233399.54449  21022522.8404   21022530.0374
  19555588.716   -13287586.94949 -10345331.48749  19555588.6984   19555594.2834
  19991177.003   -29297129.56949 -22808369.82649  19991176.5264   19991182.5974
  19509618.276   -17975638.22049 -13962893.63549  19509618.0424   19509624.9384
  19040974.590   -33315179.43349 -25935148.38449  19040974.0484   19040980.9584
 97  1 10 19  1 59.9940000  0  6 22 19 29 18 14 16
  20093157.881   -23441992.63049 -18248994.96349  20093157.4674   20093163.6154
  21004578.746   -19661186.17049 -15306879.85449  21004578.3134   21004586.4514
  19555720.760   -13286893.09449 -10344790.84249  19555720.9364   19555726.3384
  19973012.363   -29392585.35849 -22882750.97449  19973011.9824   19973017.6884
  19517121.350   -17936209.25749 -13932169.81049  19517121.2184   19517127.9994
  19037248.431   -33334760.78149 -25950406.60249  19037248.0474   19037254.7444
 97  1 10 19  2 29.9940000  0  6 22 19 29 18 14 16
  20099131.239   -23410602.44149 -18224535.08249  20099130.2324   20099136.8414
  20986670.853   -19755292.52849 -15380209.44349  20986670.3604   20986678.1114
  19555908.443   -13285906.88349 -10344022.38449  19555908.6364   19555914.1154
  19954877.465   -29487884.84149 -22957010.32249  19954877.0564   19954882.9514
  19524707.799   -17896342.46149 -13901104.80749  19524707.7364   19524714.3254
  19033630.951   -33353770.95449 -25965219.74449  19033630.4524   19033637.1874
 97  1 10 19  2 59.9940000  0  6 22 19 29 18 14 16
  20105200.090   -23378710.38749 -18199684.14449  20105199.2904   20105205.4694
  20968806.235   -19849171.59749 -15453361.89949  20968805.5484   20968813.0514
  19556152.536   -13284624.39649 -10343023.06249  19556152.7574   19556158.0134
  19936775.113   -29583013.61649 -23031136.66449  19936774.9584   19936780.5404
  19532379.607   -17856026.88649 -13869690.11349  19532379.4554   19532386.4314
  19030121.925   -33372211.01649 -25979588.65049  19030121.2614   19030128.0884
 97  1 10 19  3 29.9940000  0  7 22 19 29  3 18 14 16
  20111365.973   -23346308.57149 -18174435.98649  20111365.2724   20111371.3474
  20950986.807   -19942813.00649 -15526329.16049  20950985.8244   20950993.7254
  19556454.857   -13283035.83649 -10341785.25349  19556455.0084   19556460.5134
  23208378.913    -7757221.25549  -6029988.54349  23208377.9144   23208391.2844
  19918709.067   -29677951.46249 -23105114.22249  19918708.5354   19918714.2284
  19540140.072   -17815245.38049 -13837912.36649  19540139.7034   19540146.6674
  19026721.688   -33390079.40249 -25993512.09149  19026721.1954   19026727.9004
 97  1 10 19  3 59.9940000  0  7 22 19 29  3 18 14 16
  20117623.117   -23313427.07449 -18148814.05549  20117622.4204   20117628.5744
  20933209.455   -20036233.47849 -15599124.29049  20933209.1214   20933216.6324
  19556808.927   -13281175.38249 -10340335.58449  19556809.1834   19556814.6584
  23189483.641    -7856516.86549  -6107361.46549  23189483.1054   23189494.0274
  19900677.142   -29772709.93749 -23178952.01749  19900677.0984   19900682.4964
  19547985.846   -17774015.46749 -13805785.22349  19547985.6614   19547992.6804
  19023425.668   -33407400.52549 -26007009.10149  19023425.1274   19023431.9474
 97  1 10 19  4 29.9940000  0  7 22 19 29  3 18 14 16
  20123967.113   -23280089.17249 -18122836.48449  20123966.3884   20123972.5594
  20915474.245   -20129432.44249 -15671746.81849  20915474.2984   20915481.2884
  19557213.289   -13279050.85049 -10338680.13249  19557213.5734   19557218.9884
  23170602.647    -7955737.64449  -6184676.08349  23170602.2364   23170613.0814
  19882678.915   -29867291.57349 -23252652.01749  19882678.6684   19882684.4064
  19555919.395   -17732324.47449 -13773298.79849  19555919.2494   19555926.1974
  19020238.966   -33424146.84849 -26020058.20749  19020238.3634   19020245.3664
 97  1 10 19  4 59.9940000  0  7 22 19 29  3 18 14 16
  20130397.572   -23246297.03449 -18096504.96349  20130396.9364   20130402.9854
  20897780.258   -20222414.59449 -15744200.40249  20897780.2184   20897787.3424
  19557672.090   -13276639.97449 -10336801.55449  19557672.2854   19557677.7654
  23151736.114    -8054881.13049  -6261930.52349  23151735.6974   23151746.0364
  19864717.223   -29961681.10449 -23326202.32149  19864716.7234   19864722.4374
  19563942.749   -17690161.74549 -13740444.78649  19563942.6244   19563949.7354
  19017164.892   -33440301.31449 -26032646.12949  19017164.3514   19017171.2924
 97  1 10 19  5 29.9940000  0  7 22 19 29  3 18 14 16
  20136912.571   -23212060.34349 -18069827.03449  20136912.0264   20136918.2954
  20880121.141   -20315214.02049 -15816511.58349  20880120.6434   20880127.9944
  19558183.792   -13273951.02149 -10334706.28749  19558183.8514   19558189.4854
  23132885.147    -8153943.21049  -6339121.53249  23132884.3274   23132895.1324
  19846786.193   -30055909.20949 -23399626.83449  19846785.7164   19846791.3014
  19572052.630   -17647544.45849 -13707236.55349  19572052.6704   19572059.8054
  19014204.784   -33455856.78649 -26044767.30049  19014204.3504   19014211.0824
 97  1 10 19  5 59.9940000  0  7 22 19 29  3 18 14 16
  20143512.642   -23177376.92449 -18042801.01949  20143511.8674   20143518.3944
  20862498.169   -20407822.98449 -15888674.37149  20862497.3444   20862505.0164
  19558750.866   -13270971.12049 -10332384.30849  19558750.8494   19558756.5784
  23114050.272    -8252920.49349  -6416246.53349  23114048.3074   23114060.5134
  19828883.044   -30149991.05249 -23472937.38049  19828882.8004   19828888.4414
  19580248.795   -17604473.66349 -13673674.92449  19580248.5464   19580255.7404
  19011360.959   -33470801.56349 -26056412.60649  19011360.3394   19011367.2474
 97  1 10 19  6 29.9940000  0  7 22 19 29  3 18 14 16
  20150201.440   -23142227.02749 -18015411.51449  20150200.6864   20150207.0974
  20844909.388   -20500252.39749 -15960697.25849  20844909.3004   20844916.7754
  19559376.163   -13267685.29749 -10329823.94749  19559376.1564   19559381.6904
  23095232.405    -8351807.58149  -6493301.19949  23095231.2044   23095244.2364
  19811009.322   -30243918.21449 -23546127.38949  19811009.1744   19811014.4174
  19588532.601   -17560941.87649 -13639754.06549  19588532.2314   19588539.4044
  19008632.939   -33485137.57349 -26067583.54749  19008632.1684   19008639.2284
 97  1 10 19  6 59.9940000  0  7 22 19 29  3 18 14 16
  20156986.409   -23106571.60649 -17987628.09349  20156985.4994   20156992.1824
  20827357.631   -20592487.51249 -16032568.73649  20827357.2314   20827364.4384
  19560062.261   -13264080.12649 -10327014.74649  19560062.5304   19560068.0524
  23076434.334    -8450591.33849  -6570275.43549  23076433.9474   23076444.3174
  19793169.640   -30337666.33049 -23619177.88649  19793169.6044   19793175.0314
  19596904.965   -17516945.00049 -13605470.78249  19596904.8054   19596911.8284
  19006015.338   -33498893.29649 -26078302.30849  19006014.6504   19006021.6664
 97  1 10 19  7 29.9940000  0  7 22 19 29  3 18 14 16
  20163873.368   -23070380.67749 -17959427.39349  20163872.5124   20163878.9904
  20809850.494   -20684488.04149 -16104257.42149  20809850.1314   20809857.4054
  19560810.278   -13260149.38049 -10323951.85249  19560810.3034   19560815.8484
  23057660.023    -8549250.64549  -6647152.70749  23057660.0744   23057669.4234
  19775368.408   -30431212.59649 -23692071.08949  19775368.2274   19775373.9134
  19605369.250   -17472465.14649 -13570811.15649  19605369.0554   19605376.2294
  19003509.672   -33512060.53849 -26088562.50849  19003509.1044   19003516.0904
 97  1 10 19  7 59.9940000  0  7 22 19 29  3 18 14 16
  20170856.001   -23033686.78449 -17930834.77549  20170855.4274   20170861.8294
  20792382.228   -20776284.27649 -16175786.93049  20792381.7644   20792388.6894
  19561614.251   -13255924.49149 -10320659.75749  19561614.1664   19561619.9794
  23038899.922    -8647835.79549  -6723972.28449  23038899.2724   23038910.8844
  19757602.491   -30524573.08049 -23764819.52449  19757602.1974   19757607.9154
  19613917.707   -17427542.75149 -13535806.70549  19613917.3984   19613924.6204
  19001106.638   -33524688.57849 -26098402.55049  19001106.0884   19001112.9214
 97  1 10 19  8 29.9940000  0  7 22 19 29  3 18 14 16
  20177930.757   -22996508.76049 -17901864.90749  20177929.8104   20177936.4144
  20774950.854   -20867886.46749 -16247165.22449  20774950.7814   20774958.0194
  19562470.477   -13251425.02449 -10317153.69349  19562470.3444   19562476.0314
  23020150.365    -8746365.19349  -6800748.45349  23020149.3224   23020161.2274
  19739871.930   -30617747.73649 -23837423.15349  19739871.8114   19739877.3994
  19622546.725   -17382196.96249 -13500472.34049  19622546.7444   19622553.5464
  18998802.236   -33536798.24949 -26107838.66349  18998801.7934   18998808.6514
 97  1 10 19  8 59.9940000  0  7 22 19 29  3 18 14 16
  20185094.187   -22958864.70749 -17872531.90849  20185093.5314   20185100.0604
  20757559.643   -20959277.70349 -16318379.14049  20757559.3114   20757565.8424
  19563379.723   -13246646.94749 -10313430.52949  19563379.7044   19563385.2394
  23001412.244    -8844834.26649  -6877477.59949  23001411.7544   23001423.2174
  19722174.575   -30710747.97949 -23909890.87449  19722173.8934   19722179.7624
  19631255.658   -17336431.32349 -13464810.83049  19631255.4154   19631262.1024
  18996600.164   -33548370.39649 -26116855.92349  18996599.5784   18996606.4914
 97  1 10 19  9 29.9940000  0  7 22 19 29  3 18 14 16
  20192347.804   -22920746.90749 -17842829.76549  20192346.7694   20192353.5494
  20740212.353   -21050438.14449 -16389413.22449  20740211.5804   20740218.6254
  19564349.225   -13241552.40349 -10309460.78249  19564349.2634   19564355.0314
  22982691.614    -8943211.37249  -6954135.12849  22982691.6044   22982700.7914
  19704515.002   -30803549.41849 -23982203.67949  19704514.8584   19704520.5214
  19640047.660   -17290229.03849 -13428809.08749  19640047.3384   19640054.2504
  18994512.424   -33559341.63549 -26125404.94849  18994511.8234   18994518.6574
 97  1 10 19  9 59.9940000  0  7 22 19 29  3 18 14 16
  20199686.091   -22882183.85549 -17812780.66149  20199685.1494   20199692.1314
  20722903.305   -21141397.37049 -16460290.49649  20722902.9434   20722910.8234
  19565375.920   -13236157.12249 -10305256.69649  19565375.6924   19565381.5614
  22963986.544    -9041507.40149  -7030729.53449  22963987.6424   22963998.1374
  19686889.828   -30896170.19649 -24054375.69949  19686889.6104   19686895.1354
  19648916.718   -17243621.96549 -13392491.90949  19648916.8484   19648923.4904
  18992535.326   -33569731.34049 -26133500.82149  18992534.7524   18992541.6704
 97  1 10 19 10 29.9940000  0  7 22 19 29  3 18 14 16
  20207110.801   -22843166.80449 -17782377.79349  20207109.8094   20207116.1494
  20705633.621   -21232150.40549 -16531007.11449  20705633.6384   20705640.2624
  19566460.025   -13230460.04149 -10300817.45849  19566459.7724   19566465.7984
  22945303.716    -9139686.12849  -7107232.46349  22945305.2364   22945315.3274
  19669301.039   -30988600.07349 -24126398.96049  19669300.7264   19669306.3624
  19657863.655   -17196605.81049 -13355855.97449  19657863.4044   19657870.2314
  18990671.196   -33579527.45949 -26141134.16449  18990670.6124   18990677.5384
 97  1 10 19 10 59.9940000  0  7 22 19 29  3 18 14 16
  20214622.905   -22803690.49349 -17751617.06249  20214622.3984   20214628.7004
  20688399.031   -21322718.61949 -16601579.71149  20688398.2104   20688405.4084
  19567601.103   -13224463.73849 -10296145.03449  19567600.8424   19567606.6584
  22926644.887    -9237738.47149  -7183637.04749  22926646.2734   22926655.2654
  19651748.407   -31080839.90049 -24198274.13049  19651747.7884   19651753.7174
  19666886.771   -17149189.04049 -13318907.86449  19666886.4684   19666893.1954
  18988919.695   -33588732.05349 -26148306.57649  18988919.1954   18988925.9724
 97  1 10 19 11 29.9940000  0  7 22 19 29  3 18 14 16
  20222225.048   -22763741.26749 -17720487.82849  20222224.3854   20222230.7414
  20671198.507   -21413107.90349 -16672012.89649  20671197.7084   20671204.9924
  19568799.107   -13218168.27549 -10291239.50349  19568799.1724   19568804.9374
  22908011.773    -9335656.61849  -7259936.90049  22908012.2834   22908022.8074
  19634233.834   -31172879.68349 -24269993.41149  19634233.4634   19634239.0984
  19675986.051   -17101371.82649 -13281647.72749  19675985.6794   19675992.7824
  18987277.495   -33597361.72949 -26155030.99849  18987276.9024   18987283.7104
 97  1 10 19 11 59.9940000  0  7 22 19 29  3 18 14 16
  20229918.769   -22723310.62749 -17688983.47549  20229917.9294   20229924.7664
  20654034.823   -21503303.64749 -16742295.26049  20654035.0994   20654042.0634
  19570054.366   -13211571.99149 -10286099.57549  19570054.5234   19570060.1294
  22889408.408    -9433418.47949  -7336115.00149  22889408.4524   22889420.8734
  19616760.361   -31264703.45349 -24341544.37249  19616760.0604   19616766.1084
  19685166.990   -17053125.67649 -13244053.35149  19685167.0024   19685173.7094
  18985743.851   -33605421.00249 -26161310.95149  18985743.2534   18985750.1044
 97  1 10 19 12 29.9940000  0  7 22 19 29  3 18 14 16
  20237698.959   -22682425.65849 -17657125.09749  20237698.4134   20237704.6894
  20636906.288   -21593314.98149 -16812433.91649  20636905.8274   20636912.7094
  19571364.661   -13204686.46449 -10280734.25249  19571364.3164   19571370.4904
  22870833.128    -9531032.63949  -7412178.01749  22870833.0724   22870843.9654
  19599324.207   -31356330.98849 -24412942.41749  19599323.7114   19599329.7444
  19694429.291   -17004452.41249 -13206126.17149  19694429.2104   19694436.0304
  18984318.209   -33612912.98149 -26167148.85849  18984318.0404   18984324.4634
 97  1 10 19 12 59.9940000  0  7 22 19 29  3 18 14 16
  20245561.018   -22641110.34649 -17624931.37849  20245560.1404   20245566.9684
  20619815.011   -21683130.30949 -16882419.84549  20619814.8694   20619821.9134
  19572730.383   -13197509.60349 -10275141.91149  19572730.3814   19572736.0004
  22852283.940    -9628509.48349  -7488133.98349  22852283.3234   22852295.4024
  19581924.027   -31447769.34149 -24484193.04949  19581923.6664   19581929.2924
  19703773.902   -16955346.24049 -13167861.65449  19703773.7714   19703780.4034
  18983000.477   -33619837.97649 -26172544.95549  18982999.9434   18983006.6024
 97  1 10 19 13 29.9940000  0  7 22 19 29  3 18 14 16
  20253505.978   -22599359.31249 -17592398.13349  20253504.9704   20253511.5894
  20602769.360   -21772705.84749 -16952218.92449  20602768.8804   20602775.7254
  19574154.648   -13190025.27449 -10269309.97349  19574154.6954   19574160.3804
  22833764.462    -9725829.68849  -7563967.82149  22833764.4844   22833775.8404
  19564564.719   -31538993.08549 -24555276.44549  19564564.2744   19564569.8904
  19713205.857   -16905780.93749 -13129239.37149  19713205.6624   19713212.5704
  18981796.463   -33626165.11349 -26177475.19049  18981795.7364   18981802.6884
 97  1 10 19 13 59.9940000  0  7 22 19 29  3 18 14 16
  20261526.195   -22557212.73849 -17559556.67249  20261525.1684   20261531.8494
  20585764.771   -21862065.26049 -17021849.58949  20585764.5924   20585771.5544
  19575630.836   -13182267.68549 -10263265.11949  19575630.9334   19575636.3934
  22815269.327    -9823021.27449  -7639701.43949  22815268.6384   22815282.3224
  19547242.439   -31630022.18849 -24626208.17949  19547242.0564   19547247.7954
  19722720.562   -16855781.07349 -13090278.47449  19722720.1154   19722727.2964
  18980703.709   -33631907.53949 -26181949.81049  18980703.1434   18980709.7644
 97  1 10 19 14 29.9940000  0  7 22 19 29  3 18 14 16
  20269621.337   -22514672.49249 -17526408.44249  20269620.9134   20269627.3814
  20568798.672   -21951222.65049 -17091322.83649  20568798.6774   20568804.7864
  19577157.541   -13174245.16449 -10257013.83749  19577157.4764   19577163.2914
  22796794.118    -9920108.32849  -7715353.49349  22796793.6884   22796805.3454
  19529954.558   -31720870.68449 -24696999.17649  19529954.1944   19529959.8184
  19732312.052   -16805377.41649 -13051002.92949  19732311.6154   19732318.8324
  18979720.356   -33637075.01049 -26185976.41349  18979719.8534   18979726.6874
 97  1 10 19 14 59.9940000  0  7 22 19 29  3 18 14 16
  20277800.099   -22471692.87349 -17492917.83949  20277799.3124   20277806.1514
  20551876.762   -22040147.46449 -17160614.85949  20551876.3224   20551883.5094
  19578739.740   -13165930.62249 -10250534.98649  19578739.6614   19578745.4934
  22778344.250   -10017062.49949  -7790902.03549  22778342.6624   22778354.9664
  19512709.446   -31811494.30449 -24767614.94449  19512708.9034   19512714.7054
  19741983.284   -16754555.00949 -13011401.08049  19741983.4894   19741990.2024
  18978848.603   -33641656.14849 -26189546.13949  18978848.0874   18978854.8714
 97  1 10 19 15 29.9940000  0  7 22 19 29  3 18 14 16
  20286065.925   -22428255.86549 -17459070.83049  20286065.1894   20286071.8114
  20534997.768   -22128846.90749 -17229731.26049  20534997.1074   20535004.4374
  19580377.867   -13157322.31149 -10243827.25049  19580377.8764   19580383.6234
  22759918.745   -10113887.69549  -7866349.95349  22759917.5074   22759929.3874
  19495507.447   -31901891.27149 -24838054.09849  19495506.8114   19495512.6764
  19751731.544   -16703327.77449 -12971483.79149  19751731.3914   19751738.4124
  18978086.552   -33645660.61249 -26192666.51249  18978085.8354   18978092.6884
 97  1 10 19 15 59.9940000  0  7 22 19 29  3 18 14 16
  20294421.712   -22384346.12249 -17424855.45349  20294420.7954   20294427.5284
  20518160.393   -22217327.64449 -17298677.25649  20518160.2534   20518167.3484
  19582076.053   -13148398.20649 -10236873.43249  19582075.9614   19582081.8424
  22741518.361   -10210580.10349  -7941694.39249  22741516.4864   22741528.2364
  19478347.693   -31992066.33649 -24908320.34849  19478347.1414   19478353.1154
  19761555.318   -16651703.38349 -12931257.02649  19761555.2004   19761562.3514
  18977431.775   -33649101.30749 -26195347.59649  18977431.2084   18977438.0534
 97  1 10 19 16 29.9940000  0  7 22 19 29  3 18 14 16
  20302867.407   -22339963.99049 -17390271.98149  20302866.7584   20302873.2444
  20501365.354   -22305586.23849 -17367450.15749  20501364.9804   20501371.9344
  19583836.658   -13139146.12749 -10229664.03849  19583836.9424   19583842.4764
  22723143.642   -10307138.90749  -8016934.70749  22723143.5854   22723155.8144
  19461228.696   -32082026.96549 -24978419.50349  19461228.1824   19461234.0214
  19771452.933   -16599691.40849 -12890728.24949  19771452.7584   19771459.8904
  18976880.196   -33652000.04849 -26197606.37949  18976879.6204   18976886.3884
 97  1 10 19 16 59.9940000  0  7 22 19 29  3 18 14 16
  20311400.031   -22295124.49449 -17355332.11949  20311399.2114   20311405.8344
  20484611.676   -22393627.10249 -17436053.39449  20484611.1094   20484618.1284
  19585661.316   -13129557.75349 -10222192.60649  19585661.5394   19585667.2824
  22704797.166   -10403549.89749  -8092059.86549  22704797.7564   22704808.9684
  19444150.900   -32171771.17249 -25048350.01949  19444150.5654   19444156.1544
  19781423.603   -16547295.26849 -12849900.12349  19781423.7054   19781430.6304
  18976432.711   -33654351.67549 -26199438.84349  18976432.2694   18976438.8204
 97  1 10 19 17 29.9940000  0  7 22 19 29  3 18 14 16
  20320015.900   -22249847.89849 -17320051.66149  20320015.0964   20320021.4104
  20467895.693   -22481470.15049 -17504502.49149  20467894.6214   20467902.4174
  19587549.645   -13119634.45749 -10214460.17749  19587549.6324   19587555.3114
  22686478.503   -10499814.96849  -8167071.26349  22686477.6784   22686488.7544
  19427110.919   -32261316.78949 -25118125.78949  19427110.4214   19427116.2234
  19791468.059   -16494511.69349 -12808770.09849  19791467.9524   19791474.7994
  18976091.395   -33656145.34049 -26200836.53449  18976090.7764   18976097.7564
 97  1 10 19 17 59.9940000  0  7 22 19 29  3 18 14 16
  20328713.887   -22204139.56549 -17284434.78149  20328713.0354   20328719.4474
  20451219.854   -22569102.00649 -17572787.02749  20451219.6554   20451226.6044
  19589504.066   -13109363.91849 -10206457.17949  19589503.8894   19589509.6444
  22668193.550   -10595902.90149  -8241944.59949  22668192.7974   22668204.6334
  19410111.352   -32350650.06949 -25187736.10649  19410110.8704   19410116.7404
  19801591.879   -16441310.99949 -12767315.04449  19801592.0634   19801598.7174
  18975860.329   -33657359.77749 -26201782.87649  18975859.8464   18975866.6104
 97  1 10 19 18 29.9940000  0  7 22 19 29  3 18 14 16
  20337486.234   -22158040.72349 -17248513.61049  20337485.6224   20337491.7564
  20434580.041   -22656544.75849 -17640924.21349  20434579.5554   20434586.4724
  19591516.083   -13098790.58349 -10198218.24149  19591516.0964   19591521.8214
  22649940.317   -10691822.84649  -8316687.09949  22649939.1534   22649951.1284
  19393148.308   -32439791.11649 -25257196.63049  19393148.0434   19393153.4464
  19811792.158   -16387708.35149 -12725546.77649  19811791.9924   19811798.6164
  18975736.051   -33658012.84049 -26202291.79049  18975735.6124   18975742.4344
 97  1 10 19 18 59.9940000  0  7 22 19 29  3 18 14 16
  20346333.319   -22111549.15449 -17212286.42749  20346332.4374   20346339.0234
  20417976.204   -22743798.53649 -17708914.13549  20417975.7604   20417983.3614
  19593583.518   -13087926.37249 -10189752.65449  19593583.7044   19593589.2754
  22631720.428   -10787568.30049  -8391293.70249  22631719.2974   22631731.1754
  19376223.211   -32528733.04749 -25326501.99549  19376223.1404   19376228.4054
  19822070.094   -16333697.65649 -12683460.54849  19822069.7474   19822076.7964
  18975721.580   -33658089.11249 -26202351.25249  18975721.0724   18975727.8284
 97  1 10 19 19 29.9940000  0  7 22 19 29  3 18 14 16
  20355250.340   -22064690.27749 -17175773.03349  20355249.5844   20355255.8684
  20401405.476   -22830877.83149 -17776768.10649  20401405.0314   20401412.3104
  19595700.984   -13076799.12549 -10181082.08649  19595700.8994   19595706.7634
  22613528.081   -10883168.74849  -8465787.32849  22613527.4714   22613538.7184
  19359331.764   -32617498.06949 -25395669.50949  19359331.2444   19359336.9134
  19832422.633   -16279294.69249 -12641068.65549  19832422.3004   19832429.3594
  18975809.075   -33657629.66549 -26201993.27149  18975808.6114   18975815.2914
 97  1 10 19 19 59.9940000  0  7 22 19 29  3 18 14 16
  20364244.745   -22017424.58449 -17138942.64349  20364243.9574   20364250.1814
  20384876.620   -22917737.24749 -17844450.73349  20384876.1244   20384883.2174
  19597875.478   -13065371.83649 -10172177.74149  19597875.2934   19597880.7844
  22595369.943   -10978590.14349  -8540141.41549  22595369.4614   22595379.5694
  19342483.975   -32706033.84949 -25464658.39249  19342483.6274   19342489.0754
  19842853.900   -16224478.10249 -12598354.45549  19842853.4584   19842860.4694
  18976003.948   -33656605.61749 -26201195.33349  18976003.4764   18976010.2464
 97  1 10 19 20 29.9940000  0  7 22 19 29  3 18 14 16
  20373317.185   -21969748.75549 -17101792.67249  20373316.2774   20373322.5684
  20368388.059   -23004385.12949 -17911968.53749  20368387.6894   20368394.8084
  19600107.130   -13053644.76049 -10163039.79049  19600107.2184   19600113.0184
  22577243.307   -11073845.84349  -8614366.31549  22577242.0314   22577253.7244
  19325682.685   -32794325.08649 -25533456.73149  19325682.3594   19325687.8114
  19853358.836   -16169274.36549 -12555338.59149  19853358.8764   19853365.8604
  18976304.950   -33655023.83149 -26199962.80149  18976304.2884   18976311.3154
 97  1 10 19 20 59.9940000  0  7 22 19 29  3 18 14 16
  20382463.344   -21921685.30349 -17064340.66549  20382462.4954   20382469.1894
  20351933.495   -23090854.40749 -17979347.16549  20351932.6504   20351940.0224
  19602394.013   -13041627.20549 -10153675.49149  19602393.8554   19602399.9844
  22559141.210   -11168972.03349  -8688490.40449  22559141.0724   22559151.3514
  19308924.693   -32882388.94549 -25602077.89649  19308924.1704   19308929.8384
  19863929.998   -16113722.64549 -12512051.57349  19863930.0674   19863937.6294
  18976708.560   -33652902.94749 -26198310.18549  18976707.8984   18976715.0634
 97  1 10 19 21 29.9940000  0  7 22 19 29  3 18 14 16
  20391690.007   -21873198.89149 -17026559.08049  20391689.2674   20391695.6984
  20335519.148   -23177112.16249 -18046560.96449  20335518.8634   20335526.1454
  19604743.889   -13029278.78249 -10144053.38149  19604743.8084   19604749.7174
  22541069.616   -11263938.49849  -8762490.04849  22541068.6534   22541079.1074
  19292216.037   -32970193.41449 -25670496.93349  19292215.4774   19292221.0754
  19874572.419   -16057796.50049 -12468472.79449  19874572.0704   19874579.3554
  18977222.467   -33650202.48749 -26196205.94249  18977221.8934   18977228.8074
 97  1 10 19 21 59.9940000  0  7 22 19 29  3 18 14 16
  20400994.750   -21824302.64649 -16988458.15849  20400994.2264   20401000.6114
  20319142.157   -23263173.44249 -18113621.66449  20319141.5914   20319149.2644
  19607153.319   -13016616.82549 -10134186.96649  19607153.0904   19607159.0224
  22523025.594   -11358759.82549  -8836376.63149  22523024.7144   22523035.3654
  19275553.900   -33057753.60549 -25738725.63149  19275553.5224   19275558.8564
  19885282.576   -16001514.30249 -12424616.58149  19885282.1264   19885289.6834
  18977846.477   -33646923.30849 -26193650.75149  18977845.9414   18977852.8024
 97  1 10 19 22 29.9940000  0  7 22 19 29  3 18 14 16
  20410381.850   -21774973.48849 -16950019.88949  20410380.8774   20410387.5644
  20302810.288   -23348997.86449 -18180497.79449  20302809.9174   20302817.2794
  19609630.056   -13003601.74149 -10124045.37549  19609630.0964   19609636.2164
  22505016.861   -11453395.72949  -8910118.73349  22505015.9724   22505026.6554
  19258943.026   -33145044.19849 -25806744.24749  19258942.6514   19258948.1964
  19896066.769   -15944842.94449 -12380457.11649  19896066.6804   19896073.5174
  18978586.260   -33643035.77549 -26190621.51349  18978585.6494   18978592.7584
 97  1 10 19 22 59.9940000  0  7 22 19 29  3 18 14 16
  20419848.023   -21725228.37149 -16911257.50549  20419847.2144   20419853.7894
  20286521.426   -23434596.25749 -18247197.80449  20286520.9944   20286528.0384
  19612171.388   -12990247.20549 -10113639.28749  19612171.1964   19612177.2224
  22487043.409   -11547846.05349  -8983716.29449  22487042.5444   22487053.4934
  19242377.248   -33232097.81049 -25874578.20349  19242376.9004   19242382.3104
  19906922.742   -15887794.48749 -12336003.80949  19906922.6744   19906929.4104
  18979437.961   -33638560.03949 -26187133.94049  18979437.4494   18979444.4844
 97  1 10 19 23 29.9940000  0  7 22 19 29  3 18 14 16
  20429386.680   -21675102.41849 -16872198.36549  20429385.8604   20429392.5424
  20270271.271   -23519991.14149 -18313739.23249  20270270.8044   20270277.7994
  19614771.484   -12976583.74349 -10102992.46649  19614771.4464   19614777.5954
  22469102.340   -11642126.46649  -9057181.41349  22469101.8544   22469112.4394
  19225851.612   -33318940.28449 -25942247.63549  19225851.2904   19225856.6774
  19917846.090   -15830392.27349 -12291274.84849  19917846.1824   19917853.3744
  18980392.343   -33633544.77749 -26183225.95349  18980391.7184   18980398.8204
 97  1 10 19 23 59.9940000  0  7 22 19 29  3 18 14 16
  20439007.782   -21624543.35749 -16832801.74549  20439007.0404   20439013.5314
  20254073.086   -23605112.79449 -18380067.75849  20254072.9574   20254079.7014
  19617442.989   -12962545.11449 -10092053.30849  19617443.0174   19617449.0444
  22451212.244   -11736138.72349  -9130437.54749  22451210.6304   22451221.9984
  19209382.309   -33405487.14449 -26009686.73049  19209382.0124   19209387.4604
  19928849.004   -15772572.10849 -12246220.20949  19928848.7454   19928855.9194
  18981459.831   -33627935.28949 -26178854.94049  18981459.2794   18981466.1414
 97  1 10 19 24 29.9940000  0  7 22 19 29  3 18 14 16
  20448700.381   -21573608.76649 -16793112.49749  20448699.9004   20448706.4414
  20237915.029   -23690023.60849 -18446231.99049  20237914.5934   20237921.1754
  19620174.732   -12948190.01549 -10080867.55249  19620174.6364   19620180.8554
  22433365.384   -11829923.72849  -9203516.68449  22433364.4354   22433375.3684
  19192958.191   -33491796.38649 -26076940.66549  19192957.7924   19192963.3124
  19939917.944   -15714404.55949 -12200894.88449  19939917.9524   19939924.9174
  18982628.452   -33621794.25949 -26174069.73649  18982627.7204   18982634.7744
 97  1 10 19 24 59.9940000  0  7 22 19 29  3 18 14 16
  20458465.504   -21522292.65549 -16753125.97349  20458464.4704   20458471.2834
  20221795.988   -23774729.87949 -18512236.83449  20221795.7424   20221802.8194
  19622962.870   -12933538.57249 -10069450.89149  19622962.9154   19622968.7414
  22415563.219   -11923474.47549  -9276413.23049  22415562.8194   22415572.5674
  19176580.957   -33577859.35449 -26144002.69849  19176580.6694   19176586.1904
  19951055.279   -15655877.36249 -12155289.31049  19951055.0924   19951062.2644
  18983898.091   -33615122.18249 -26168870.73149  18983897.7314   18983904.6674
 97  1 10 19 25 29.9940000  0  7 22 19 29  3 18 14 16
  20468310.946   -21470554.75349 -16712810.76649  20468309.9844   20468317.1364
  20205723.676   -23859190.49049 -18578050.25149  20205723.3894   20205729.9684
  19625813.383   -12918559.42949 -10057778.87449  19625813.3124   19625819.3444
  22397809.809   -12016768.36049  -9349109.60549  22397808.7804   22397819.8644
  19160259.693   -33663628.06349 -26210835.44049  19160259.3384   19160264.6614
  19962268.521   -15596951.40949 -12109373.02149  19962268.3794   19962275.6014
  18985277.555   -33607873.36249 -26163222.31549  18985277.1064   18985283.9854
 97  1 10 19 25 59.9940000  0  7 22 19 29  3 18 14 16
  20478230.438   -21418427.39549 -16672192.08949  20478229.6974   20478236.0464
  20189690.584   -23943444.63149 -18643702.78249  20189690.3384   20189696.7184
  19628716.950   -12903301.25049 -10045889.42849  19628717.0724   19628723.0244
  22380096.400   -12109852.56149  -9421642.55649  22380095.2124   22380106.1094
  19143985.652   -33749148.70549 -26277474.88249  19143985.1954   19143990.6484
  19973548.973   -15537672.42049 -12063181.63649  19973548.8504   19973555.7494
  18986762.903   -33600068.00249 -26157140.23249  18986762.4284   18986769.2774
 97  1 10 19 26 29.9940000  0  7 22 19 29  3 18 14 16
  20488233.760   -21365859.88249 -16631230.43749  20488232.8124   20488239.7754
  20173701.404   -24027467.96049 -18709175.45749  20173701.1474   20173707.6824
  19631682.698   -12887716.41449 -10033745.43849  19631683.0094   19631688.5304
  22362426.188   -12202709.63949  -9493998.55149  22362425.2054   22362435.9824
  19127765.541   -33834385.92749 -26343893.48449  19127765.1644   19127770.5204
  19984904.646   -15477998.23949 -12016682.31049  19984904.5684   19984911.6834
  18988361.203   -33591669.09749 -26150595.64149  18988360.5324   18988367.5544
 97  1 10 19 26 59.9940000  0  7 22 19 29  3 18 14 16
  20498314.131   -21312887.32649 -16589953.16549  20498313.0934   20498319.8754
  20157750.267   -24111291.80549 -18774492.67449  20157750.0004   20157756.4054
  19634706.345   -12871827.00249 -10021364.11449  19634706.3564   19634712.0564
  22344793.078   -12295371.47949  -9566202.36649  22344792.5824   22344801.8544
  19111595.305   -33919361.08349 -26410107.88049  19111594.8684   19111600.2884
  19996332.794   -15417943.09949 -11969886.13649  19996332.7474   19996339.4654
  18990067.459   -33582702.47549 -26143608.66849  18990066.8304   18990073.9114
 97  1 10 19 27 29.9930000  0  7 22 19 29  3 18 14 16
  20508467.230   -21259532.31949 -16548377.87249  20508466.3144   20508473.1344
  20141835.629   -24194923.77249 -18839660.39249  20141835.0684   20141841.8534
  19637789.533   -12855624.89049 -10008739.13949  19637789.6914   19637795.3104
  22327196.315   -12387842.75549  -9638257.68249  22327195.6344   22327205.3454
  19095472.972   -34004084.31849 -26476125.97549  19095472.5394   19095477.9784
  20007827.177   -15357539.74249 -11922818.61849  20007826.6104   20007834.2104
  18991881.864   -33573167.67549 -26136178.96049  18991881.1444   18991888.2324
 97  1 10 19 27 59.9930000  0  7 22 19 29  3 18 14 16
  20518689.725   -21205812.90949 -16506518.63549  20518689.0274   20518695.7284
  20125953.214   -24278385.92849 -18904695.78749  20125952.9634   20125959.8034
  19640933.881   -12839101.42449  -9995863.76149  19640933.7644   19640939.8024
  22309636.910   -12480117.14549  -9710159.59749  22309635.2914   22309644.6864
  19079395.729   -34088570.66249 -26541959.48349  19079395.3894   19079401.1044
  20019385.715   -15296799.13349 -11875488.31949  20019385.7084   20019392.9024
  18993801.704   -33563078.93249 -26128317.62049  18993801.2854   18993808.0234
 97  1 10 19 28 29.9930000  0  8 22 19 29  3 27 18 14 16
  20528984.010   -21151716.22249 -16464365.41349  20528982.5814   20528990.0304
  20110106.852   -24361658.92949 -18969583.77349  20110106.7734   20110113.6004
  19644143.802   -12822233.20049  -9982719.71049  19644143.6424   19644149.7724
  22292121.585   -12572159.41849  -9781880.68249  22292119.8874   22292129.6484
  23188047.309    -6169038.21549  -3204883.76349  23188046.6794   23188055.2094
  19063368.283   -34172795.57949 -26607589.28049  19063367.9454   19063373.3754
  20031011.987   -15235702.71449 -11827880.75749  20031011.9294   20031019.0654
  18995827.341   -33552434.28049 -26120023.10649  18995826.8934   18995833.8214
 97  1 10 19 28 59.9930000  0  8 22 19 29  3 27 18 14 16
  20539344.726   -21097270.41249 -16421940.13949  20539343.8884   20539350.7014
  20094300.486   -24444722.04949 -19034308.22249  20094300.1554   20094306.9524
  19647418.583   -12805024.16549  -9969310.12049  19647418.6654   19647424.8084
  22274649.794   -12663973.67449  -9853424.02649  22274649.4214   22274658.7824
  23167639.409    -6276281.72949  -3288450.00749  23167639.0874   23167648.2294
  19047388.465   -34256770.17949 -26673024.02749  19047387.9884   19047393.3714
  20042702.395   -15174269.49649 -11780010.75349  20042702.2164   20042709.5254
  18997957.149   -33541242.10049 -26111301.94449  18997956.6484   18997963.3744
 97  1 10 19 29 29.9930000  0  8 22 19 29  3 27 18 14 16
  20549775.062   -21042458.85649 -16379229.87149  20549774.0274   20549781.1574
  20078536.747   -24527560.57649 -19098857.67249  20078536.1694   20078543.2914
  19650760.802   -12787461.11249  -9955624.65149  19650760.9914   19650766.3084
  22257223.362   -12755549.31949  -9924781.51649  22257222.6054   22257233.1764
  23147249.338    -6383431.41449  -3371943.14949  23147248.7334   23147258.6124
  19031460.013   -34340474.61149 -26738248.25349  19031459.6254   19031464.9534
  20054455.884   -15112504.72849 -11731882.40049  20054456.0594   20054463.0904
  19000190.782   -33529504.36449 -26102155.66649  19000189.9524   19000197.0054
 97  1 10 19 29 59.9930000  0  8 22 19 29  3 27 18 14 16
  20560273.799   -20987287.59549 -16336239.30449  20560272.7594   20560279.6344
  20062813.461   -24610186.65249 -19163241.56949  20062813.1044   20062819.4754
  19654166.969   -12769561.62649  -9941677.02949  19654167.0234   19654172.6424
  22239839.724   -12846899.96049  -9995963.65249  22239838.4204   22239848.0814
  23126874.327    -6490502.91649  -3455375.35649  23126873.7284   23126883.7524
  19015581.075   -34423918.74949 -26803269.65249  19015580.4584   19015586.0594
  20066271.581   -15050413.13749 -11683499.39449  20066271.2104   20066278.7674
  19002522.085   -33517252.95349 -26092609.12049  19002521.4384   19002528.7264
 97  1 10 19 30 29.9930000  0  8 22 19 29  3 27 18 14 16
  20570837.059   -20931777.11749 -16292984.42649  20570836.3664   20570843.4944
  20047129.346   -24692607.05149 -19227465.21249  20047128.8614   20047135.7934
  19657632.094   -12751352.47349  -9927488.13849  19657632.4444   19657638.0414
  22222496.288   -12938038.28349 -10066980.39149  22222494.4674   22222505.6624
  23106511.903    -6597507.37949  -3538755.30649  23106510.1464   23106519.7384
  18999750.739   -34507107.43549 -26868091.99749  18999750.1874   18999755.8134
  20078148.884   -14987997.65949 -11634864.00549  20078148.8074   20078155.9334
  19004948.730   -33504500.96849 -26082672.51849  19004948.1684   19004955.2104
 97  1 10 19 30 59.9930000  0  8 22 19 29  3 27 18 14 16
  20581465.632   -20875924.03249 -16249462.57949  20581465.2384   20581471.9194
  20031488.195   -24774801.85649 -19291513.07349  20031487.8504   20031494.6724
  19661157.484   -12732826.38449  -9913052.27249  19661157.6444   19661163.3464
  22205195.050   -13028956.20949 -10137825.28749  22205195.4534   22205204.6264
  23086166.052    -6704425.21549  -3622067.78649  23086164.7014   23086174.0064
  18983972.705   -34590021.43249 -26932700.29749  18983972.5294   18983977.8174
  20090089.844   -14925247.43349 -11585967.77349  20090089.7804   20090096.6414
  19007475.553   -33491222.54949 -26072325.71049  19007475.0294   19007482.0424
 97  1 10 19 31 29.9930000  0  8 22 19 29  3 27 18 14 16
  20592161.783   -20819715.65549 -16205663.87749  20592160.9644   20592167.8844
  20015885.975   -24856791.90149 -19355401.36449  20015885.7214   20015892.0454
  19664739.584   -12714002.60149  -9898384.43149  19664739.6244   19664745.4424
  22187937.395   -13119645.37949 -10208491.97649  22187937.2714   22187945.8634
  23065833.155    -6811274.44249  -3705326.78949  23065831.4574   23065840.7154
  18968246.274   -34672664.24649 -26997097.28449  18968245.7474   18968251.2984
  20102096.474   -14862152.57849 -11536803.00149  20102096.1684   20102103.5264
  19010103.704   -33477411.58749 -26061563.93149  19010102.9804   19010109.8834
 97  1 10 19 31 59.9930000  0  8 22 19 29  3 27 18 14 16
  20602919.869   -20763181.62449 -16161611.41249  20602919.2264   20602925.6234
  20000321.727   -24938582.12549 -19419133.97049  20000321.1264   20000328.1454
  19668374.095   -12694903.27049  -9883501.87549  19668374.3684   19668380.4664
  22170723.537   -13210104.17149 -10278979.12749  22170722.4384   22170731.9164
  23045512.466    -6918059.89849  -3788536.11549  23045511.8544   23045521.2804
  18952566.685   -34755060.81549 -27061302.39449  18952566.3014   18952571.8254
  20114168.465   -14798713.77849 -11487370.22649  20114167.9714   20114175.5424
  19012834.882   -33463059.12049 -26050380.20249  19012834.2994   19012841.1174
 97  1 10 19 32 29.9930000  0  8 22 19 29  3 27 18 14 16
  20613741.004   -20706316.36449 -16117300.84549  20613739.9954   20613746.6224
  19984798.333   -25020158.01049 -19482699.56949  19984797.9324   19984804.4934
  19672062.140   -12675522.61149  -9868400.10249  19672062.4154   19672067.8184
  22153555.661   -13300321.00249 -10349277.71749  22153554.2844   22153565.8314
  23025206.395    -7024768.38249  -3871685.47549  23025205.0224   23025215.9754
  18936934.826   -34837206.81149 -27125312.25249  18936934.4334   18936940.2344
  20126306.980   -14734925.64749 -11437665.24249  20126306.8084   20126314.1894
  19015674.115   -33448139.13249 -26038754.25749  19015673.5734   19015680.3834
 97  1 10 19 32 59.9930000  0  8 22 19 29  3 27 18 14 16
  20624629.793   -20649095.48549 -16072713.18049  20624629.0564   20624635.1914
  19969317.387   -25101510.50549 -19546091.09149  19969316.7104   19969323.9844
  19675806.750   -12655844.51149  -9853066.57249  19675806.7924   19675812.6684
  22136435.092   -13390288.04649 -10419381.66149  22136433.9764   22136442.9754
  23004915.309    -7131397.83249  -3954773.23749  23004914.3794   23004922.9614
  18921351.946   -34919095.54449 -27189121.63749  18921351.7914   18921357.2764
  20138509.598   -14670800.56649 -11387697.69649  20138509.0204   20138516.7324
  19018621.547   -33432650.47749 -26026685.18649  19018620.9234   19018627.5974
 97  1 10 19 33 29.9930000  0  9 22 19 29 31  3 27 18 14 16
  20635592.557   -20591485.92649 -16027822.64849  20635591.5374   20635598.7134
  19953881.673   -25182625.76649 -19609297.76749  19953881.5054   19953888.3764
  19679616.162   -12635826.12149  -9837467.87849  19679616.2554   19679622.3744
  22690612.619    -6911472.88549  -5371460.31949  22690611.1574   22690622.7754
  22119370.418   -13479962.25449 -10489257.32049  22119369.3094   22119379.6404
  22984643.406    -7237927.27549  -4037783.05949  22984641.6644   22984651.3734
  18905824.631   -35000691.89949 -27252703.20949  18905824.1304   18905829.7244
  20150779.828   -14606320.05049 -11337453.19149  20150779.4964   20150786.9154
  19021678.933   -33416583.85049 -26014165.76249  19021678.4764   19021685.1954
 97  1 10 19 33 59.9930000  0  9 22 19 29 31  3 27 18 14 16
  20646623.795   -20533516.28449 -15982651.52949  20646622.9104   20646629.8584
  19938485.371   -25263533.67449 -19672342.86949  19938485.0344   19938491.9794
  19683487.773   -12615480.88249  -9821614.48849  19683487.8954   19683493.9444
  22668250.139    -7028987.59449  -5463030.20749  22668249.2184   22668259.9754
  22102357.803   -13569363.52949 -10558920.38649  22102356.7774   22102367.7574
  22964387.680    -7344371.18649  -4120726.22349  22964386.6964   22964397.0234
  18890351.025   -35082006.04249 -27316064.87249  18890350.6124   18890356.1894
  20163109.267   -14541528.44149 -11286966.27649  20163109.1204   20163116.7134
  19024838.372   -33399981.00449 -26001228.49749  19024837.6894   19024844.5404
 97  1 10 19 34 29.9930000  0  9 22 19 29 31  3 27 18 14 16
  20657727.099   -20475168.04549 -15937185.41049  20657726.0544   20657732.8244
  19923126.307   -25344246.04549 -19735235.60849  19923126.4274   19923132.9344
  19687424.333   -12594794.27049  -9805495.12149  19687424.2904   19687430.5314
  22645883.398    -7146525.06149  -5554617.80849  22645882.7524   22645893.8514
  22085396.018   -13658497.46249 -10628375.17349  22085396.1084   22085404.9334
  22944145.528    -7450742.95749  -4203613.18449  22944144.5894   22944154.7664
  18874935.649   -35163014.44049 -27379188.29949  18874935.1944   18874940.9824
  20175495.088   -14476441.13649 -11236248.95949  20175494.9854   20175502.5464
  19028095.084   -33382866.96649 -25987892.91549  19028094.5144   19028101.1824
 97  1 10 19 34 59.9930000  0  9 22 19 29 31  3 27 18 14 16
  20668896.554   -20416472.27149 -15891448.48649  20668895.7214   20668902.3254
  19907798.983   -25424791.72249 -19797998.45949  19907798.6984   19907805.6414
  19691423.285   -12573779.90049  -9789120.32949  19691423.5214   19691429.4074
  22623507.955    -7264108.44649  -5646241.21849  22623507.5324   22623518.9234
  22068482.434   -13747378.76649 -10697633.10249  22068482.0584   22068490.1664
  22923911.411    -7557072.13649  -4286466.96849  22923910.6374   22923921.0894
  18859578.094   -35243718.93649 -27442074.91849  18859577.8164   18859583.5604
  20187931.493   -14411087.94849 -11185324.45649  20187931.3964   20187938.9114
  19031441.042   -33365283.74249 -25974191.72349  19031440.5584   19031447.1434
 97  1 10 19 35 29.9930000  0  9 22 19 29 31  3 27 18 14 16
  20680129.718   -20357441.45749 -15845450.48149  20680128.9754   20680136.1444
  19892502.887   -25505173.29049 -19860633.43349  19892502.5074   19892509.0494
  19695482.618   -12552448.10649  -9772498.21149  19695482.5614   19695488.8354
  22601118.977    -7381763.23649  -5737920.31659  22601118.2814   22601128.6244
  22051616.247   -13836010.15149 -10766696.31949  22051615.1644   22051624.4274
  22903686.091    -7663356.71949  -4369285.99349  22903685.7684   22903694.6664
  18844277.934   -35324121.74249 -27504726.44449  18844277.5184   18844283.0464
  20200419.138   -14345464.73449 -11134189.53549  20200418.6814   20200426.4244
  19034878.237   -33347221.23849 -25960117.05949  19034877.5584   19034884.6004
 97  1 10 19 35 59.9930000  0  9 22 19 29 31  3 27 18 14 16
  20691424.961   -20298085.09349 -15799198.81149  20691424.1054   20691431.6374
  19877241.231   -25585373.79849 -19923127.30449  19877240.8234   19877247.8214
  19699600.512   -12530808.88649  -9755636.54249  19699600.5104   19699607.3174
  22578715.100    -7499496.37849  -5829660.48349  22578714.1614   22578725.7004
  22034795.111   -13924404.17749 -10835574.55749  22034794.3494   22034804.3524
  22883471.143    -7769586.81849  -4452062.57849  22883471.0334   22883480.7114
  18829032.313   -35404238.16649 -27567154.82349  18829031.9924   18829037.6594
  20212958.437   -14279570.64649 -11082843.55549  20212958.3104   20212966.2784
  19038409.732   -33328663.14249 -25945656.22349  19038409.0244   19038415.9944
 97  1 10 19 36 29.9930000  0  9 22 19 29 31  3 27 18 14 16
  20702778.312   -20238423.29549 -15752709.13249  20702777.3354   20702783.8264
  19862015.777   -25665384.01949 -19985472.91649  19862015.4734   19862022.0374
  19703775.748   -12508868.11249  -9738539.89649  19703775.8704   19703781.9834
  22556293.733    -7617321.18949  -5921472.10449  22556293.8834   22556304.5054
  22018016.911   -14012573.90649 -10904278.04949  22018016.4044   22018025.1274
  22863265.198    -7875770.14049  -4534802.73049  22863265.1114   22863275.0834
  18813837.463   -35484087.67049 -27629375.21349  18813837.3114   18813842.8294
  20225549.788   -14213402.89049 -11031284.33749  20225549.8334   20225557.4724
  19042036.410   -33309605.18149 -25930805.87849  19042035.8234   19042042.8024
 97  1 10 19 36 59.9930000  0  9 22 19 29 31  3 27 18 14 16
  20714191.342   -20178447.66149 -15705974.90849  20714189.7454   20714197.4414
  19846834.327   -25745162.88549 -20047638.24749  19846834.2834   19846840.9604
  19708012.329   -12486604.75549  -9721191.87449  19708012.4774   19708018.6554
  22533859.679    -7735212.99949  -6013335.86549  22533860.2334   22533870.3824
  22001287.969   -14100483.74849 -10972779.04549  22001287.5064   22001296.7514
  22843075.688    -7981867.58249  -4617475.97649  22843074.8984   22843084.3414
  18798695.130   -35563661.12549 -27691380.50549  18798694.7944   18798700.5314
  20238199.093   -14146930.54249 -10979487.77649  20238198.9464   20238206.3444
  19045766.396   -33290003.91849 -25915532.18549  19045765.8114   19045772.7794
 97  1 10 19 37 29.9930000  0  9 22 19 29 31  3 27 18 14 16
  20725663.819   -20118159.36349 -15658997.04449  20725663.0124   20725669.5944
  19831697.460   -25824707.74449 -20109621.23149  19831697.3724   19831704.1224
  19712308.204   -12464029.97849  -9703601.20449  19712308.0834   19712314.5294
  22511413.313    -7853169.27649  -6105249.78749  22511411.9244   22511424.4274
  21984609.470   -14188128.81949 -11041073.72249  21984608.5524   21984619.0434
  22822904.124    -8087869.00149  -4700074.40249  22822903.0334   22822913.6504
  18783601.899   -35642976.49749 -27753184.69049  18783601.5034   18783607.1474
  20250906.831   -14080150.98649 -10927451.81849  20250906.7894   20250914.6284
  19049602.067   -33269847.50749 -25899825.89949  19049601.5654   19049608.4024
 97  1 10 19 37 59.9930000  0  9 22 19 29 31  3 27 18 14 16
  20737196.387   -20057555.34749 -15611773.17149  20737195.5184   20737203.1554
  19816606.071   -25904013.52749 -20171417.91349  19816605.6694   19816612.6514
  19716668.724   -12441115.34949  -9685745.72449  19716669.0744   19716675.0114
  22488960.756    -7971158.52049  -6197189.31049  22488961.7864   22488971.6214
  21967985.439   -14275487.59949 -11109145.40649  21967984.4914   21967993.2834
  22802752.537    -8193766.27149  -4782591.66749  22802751.9434   22802761.3344
  18768561.173   -35722016.27749 -27814774.12749  18768561.1264   18768566.4964
  20263673.881   -14013059.96449 -10875173.16949  20263673.3914   20263681.1304
  19053542.970   -33249137.95949 -25883688.59249  19053542.2174   19053549.0494
 97  1 10 19 38 29.9930000  0  9 22 19 29 31  3 27 18 14 16
  20748790.062   -19996630.19149 -15564299.06649  20748789.2724   20748796.5034
  19801559.718   -25983082.80449 -20233030.31049  19801559.4164   19801566.1454
  19721094.397   -12417858.72749  -9667623.72849  19721094.7304   19721100.5094
  22466506.751    -8089154.81649  -6289134.30949  22466505.3824   22466517.1374
  21951419.338   -14362541.84949 -11176979.71749  21951418.5894   21951428.7664
  22782620.007    -8299563.80849  -4865031.24249  22782619.4714   22782628.8864
  18753577.304   -35800757.30049 -27876130.77449  18753577.1094   18753582.4964
  20276500.157   -13945657.38749 -10822651.74849  20276499.6214   20276508.1444
  19057588.741   -33227877.36449 -25867121.90449  19057588.1564   19057595.0784
 97  1 10 19 38 59.9930000  0  9 22 19 29 31  3 27 18 14 16
  20760443.503   -19935391.09749 -15516580.32249  20760442.6254   20760449.5754
  19786553.039   -26061943.60449 -20294480.25349  19786552.6454   19786559.4224
  19725582.567   -12394273.36449  -9649245.56549  19725582.4134   19725588.8744
  22444052.846    -8207150.75949  -6381079.09949  22444050.7474   22444063.6374
  21934912.558   -14449285.37049 -11244571.92049  21934911.8074   21934921.2084
  22762505.024    -8405268.68549  -4947398.61449  22762504.0564   22762513.3484
  18738649.461   -35879203.62349 -27937257.77949  18738649.2434   18738654.8474
  20289382.875   -13877958.25949 -10769899.25449  20289382.7534   20289390.2114
  19061736.483   -33206080.93849 -25850137.69049  19061736.0254   19061742.9524
 97  1 10 19 39 29.9930000  0  9 22 19 29 31  3 27 18 14 16
  20772159.143   -19873825.42849 -15468607.10649  20772158.3044   20772165.1744
  19771584.153   -26140605.23149 -20355775.00649  19771583.8274   19771590.4924
  19730135.406   -12370348.14149  -9630602.57049  19730135.5114   19730141.8974
  22421602.679    -8325126.74549  -6473008.34649  22421600.6094   22421611.8824
  21918464.750   -14535718.74549 -11311922.51649  21918463.3344   21918473.5204
  22742407.066    -8510883.66749  -5029695.97249  22742406.0904   22742415.5964
  18723780.402   -35957341.10149 -27998144.12649  18723780.1374   18723785.8464
  20302322.633   -13809959.56849 -10716913.32549  20302322.4554   20302330.4444
  19065985.087   -33183754.46749 -25832740.45349  19065984.8334   19065991.5614
 97  1 10 19 39 59.9930000  0  9 22 19 29 31  3 27 18 14 16
  20783933.511   -19811950.85949 -15420393.17149  20783932.6834   20783939.6264
  19756648.969   -26219090.03249 -20416931.97649  19756648.7074   19756655.3744
  19734751.597   -12346089.78049  -9611699.98849  19734751.8064   19734757.8934
  22399153.581    -8443096.52249  -6564932.68549  22399153.4994   22399163.6204
  21902071.039   -14621867.49049 -11379051.36149  21902069.6934   21902079.2524
  22722321.875    -8616431.27349  -5111940.79349  22722321.0444   22722331.8944
  18708967.803   -36035181.71449 -28058799.14849  18708967.4814   18708973.1564
  20315315.670   -13741681.41849 -10663709.64149  20315315.4904   20315323.0124
  19070329.883   -33160922.60949 -25814949.40749  19070329.0964   19070336.4904
 97  1 10 19 40 29.9930000  0  9 22 19 29 31  3 27 18 14 16
  20795771.981   -19749739.33549 -15371916.68849  20795771.2474   20795777.9834
  19741754.040   -26297363.54549 -20477924.31349  19741753.9684   19741760.5264
  19739433.589   -12321486.02249  -9592528.25949  19739433.8444   19739440.2024
  22376711.476    -8561030.09549  -6656828.90149  22376709.4764   22376721.9214
  21885738.603   -14707694.45249 -11445929.46149  21885738.3194   21885748.9944
  22702258.326    -8721865.44149  -5194097.22949  22702257.7944   22702266.9334
  18694216.976   -36112697.87049 -28119201.35149  18694216.5834   18694222.3374
  20328369.569   -13673083.31449 -10610256.63649  20328369.8924   20328376.9254
  19074777.688   -33137549.13949 -25796736.33049  19074777.0274   19074784.2634
 97  1 10 19 40 59.9930000  0  9 22 19 29 31  3 27 18 14 16
  20807717.440   -19686965.65749 -15323002.16249  20807716.9574   20807723.4844
  19726942.750   -26375197.25349 -20538573.94349  19726942.3324   19726949.2974
  19744225.999   -12296302.02949  -9572904.39449  19744226.5664   19744232.4594
  22354317.354    -8678710.98249  -6748528.15149  22354316.8684   22354327.8974
  21869511.203   -14792970.26049 -11512378.07849  21869510.4634   21869520.3374
  22682260.369    -8826955.23449  -5275985.33549  22682259.4194   22682268.6374
  18679571.605   -36189659.87749 -28179171.75049  18679571.2424   18679576.9284
  20341526.904   -13603941.36649 -10556379.86249  20341527.2744   20341534.2784
  19079369.744   -33113417.60049 -25777932.54549  19079369.1584   19079376.2394
 97  1 10 19 41 29.9930000  0  9 22 19 29 31  3 27 18 14 16
  20819698.326   -19624006.02849 -15273942.74249  20819697.5934   20819704.3244
  19712150.407   -26452931.29949 -20599145.89849  19712149.9434   19712156.9034
  19749058.623   -12270906.58249  -9553115.80949  19749058.8314   19749065.3304
  22331901.572    -8796506.31249  -6840316.48049  22331900.3974   22331913.0574
  21853316.786   -14878072.35749 -11578691.31049  21853316.7244   21853325.5754
  22662258.261    -8932066.90149  -5357890.47749  22662258.4654   22662266.2994
  18664964.572   -36266420.34849 -28238985.10649  18664964.0044   18664969.8844
  20354715.777   -13534633.55349 -10502373.84249  20354715.7444   20354722.7954
  19084034.892   -33088902.14649 -25758829.59549  19084034.4084   19084041.2064
 97  1 10 19 41 59.9930000  0  9 22 19 29 31  3 27 18 14 16
  20831731.552   -19560771.29249 -15224668.96349  20831730.8434   20831737.7314
  19697398.933   -26530450.53849 -20659550.48849  19697398.2954   19697405.2734
  19753947.657   -12245214.83949  -9533096.34349  19753947.5774   19753953.6584
  22309480.846    -8914326.66749  -6932124.30649  22309478.4694   22309492.2554
  21837176.696   -14962889.13049 -11644782.20749  21837175.4184   21837184.8764
  22642271.464    -9037098.69049  -5439733.40649  22642271.0624   22642278.5924
  18650416.206   -36342872.50249 -28298558.21449  18650415.8564   18650421.4244
  20367954.135   -13465065.69849 -10448165.18549  20367954.1894   20367961.3454
  19088792.842   -33063899.01249 -25739346.64049  19088792.2944   19088798.8964
 97  1 10 19 42 29.9930000  0  9 22 19 29 31  3 27 18 14 16
  20843820.449   -19497243.94249 -15175167.16349  20843819.4644   20843827.1924
  19682693.571   -26607727.50149 -20719766.29449  19682693.1454   19682700.1374
  19758894.941   -12219216.60349  -9512838.01249  19758894.7524   19758901.0014
  22287059.792    -9032149.34349  -7023933.95949  22287058.2814   22287069.1164
  21821097.936   -15047384.26949 -11710622.47349  21821097.9984   21821106.0394
  22622304.401    -9142026.37549  -5521495.19949  22622303.6554   22622312.2924
  18635933.614   -36418979.15449 -28357862.09649  18635933.2724   18635938.8344
  20381244.554   -13395224.05549 -10393743.19449  20381244.2884   20381251.8234
  19093647.158   -33038389.38049 -25719469.00649  19093646.6534   19093653.5714
 97  1 10 19 42 59.9930000  0  9 22 19 29 31  3 27 18 14 16
  20855968.075   -19433407.92649 -15125424.85349  20855967.5344   20855974.4384
  19668034.986   -26684758.89749 -20779790.73849  19668034.4334   19668041.0194
  19763903.400   -12192897.25049  -9492329.50249  19763903.5344   19763909.9914
  22264640.103    -9149964.46149  -7115737.75149  22264639.5314   22264650.8344
  21805078.231   -15131568.55849 -11776220.50449  21805077.9594   21805086.0804
  22602354.278    -9246864.67049  -5603187.33349  22602353.4564   22602361.6394
  18621518.576   -36494730.79349 -28416889.33949  18621518.1414   18621523.6254
  20394585.849   -13325115.06649 -10339112.87949  20394585.4724   20394592.8204
  19098597.229   -33012376.39149 -25699199.14449  19098596.7074   19098603.6144
 97  1 10 19 43 29.9930000  0  9 22 19 29 31  3 27 18 14 16
  20868172.962   -19369270.86249 -15075447.96549  20868171.6954   20868179.1124
  19653420.104   -26761560.55749 -20839636.18549  19653419.6114   19653426.2684
  19768970.212   -12166271.15949  -9471581.98949  19768970.0574   19768976.9164
  22242222.775    -9267767.38849  -7207531.95749  22242221.7704   22242232.7394
  21789116.601   -15215446.94549 -11841580.15949  21789115.8094   21789124.8964
  22582419.898    -9351620.25249  -5684814.98449  22582418.6674   22582427.9784
  18607168.942   -36570138.70149 -28475648.74449  18607168.4254   18607174.1474
  20407977.874   -13254739.83849 -10284275.10649  20407977.8914   20407985.3734
  19103643.799   -32985856.68349 -25678534.45749  19103643.2634   19103650.2114
 97  1 10 19 43 59.9930000  0  9 22 19 29 31  3 27 18 14 16
  20880434.737   -19304834.81049 -15025238.10649  20880433.5674   20880441.1604
  19638843.014   -26838163.42749 -20899326.72949  19638842.5324   19638849.2484
  19774095.172   -12139339.70849  -9450596.50049  19774095.1894   19774101.5964
  22219808.643    -9385553.59449  -7299313.12149  22219807.1884   22219819.0024
  21773216.601   -15299001.19349 -11906687.25049  21773215.6864   21773225.1184
  22562499.506    -9456302.36549  -5766385.40249  22562498.9274   22562507.4634
  18592881.275   -36645220.78949 -28534154.26249  18592880.9464   18592886.5114
  20421421.048   -13184096.33249 -10229228.28849  20421421.3344   20421427.6604
  19108787.955   -32958823.92649 -25657469.97949  19108787.5224   19108794.4264
 97  1 10 19 44 29.9930000  0  9 22 19 29 31  3 27 18 14 16
  20892751.527   -19240109.51749 -14974802.86549  20892750.5404   20892758.2354
  19624301.986   -26914576.91349 -20958869.69849  19624301.7594   19624307.9314
  19779280.992   -12112088.31849  -9429361.71649  19779281.2984   19779287.5734
  22197399.969    -9503311.89749  -7391072.51449  22197398.6614   22197409.2924
  21757377.646   -15382235.55749 -11971545.09549  21757378.0714   21757385.6504
  22542591.980    -9560916.48249  -5847902.81049  22542591.7184   22542600.4214
  18578653.920   -36719986.27349 -28592413.07149  18578653.5164   18578659.0674
  20434914.725   -13113186.82549 -10173974.21149  20434914.6034   20434922.0254
  19114027.048   -32931292.49949 -25636016.94049  19114026.5154   19114033.6124
 97  1 10 19 44 59.9930000  0  9 22 19 29 31  3 27 18 14 16
  20905122.069   -19175101.84349 -14924147.59649  20905121.2664   20905128.4544
  19609797.751   -26990797.21649 -21018262.13549  19609797.5004   19609803.8754
  19784530.548   -12084502.26449  -9407866.17949  19784530.5744   19784536.9794
  22174995.383    -9621048.38049  -7482814.89149  22174994.1814   22175004.9994
  21741600.577   -15465144.49249 -12036149.34949  21741600.7734   21741610.2884
  22522695.986    -9665470.14449  -5929373.09749  22522695.3024   22522704.8924
  18564485.031   -36794444.03149 -28650432.09549  18564484.6654   18564490.2034
  20448458.806   -13042012.54649 -10118513.79849  20448458.5674   20448466.3054
  19119361.214   -32903261.36149 -25614174.50949  19119360.5424   19119367.6694
 97  1 10 19 45 29.9930000  0  9 22 19 29 31  3 27 18 14 16
  20917542.321   -19109833.37049 -14873289.09249  20917541.4274   20917549.0914
  19595332.392   -27066813.24049 -21077495.38749  19595332.0044   19595338.5424
  19789844.129   -12056579.37849  -9386108.15849  19789844.4864   19789850.7754
  22152594.735    -9738763.53949  -7574540.69249  22152593.7184   22152604.5074
  21725889.350   -15547707.23749 -12100483.83549  21725888.3804   21725898.4534
  22502814.168    -9769948.83949  -6010784.97249  22502812.8574   22502822.2954
  18550375.464   -36868590.23849 -28708208.35849  18550375.3224   18550380.7934
  20462053.012   -12970574.56449 -10062847.93449  20462053.0454   20462060.2804
  19124791.311   -32874726.16849 -25591939.31749  19124790.9534   19124797.6884
 97  1 10 19 45 59.9930000  0  9 22 19 29 31  3 27 18 14 16
  20930012.080   -19044304.30649 -14822227.52649  20930010.8154   20930018.6014
  19580907.909   -27142614.38349 -21136561.20149  19580907.7604   19580913.9794
  19795224.694   -12028304.73649  -9364076.01649  19795224.4114   19795231.4774
  22130198.124    -9856457.93249  -7666250.37149  22130196.8244   22130207.1174
  21710243.613   -15629925.83049 -12164550.17349  21710242.7524   21710251.6854
  22482946.671    -9874352.88549  -6092138.67349  22482945.6414   22482955.0064
  18536324.867   -36942426.74749 -28765743.28849  18536324.5604   18536330.3204
  20475695.528   -12898882.79749 -10006984.28149  20475695.2214   20475703.1684
  19130314.982   -32845699.40349 -25569321.08149  19130314.6594   19130321.2404
 97  1 10 19 46 29.9930000  0  9 22 19 29 31  3 27 18 14 16
  20942530.707   -18978518.41049 -14770965.85449  20942529.6684   20942536.5894
  19566522.589   -27218209.70749 -21195466.63149  19566522.2194   19566528.5994
  19800670.385   -11999687.48049  -9341776.90949  19800670.3814   19800676.8984
  22107802.155    -9974148.87949  -7757957.34849  22107800.6184   22107811.6084
  21694657.554   -15711831.01749 -12228372.28949  21694656.6924   21694665.1764
  22463092.813    -9978685.40549  -6173436.62549  22463093.1744   22463100.5144
  18522331.801   -37015960.83349 -28823042.57649  18522331.5974   18522336.9784
  20489384.544   -12826946.79949  -9950930.34649  20489384.6744   20489392.5124
  19135928.993   -32816197.61049 -25546332.69249  19135928.3924   19135935.2124
 97  1 10 19 46 59.9930000  0  9 22 19 29 31  3 27 18 14 16
  20955104.569   -18912442.60649 -14719478.28149  20955103.7444   20955111.3404
  19552179.053   -27293585.20249 -21254200.77749  19552178.7384   19552184.9564
  19806180.963   -11970729.48549  -9319212.30449  19806180.9864   19806187.5164
  22085411.314   -10091812.58949  -7849643.13449  22085410.6184   22085420.1734
  21679133.649   -15793408.97349 -12291939.44849  21679133.1384   21679141.2714
  22443256.651   -10082925.47049  -6254662.53349  22443255.9974   22443264.9934
  18508400.665   -37089169.52249 -28880088.30849  18508400.2114   18508405.7564
  20503122.978   -12754751.30249  -9894674.19349  20503123.0834   20503130.9834
  19141637.747   -32786198.04749 -25522956.43549  19141637.0404   19141644.0784
 97  1 10 19 47 29.9930000  0  9 22 19 29 31  3 27 18 14 16
  20967733.065   -18846079.60049 -14667766.90449  20967732.0514   20967738.7724
  19537873.606   -27368760.96449 -21312779.26949  19537873.4224   19537880.1614
  19811752.770   -11941449.51949  -9296396.77049  19811752.9594   19811759.4914
  22063028.739   -10209432.56749  -7941294.83049  22063027.9044   22063038.2704
  21663670.455   -15874668.38949 -12355258.35749  21663669.9034   21663678.1944
  22423438.360   -10187070.84649  -6335814.64949  22423436.8684   22423446.1334
  18494530.716   -37162056.65749 -28936883.47449  18494530.2534   18494535.9394
  20516910.212   -12682299.52149  -9838218.33249  20516910.0294   20516917.4214
  19147439.172   -32755711.44749 -25499200.67149  19147438.6544   19147445.6594
 97  1 10 19 47 59.9930000  0  9 22 19 29 31  3 27 18 14 16
  20980418.198   -18779418.71949 -14615823.41449  20980417.6494   20980425.0164
  19523604.831   -27443744.04749 -21371207.63949  19523604.6804   19523611.0094
  19817384.630   -11911854.11549  -9273335.47349  19817384.5904   19817391.3464
  22040656.860   -10326996.22549  -8032902.66349  22040655.1724   22040665.9114
  21648267.403   -15955611.99349 -12418331.23549  21648266.9574   21648274.6934
  22403636.735   -10291127.89849  -6416897.94049  22403636.9254   22403644.7784
  18480723.637   -37234613.36949 -28993421.17349  18480723.2224   18480728.4904
  20530746.864   -12609587.86149  -9781559.96649  20530747.0704   20530754.5304
  19153334.005   -32724734.06749 -25475062.48449  19153333.2334   19153340.5544
 97  1 10 19 48 29.9930000  0  9 22 19 29 31  3 27 18 14 16
  20993160.989   -18712454.70349 -14563643.71749  20993160.5674   20993167.7864
  19509375.838   -27518517.79649 -21429472.87049  19509375.5104   19509382.0594
  19823077.480   -11881938.04049  -9250024.28149  19823077.4094   19823084.3974
  22018299.701   -10444482.47249  -8124450.19649  22018298.7494   22018308.6034
  21632926.856   -16036226.62549 -12481147.71249  21632926.5474   21632934.6794
  22383856.654   -10395073.65849  -6497894.50349  22383855.8694   22383865.3894
  18466984.864   -37306810.86249 -29049678.95549  18466984.3034   18466989.9734
  20544634.988   -12536605.57349  -9724690.72049  20544635.1954   20544642.8274
  19159324.437   -32693254.30249 -25450532.82349  19159323.6564   19159330.8904
 97  1 10 19 48 59.9930000  0  9 22 19 29 31  3 27 18 14 16
  21005955.951   -18645216.84449 -14511250.64049  21005955.8894   21005962.2754
  19495187.774   -27593076.63049 -21487570.64849  19495187.1734   19495194.1084
  19828830.270   -11851707.23949  -9226467.88649  19828830.2164   19828836.8744
  21995957.772   -10561889.12249  -8215935.71449  21995957.0464   21995966.6824
  21617651.931   -16116496.41749 -12543695.50949  21617651.0424   21617660.4054
  22364094.765   -10498922.97049  -6578815.91849  22364094.0004   22364102.4664
  18453315.986   -37378641.18349 -29105650.63349  18453315.6854   18453321.3334
  20558569.001   -12463382.28849  -9667633.68849  20558569.0694   20558576.4144
  19165405.915   -32661296.03349 -25425630.29949  19165405.3964   19165412.3214
 97  1 10 19 49 29.9930000  0  9 22 19 29 31  3 27 18 14 16
  21018797.868   -18577732.62049 -14458665.58549  21018797.0804   21018804.1564
  19481040.511   -27667420.53949 -21545500.95149  19481040.1774   19481046.5894
  19834644.992   -11821151.04249  -9202657.92249  19834645.4114   19834651.8494
  21973628.772   -10679228.12049  -8307368.58749  21973628.4744   21973638.3724
  21602444.081   -16196413.59449 -12605968.50549  21602442.9304   21602452.0184
  22344350.178   -10602680.18149  -6659665.54849  22344349.4594   22344357.8364
  18439716.516   -37450107.02049 -29161338.29849  18439716.3204   18439721.9704
  20572544.902   -12389939.05649  -9610405.27249  20572544.7344   20572552.4604
  19171575.339   -32628875.62049 -25400367.66549  19171574.6154   19171581.6694
 97  1 10 19 49 59.9930000  0  9 22 19 29 31  3 27 18 14 16
  21031688.488   -18509992.26449 -14405880.96849  21031687.3764   21031695.3834
  19466938.596   -27741526.40649 -21603245.77149  19466937.9394   19466944.5784
  19840526.125   -11790245.58949  -9178575.80549  19840526.1104   19840532.8264
  21951313.170   -10796496.56049  -8398746.48049  21951311.4134   21951322.3844
  21587305.133   -16275968.85649 -12667959.47749  21587304.4604   21587313.8284
  22324624.875   -10706336.20249  -6740436.32749  22324623.3854   22324631.6814
  18426189.491   -37521191.93949 -29216729.14949  18426189.0554   18426194.8934
  20586562.989   -12316273.78549  -9553003.84349  20586563.0894   20586570.6294
  19177834.434   -32595983.90049 -25374737.78249  19177833.8024   19177840.5584
